[[{"header":{"parameterUnit":"m.s-1","parameterCategory":1,"la1":30.6,"la2":28.766,"lo1":-90.7593,"lo2":-88.6598,"dy":0.0162,"dx":0.0183,"nx":116,"ny":114,"refTime":"2023-06-02T12:00:00:Z","depth":0,"parameterNumber":2,"parameterNumberName":"U-component_of_WINDS"},"data":[0.0,0.0,0.0,0.0,0.0,0.0,0.0,0.0,0.0,0.0,0.0,0.0,0.0,0.0,0.0,0.0,0.0,0.0,0.0,0.0,0.0,0.0,0.0,0.0,0.0,0.0,0.0,0.0,0.0,0.0,0.0,0.0,0.0,0.0,0.0,0.0,0.0,0.0,0.0,0.0,0.0,0.0,0.0,0.0,0.0,0.0,0.0,0.0,0.0,0.0,0.0,0.0,0.0,0.0,0.0,0.0,0.0,0.0,0.0,0.0,0.0,0.0,0.0,0.0,0.0,0.0,0.0,0.0,0.0,0.0,0.0,0.0,0.0,0.0,0.0,0.0,0.0,0.0,0.0,0.0,0.0,0.0,0.0,0.0,0.0,0.0,0.0,0.0,0.0,0.0,0.0,0.0,0.0,0.0,0.0,0.0,0.0,0.0,0.0,0.0,0.0,0.0,0.0,0.0,0.0,0.0,0.0,0.0,0.0,0.0,0.0,0.0,0.0,0.0,0.0,0.0,0.0,0.0,0.0,0.0,0.0,0.0,0.0,0.0,0.0,0.0,0.0,0.0,0.0,0.0,0.0,0.0,0.0,0.0,0.0,0.0,0.0,0.0,0.0,0.0,0.0,0.0,0.0,0.0,0.0,0.0,0.0,0.0,0.0,0.0,0.0,0.0,0.0,0.0,0.0,0.0,0.0,0.0,0.0,0.0,0.0,0.0,0.0,0.0,0.0,0.0,0.0,0.0,0.0,0.0,0.0,0.0,0.0,0.0,0.0,0.0,0.0,0.0,0.0,0.0,0.0,0.0,0.0,0.0,0.0,0.0,0.0,0.0,0.0,0.0,0.0,0.0,0.0,0.0,0.0,0.0,0.0,0.0,0.0,0.0,0.0,0.0,0.0,0.0,0.0,0.0,0.0,0.0,0.0,0.0,0.0,0.0,0.0,0.0,0.0,0.0,0.0,0.0,0.0,0.0,0.0,0.0,0.0,0.0,0.0,0.0,0.0,0.0,0.0,0.0,0.0,0.0,0.0,0.0,0.0,0.0,0.0,0.0,0.0,0.0,0.0,0.0,0.0,0.0,0.0,0.0,0.0,0.0,0.0,0.0,0.0,0.0,0.0,0.0,0.0,0.0,0.0,0.0,0.0,0.0,0.0,0.0,0.0,0.0,0.0,0.0,0.0,0.0,0.0,0.0,0.0,0.0,0.0,0.0,0.0,0.0,0.0,0.0,0.0,0.0,0.0,0.0,0.0,0.0,0.0,0.0,0.0,0.0,0.0,0.0,0.0,0.0,0.0,0.0,0.0,0.0,0.0,0.0,0.0,0.0,0.0,0.0,0.0,0.0,0.0,0.0,0.0,0.0,0.0,0.0,0.0,0.0,0.0,0.0,0.0,0.0,0.0,0.0,0.0,0.0,0.0,0.0,0.0,0.0,0.0,0.0,0.0,0.0,0.0,0.0,0.0,0.0,0.0,0.0,0.0,0.0,0.0,0.0,0.0,0.0,0.0,0.0,0.0,0.0,0.0,0.0,0.0,0.0,0.0,0.0,0.0,0.0,0.0,0.0,0.0,0.0,0.0,0.0,0.0,0.0,0.0,0.0,0.0,0.0,0.0,0.0,0.0,0.0,0.0,0.0,0.0,0.0,0.0,0.0,0.0,0.0,0.0,0.0,0.0,0.0,0.0,0.0,0.0,0.0,0.0,0.0,0.0,0.0,0.0,0.0,0.0,0.0,0.0,0.0,0.0,0.0,0.0,0.0,0.0,0.0,0.0,0.0,0.0,0.0,0.0,0.0,0.0,0.0,0.0,0.0,0.0,0.0,0.0,0.0,0.0,0.0,0.0,0.0,0.0,0.0,0.0,0.0,0.0,0.0,0.0,0.0,0.0,0.0,0.0,0.0,0.0,0.0,0.0,0.0,0.0,0.0,0.0,0.0,0.0,0.0,0.0,0.0,0.0,0.0,0.0,0.0,0.0,0.0,0.0,0.0,0.0,0.0,0.0,0.0,0.0,0.0,0.0,0.0,0.0,0.0,0.0,0.0,0.0,0.0,0.0,0.0,0.0,0.0,0.0,0.0,0.0,0.0,0.0,0.0,0.0,0.0,0.0,0.0,0.0,0.0,0.0,0.0,0.0,0.0,0.0,0.0,0.0,0.0,0.0,0.0,0.0,0.0,0.0,0.0,0.0,0.0,0.0,0.0,0.0,0.0,0.0,0.0,0.0,0.0,0.0,0.0,0.0,0.0,0.0,0.0,0.0,0.0,0.0,0.0,0.0,0.0,0.0,0.0,0.0,0.0,0.0,0.0,0.0,0.0,0.0,0.0,0.0,0.0,0.0,0.0,0.0,0.0,0.0,0.0,0.0,0.0,0.0,0.0,0.0,0.0,0.0,0.0,0.0,0.0,0.0,0.0,0.0,0.0,0.0,0.0,0.0,0.0,0.0,0.0,0.0,0.0,0.0,0.0,0.0,0.0,0.0,0.0,0.0,0.0,0.0,0.0,0.0,0.0,0.0,0.0,0.0,0.0,0.0,0.0,0.0,0.0,0.0,0.0,0.0,0.0,0.0,0.0,0.0,0.0,0.0,0.0,0.0,0.0,0.0,0.0,0.0,0.0,0.0,0.0,0.0,0.0,0.0,0.0,0.0,0.0,0.0,0.0,0.0,0.0,0.0,0.0,0.0,0.0,0.0,0.0,0.0,0.0,0.0,0.0,0.0,0.0,0.0,0.0,0.0,0.0,0.0,0.0,0.0,0.0,0.0,0.0,0.0,0.0,0.0,0.0,0.0,0.0,0.0,0.0,0.0,0.0,0.0,0.0,0.0,0.0,0.0,0.0,0.0,0.0,0.0,0.0,0.0,0.0,0.0,0.0,0.0,0.0,0.0,0.0,0.0,0.0,0.0,0.0,0.0,0.0,0.0,0.0,0.0,0.0,0.0,0.0,0.0,0.0,0.0,0.0,0.0,0.0,0.0,0.0,0.0,0.0,0.0,0.0,0.0,0.0,0.0,0.0,0.0,0.0,0.0,0.0,0.0,0.0,0.0,0.0,0.0,0.0,0.0,0.0,0.0,0.0,0.0,0.0,0.0,0.0,0.0,0.0,0.0,0.0,0.0,0.0,0.0,0.0,0.0,0.0,0.0,0.0,0.0,0.0,0.0,0.0,0.0,0.0,0.0,0.0,0.0,0.0,0.0,0.0,0.0,0.0,0.0,0.0,0.0,0.0,0.0,0.0,0.0,0.0,0.0,0.0,0.0,0.0,0.0,0.0,0.0,0.0,0.0,0.0,0.0,0.0,0.0,0.0,0.0,0.0,0.0,0.0,0.0,0.0,0.0,0.0,0.0,0.0,0.0,0.0,0.0,0.0,0.0,0.0,0.0,0.0,0.0,0.0,0.0,0.0,0.0,0.0,0.0,0.0,0.0,0.0,0.0,0.0,0.0,0.0,0.0,0.0,0.0,0.0,0.0,0.0,0.0,0.0,0.0,0.0,0.0,0.0,0.0,0.0,0.0,0.0,0.0,0.0,0.0,0.0,0.0,0.0,0.0,0.0,0.0,0.0,0.0,0.0,0.0,0.0,0.0,0.0,0.0,0.0,0.0,0.0,0.0,0.0,0.0,0.0,0.0,0.0,0.0,0.0,0.0,0.0,0.0,0.0,0.0,0.0,0.0,0.0,0.0,0.0,0.0,0.0,0.0,0.0,0.0,0.0,0.0,0.0,0.0,0.0,0.0,0.0,0.0,0.0,0.0,0.0,0.0,0.0,0.0,0.0,0.0,0.0,0.0,0.0,0.0,0.0,0.0,0.0,0.0,0.0,0.0,0.0,0.0,0.0,0.0,0.0,0.0,0.0,0.0,0.0,0.0,0.0,0.0,0.0,0.0,0.0,0.0,0.0,0.0,0.0,0.0,0.0,0.0,0.0,0.0,0.0,0.0,0.0,0.0,0.0,0.0,0.0,0.0,0.0,0.0,0.0,0.0,0.0,0.0,0.0,0.0,0.0,0.0,0.0,0.0,0.0,0.0,0.0,0.0,0.0,0.0,0.0,0.0,0.0,0.0,0.0,0.0,0.0,0.0,0.0,0.0,0.0,0.0,0.0,0.0,0.0,0.0,0.0,0.0,0.0,0.0,0.0,0.0,0.0,0.0,0.0,0.0,0.0,0.0,0.0,0.0,0.0,0.0,0.0,0.0,0.0,0.0,0.0,0.0,0.0,0.0,0.0,0.0,0.0,0.0,0.0,0.0,0.0,0.0,0.0,0.0,0.0,0.0,0.0,0.0,0.0,0.0,0.0,0.0,0.0,0.0,0.0,0.0,0.0,0.0,0.0,0.0,0.0,0.0,0.0,0.0,0.0,0.0,0.0,0.0,0.0,0.0,0.0,0.0,0.0,0.0,0.0,0.0,0.0,0.0,0.0,0.0,0.0,0.0,0.0,0.0,0.0,0.0,0.0,0.0,0.0,0.0,0.0,0.0,0.0,0.0,0.0,0.0,0.0,0.0,0.0,0.0,0.0,0.0,0.0,0.0,0.0,0.0,0.0,0.0,0.0,0.0,0.0,0.0,0.0,0.0,0.0,0.0,0.0,0.0,0.0,0.0,0.0,0.0,0.0,0.0,0.0,0.0,0.0,0.0,0.0,0.0,0.0,0.0,0.0,0.0,0.0,0.0,0.0,0.0,0.0,0.0,0.0,0.0,0.0,0.0,0.0,0.0,0.0,0.0,0.0,0.0,0.0,0.0,0.0,0.0,0.0,0.0,0.0,0.0,0.0,0.0,0.0,0.0,0.0,0.0,0.0,0.0,0.0,0.0,0.0,0.0,0.0,0.0,0.0,0.0,0.0,0.0,0.0,0.0,0.0,0.0,0.0,0.0,0.0,0.0,0.0,0.0,0.0,0.0,0.0,0.0,0.0,0.0,0.0,0.0,0.0,0.0,0.0,0.0,0.0,0.0,0.0,0.0,0.0,0.0,0.0,0.0,0.0,0.0,0.0,0.0,0.0,0.0,0.0,0.0,0.0,0.0,0.0,0.0,0.0,0.0,0.0,0.0,0.0,0.0,0.0,0.0,0.0,0.0,0.0,0.0,0.0,0.0,0.0,0.0,0.0,0.0,0.0,0.0,0.0,0.0,0.0,0.0,0.0,0.0,0.0,0.0,0.0,0.0,0.0,0.0,0.0,0.0,0.0,0.0,0.0,0.0,0.0,0.0,0.0,0.0,0.0,0.0,0.0,0.0,0.0,0.0,0.0,0.0,0.0,0.0,0.0,0.0,0.0,0.0,0.0,0.0,0.0,0.0,0.0,0.0,0.0,0.0,0.0,0.0,0.0,0.0,0.0,0.0,0.0,0.0,0.0,0.0,0.0,0.0,0.0,0.0,0.0,0.0,0.0,0.0,0.0,0.0,0.0,0.0,0.0,0.0,0.0,0.0,0.0,0.0,0.0,0.0,0.0,0.0,0.0,0.0,0.0,0.0,0.0,0.0,0.0,0.0,0.0,0.0,0.0,0.0,0.0,0.0,0.0,0.0,0.0,0.0,0.0,0.0,0.0,0.0,0.0,0.0,0.0,0.0,0.0,0.0,0.0,0.0,0.0,0.0,0.0,0.0,0.0,0.0,0.0,0.0,0.0,0.0,0.0,0.0,0.0,0.0,0.0,0.0,0.0,0.0,0.0,0.0,0.0,0.0,0.0,0.0,0.0,0.0,0.0,0.0,0.0,0.0,0.0,0.0,0.0,0.0,0.0,0.0,0.0,0.0,0.0,0.0,0.0,0.0,0.0,0.0,0.0,0.0,0.0,0.0,0.0,0.0,0.0,0.0,0.0,0.0,0.0,0.0,0.0,0.0,0.0,0.0,0.0,0.0,0.0,0.0,0.0,0.0,0.0,0.0,0.0,0.0,0.0,0.0,0.0,0.0,0.0,0.0,0.0,0.0,0.0,0.0,0.0,0.0,0.0,0.0,0.0,0.0,0.0,0.0,0.0,0.0,0.0,0.0,0.0,0.0,0.0,0.0,0.0,0.0,0.0,0.0,0.0,0.0,0.0,0.0,0.0,0.0,0.0,0.0,0.0,0.0,0.0,0.0,0.0,0.0,0.0,-2.8587,0.0,0.0,0.0,0.0,0.0,0.0,0.0,0.0,0.0,0.0,0.0,0.0,0.0,0.0,0.0,0.0,0.0,0.0,0.0,0.0,0.0,0.0,0.0,0.0,0.0,0.0,0.0,0.0,0.0,0.0,0.0,0.0,0.0,0.0,0.0,0.0,0.0,0.0,-2.0264,-2.0312,-2.0302,-2.0264,-2.0094,-1.9957,-1.9854,0.0,0.0,0.0,0.0,0.0,0.0,0.0,0.0,0.0,0.0,0.0,0.0,0.0,0.0,0.0,0.0,0.0,0.0,0.0,0.0,0.0,0.0,0.0,0.0,0.0,0.0,0.0,0.0,0.0,0.0,0.0,0.0,0.0,0.0,0.0,0.0,0.0,0.0,0.0,0.0,0.0,0.0,0.0,0.0,0.0,0.0,0.0,0.0,0.0,0.0,0.0,0.0,0.0,0.0,0.0,0.0,0.0,0.0,0.0,0.0,0.0,0.0,0.0,0.0,0.0,0.0,0.0,0.0,0.0,0.0,0.0,-2.8587,0.0,0.0,0.0,0.0,0.0,0.0,0.0,0.0,0.0,0.0,0.0,0.0,0.0,0.0,0.0,0.0,0.0,0.0,0.0,0.0,0.0,0.0,0.0,-2.0421,-2.0118,-2.0118,-2.0118,-2.0118,0.0,0.0,0.0,0.0,0.0,0.0,-2.0469,-2.0342,-2.0557,-2.1093,-2.0952,-2.1002,-2.1304,-2.1218,-2.1112,-2.1043,-2.0671,0.0,0.0,0.0,0.0,0.0,0.0,0.0,0.0,0.0,0.0,0.0,0.0,0.0,0.0,0.0,0.0,0.0,0.0,0.0,0.0,0.0,0.0,0.0,0.0,0.0,0.0,0.0,0.0,0.0,0.0,0.0,0.0,0.0,0.0,0.0,0.0,0.0,0.0,0.0,0.0,0.0,0.0,0.0,0.0,0.0,0.0,0.0,0.0,0.0,0.0,0.0,0.0,0.0,0.0,0.0,0.0,0.0,0.0,0.0,0.0,0.0,0.0,0.0,0.0,-2.8587,-2.8587,-2.8695,-2.875,-2.875,-2.8858,-2.879,-2.8587,0.0,0.0,0.0,0.0,0.0,0.0,0.0,0.0,0.0,0.0,0.0,0.0,0.0,0.0,0.0,0.0,0.0,0.0,0.0,0.0,0.0,0.0,-2.014,-2.0118,-2.0118,-2.0118,-2.0118,-2.0118,0.0,0.0,0.0,0.0,0.0,-2.1169,-2.132,-2.1422,-2.1511,-2.1476,-2.1818,-2.2461,-2.2052,-2.2073,-2.2402,-2.1385,-2.0907,-2.0917,0.0,0.0,0.0,0.0,0.0,0.0,0.0,0.0,0.0,0.0,0.0,0.0,0.0,0.0,0.0,0.0,0.0,0.0,0.0,0.0,0.0,0.0,0.0,0.0,0.0,0.0,0.0,0.0,0.0,0.0,0.0,0.0,0.0,0.0,0.0,0.0,0.0,0.0,0.0,0.0,0.0,-2.5929,-2.6523,0.0,0.0,0.0,0.0,0.0,0.0,0.0,0.0,0.0,0.0,0.0,0.0,0.0,0.0,-2.8587,-2.8587,-2.8587,-2.8587,-2.8587,-2.8587,-2.8614,-2.9149,-2.9393,-2.942,-2.9944,0.0,-2.8587,-2.8587,0.0,0.0,0.0,0.0,0.0,0.0,0.0,0.0,0.0,0.0,0.0,0.0,0.0,0.0,0.0,0.0,0.0,0.0,0.0,0.0,0.0,-2.0118,-2.0118,-2.0118,-2.0118,-2.0118,-2.0118,-2.0402,0.0,0.0,0.0,-2.1459,-2.1843,-2.1843,-2.1962,-2.2234,-2.2342,-2.256,-2.2841,-2.2672,-2.2683,-2.283,-2.2334,-2.2005,-2.1775,-2.1869,0.0,0.0,0.0,0.0,0.0,0.0,0.0,0.0,0.0,0.0,0.0,0.0,0.0,0.0,0.0,0.0,0.0,0.0,0.0,0.0,0.0,0.0,0.0,0.0,0.0,0.0,0.0,0.0,0.0,0.0,0.0,0.0,0.0,0.0,0.0,0.0,0.0,0.0,0.0,-2.6582,-2.6837,-2.7131,-2.7157,-2.7282,0.0,0.0,0.0,0.0,0.0,0.0,0.0,0.0,0.0,-2.8587,-2.8587,-2.8587,-2.8587,-2.8926,-2.9122,-2.9122,-2.9442,-2.9618,-2.9618,-2.9889,-2.9998,-3.0011,-3.0296,-3.0106,-2.9618,-2.9618,-2.9767,-2.9998,0.0,0.0,0.0,0.0,0.0,-2.9012,0.0,0.0,0.0,0.0,0.0,0.0,0.0,0.0,0.0,0.0,0.0,0.0,-2.0151,-2.0172,-2.0172,-2.0107,-2.0118,-2.0162,-2.0292,-2.0697,-2.1004,-2.1255,-2.1581,-2.1996,-2.2488,-2.232,-2.2421,-2.2777,-2.2927,-2.3001,-2.3001,-2.3001,-2.3001,-2.3001,-2.3001,-2.2815,-2.2553,-2.2553,-2.2628,-2.2777,0.0,0.0,0.0,0.0,0.0,0.0,0.0,0.0,0.0,0.0,0.0,0.0,0.0,0.0,0.0,0.0,0.0,0.0,0.0,0.0,0.0,0.0,0.0,0.0,0.0,0.0,0.0,0.0,0.0,0.0,0.0,0.0,0.0,0.0,0.0,0.0,0.0,-2.7295,-2.7556,-2.749,-2.7556,-2.759,0.0,0.0,0.0,0.0,0.0,0.0,-2.8516,-2.8706,-2.8885,-2.9048,-2.9062,-2.9062,-2.9062,-2.9496,-2.9713,-2.976,-3.0188,-3.0405,-3.0418,-3.0568,-3.0635,-3.0649,-3.0798,-3.0866,-3.0839,-3.054,-3.05,-3.0635,-3.0635,-3.073,-3.0831,-3.0664,-3.0215,-2.9683,0.0,0.0,0.0,0.0,0.0,0.0,0.0,0.0,0.0,0.0,0.0,-2.0485,-2.0151,-2.0388,-2.0453,-2.0118,-2.0118,-2.0303,-2.0829,-2.0883,-2.131,-2.2204,-2.2269,-2.2499,-2.2957,-2.2957,-2.2979,-2.2964,-2.3001,-2.3001,-2.3001,-2.3001,-2.3001,-2.3001,-2.3001,-2.3001,-2.2964,-2.2964,-2.2964,-2.2964,-2.2964,0.0,0.0,0.0,0.0,0.0,0.0,0.0,0.0,0.0,0.0,0.0,0.0,0.0,0.0,0.0,0.0,0.0,0.0,0.0,0.0,0.0,0.0,0.0,0.0,0.0,0.0,0.0,0.0,0.0,0.0,0.0,0.0,0.0,0.0,0.0,0.0,0.0,0.0,-2.7523,-2.7656,0.0,0.0,0.0,0.0,-2.8254,-2.8287,-2.8542,-2.91,-2.9328,-2.9713,-3.0296,-3.031,-3.031,-3.031,-3.0351,-3.0364,-3.0364,-3.0391,-3.0405,-3.0432,-3.0988,-3.1246,-3.1287,-3.1843,-3.2123,-3.2042,-3.0866,-3.0744,-3.1246,-3.1246,-3.1585,-3.2051,-3.1375,-3.0768,-3.0164,0.0,0.0,0.0,0.0,0.0,0.0,0.0,0.0,-2.027,-2.027,-2.027,-2.0237,-2.0107,-2.0205,-2.0237,-2.0107,-2.0424,-2.0708,-2.0883,-2.1485,-2.1953,-2.2302,-2.223,-2.2243,-2.244,-2.2815,-2.3001,-2.3001,-2.2628,-2.2402,-2.2402,-2.2014,-2.1852,-2.1852,-2.1852,-2.2052,-2.244,-2.2852,-2.3001,-2.3001,-2.3001,-2.3001,0.0,0.0,0.0,0.0,0.0,0.0,0.0,0.0,0.0,0.0,0.0,0.0,0.0,0.0,0.0,0.0,0.0,0.0,0.0,0.0,0.0,0.0,0.0,0.0,0.0,0.0,0.0,0.0,0.0,0.0,0.0,0.0,0.0,0.0,0.0,0.0,0.0,-2.7723,-2.7868,0.0,-2.8079,-2.8445,-2.8759,-2.8879,-2.9356,-2.9747,-2.9964,-3.0045,-3.0351,-3.0961,-3.0975,-3.1165,-3.1544,-3.1924,-3.2151,-3.2151,-3.2508,-3.2647,-3.2661,-3.2864,-3.2959,-3.2972,-3.3189,-3.3271,-3.3244,-3.2823,-3.2359,-3.187,-3.187,-3.2028,-3.2169,-3.1936,-3.1431,-3.0846,0.0,0.0,0.0,0.0,0.0,0.0,0.0,0.0,-2.027,-2.027,-2.027,-2.0237,-2.0107,-2.0205,-2.0237,-2.0107,-2.0587,-2.0892,-2.084,-2.1748,-2.2281,-2.225,-2.2355,-2.2402,-2.2402,-2.2815,-2.3001,-2.3001,-2.259,-2.2402,-2.2402,-2.2004,-2.1814,-2.1814,-2.1814,-2.2014,-2.244,-2.2815,-2.3001,-2.3001,-2.3001,-2.3001,-2.2968,0.0,0.0,0.0,0.0,0.0,0.0,0.0,0.0,0.0,0.0,0.0,0.0,0.0,0.0,0.0,0.0,0.0,0.0,0.0,0.0,0.0,0.0,0.0,0.0,0.0,0.0,0.0,0.0,0.0,0.0,0.0,0.0,0.0,0.0,0.0,-2.7981,-2.8186,-2.8359,-2.8552,-2.8752,-2.9215,-2.9639,-2.9875,-3.0404,-3.088,-3.1287,-3.13,-3.1585,-3.2169,-3.2182,-3.2386,-3.2779,-3.3159,-3.3363,-3.3363,-3.3718,-3.3908,-3.3908,-3.3908,-3.3908,-3.3908,-3.3908,-3.3908,-3.3908,-3.3908,-3.3447,-3.2779,-3.2779,-3.2779,-3.2779,-3.2779,-3.238,-3.1751,0.0,0.0,0.0,0.0,0.0,0.0,0.0,-2.0871,-2.0603,-2.0603,-2.0603,-2.0485,-2.0183,-2.0421,-2.0485,-2.0172,-2.0609,-2.0874,-2.0765,-2.1729,-2.225,-2.2117,-2.2665,-2.3001,-2.2964,-2.3001,-2.3001,-2.3001,-2.2964,-2.2964,-2.2964,-2.2964,-2.2953,-2.2953,-2.2953,-2.2964,-2.2964,-2.2964,-2.2964,-2.3001,-2.3001,-2.3001,-2.3001,0.0,0.0,0.0,0.0,0.0,0.0,0.0,0.0,0.0,0.0,0.0,0.0,0.0,0.0,0.0,0.0,0.0,0.0,0.0,0.0,0.0,0.0,0.0,0.0,0.0,0.0,0.0,0.0,0.0,0.0,0.0,0.0,0.0,-2.6837,-2.7235,-2.7939,-2.8905,-2.9154,-2.9497,-3.0062,-3.0156,-3.0529,-3.13,-3.1368,-3.1884,-3.3061,-3.3142,-3.339,-3.3948,-3.3975,-3.4002,-3.4016,-3.4016,-3.4016,-3.4016,-3.4016,-3.4016,-3.4016,-3.4016,-3.4016,-3.4016,-3.4016,-3.4016,-3.4016,-3.4016,-3.4016,-3.4016,-3.3935,-3.3908,-3.3908,-3.3908,-3.3508,-3.283,0.0,0.0,0.0,0.0,0.0,0.0,0.0,-2.1019,-2.07,-2.0999,-2.0764,-2.0667,-2.0871,-2.0711,-2.0727,-2.1008,-2.1282,-2.1522,-2.1822,-2.2433,-2.261,-2.2138,-2.2665,-2.2815,-2.2365,-2.2777,-2.3001,-2.3001,-2.2553,-2.2327,-2.2327,-2.189,-2.17,-2.17,-2.17,-2.1939,-2.2327,-2.2327,-2.259,-2.3001,-2.3001,-2.3001,-2.3001,0.0,0.0,0.0,0.0,0.0,0.0,0.0,0.0,0.0,0.0,0.0,0.0,0.0,0.0,0.0,0.0,0.0,0.0,0.0,0.0,0.0,0.0,0.0,0.0,0.0,0.0,0.0,0.0,0.0,0.0,0.0,0.0,-2.7157,-2.8206,-2.8692,-2.9141,-2.9745,-3.0354,-3.0796,-3.0945,-3.1744,-3.2363,-3.2599,-3.2983,-3.3325,-3.365,-3.407,-3.4611,-3.5181,-3.5642,-3.609,-3.651,-3.651,-3.651,-3.651,-3.651,-3.651,-3.651,-3.651,-3.651,-3.651,-3.651,-3.651,-3.651,-3.651,-3.651,-3.6333,-3.4585,-3.3908,-3.3908,-3.3908,-3.3792,-3.347,0.0,0.0,0.0,0.0,0.0,0.0,0.0,-2.1126,-2.0935,-2.1158,-2.0999,-2.0935,-2.1158,-2.0999,-2.1075,-2.1584,-2.1743,-2.1954,-2.2366,-2.2691,-2.2777,-2.2478,-2.2815,-2.2852,-2.2478,-2.2815,-2.3075,-2.3261,-2.2889,-2.2815,-2.2964,-2.2606,-2.2381,-2.2231,-2.2231,-2.2317,-2.2478,-2.2478,-2.2665,-2.3001,-2.3001,-2.3001,-2.3001,-2.3001,-2.3001,-2.3001,-2.3001,-2.3001,-2.3001,-2.3001,0.0,0.0,0.0,0.0,0.0,0.0,0.0,0.0,0.0,0.0,0.0,0.0,0.0,0.0,0.0,0.0,0.0,0.0,0.0,0.0,0.0,0.0,0.0,0.0,-2.7109,-2.7961,-2.9676,-2.9929,-3.0169,-3.0915,-3.1631,-3.2128,-3.2386,-3.3254,-3.3905,-3.4149,-3.4719,-3.5127,-3.5385,-3.5737,-3.6076,-3.6415,-3.6767,-3.7175,-3.7485,-3.7485,-3.7485,-3.7485,-3.7485,-3.7485,-3.7485,-3.7485,-3.7485,0.0,-3.7485,-3.7485,-3.7485,-3.7485,-3.7485,0.0,0.0,0.0,0.0,0.0,-3.5412,-3.5238,0.0,0.0,0.0,0.0,0.0,0.0,0.0,-2.1285,-2.1253,-2.1316,-2.1285,-2.1253,-2.1316,-2.1285,-2.1472,-2.1981,-2.2128,-2.2314,-2.265,-2.2787,-2.2964,-2.315,-2.3075,-2.3075,-2.315,-2.3075,-2.3261,-2.3666,-2.3666,-2.3861,-2.42,-2.42,-2.397,-2.3593,-2.3641,-2.3446,-2.3075,-2.3113,-2.315,-2.315,-2.315,-2.3075,-2.3001,-2.3001,-2.3001,-2.3001,-2.3001,-2.3001,-2.3001,-2.3001,0.0,0.0,0.0,0.0,0.0,0.0,0.0,0.0,0.0,0.0,0.0,0.0,0.0,0.0,0.0,0.0,0.0,0.0,0.0,0.0,0.0,0.0,0.0,0.0,-2.8344,-2.9301,-3.1035,-3.1061,-3.1263,-3.2281,-3.2993,-3.3566,-3.4057,-3.4707,-3.5317,-3.5873,-3.6402,-3.6944,-3.7458,0.0,0.0,0.0,0.0,-3.7689,-3.7689,-3.7689,-3.7689,-3.7689,-3.7689,-3.7689,-3.7689,-3.7689,-3.7689,-3.7689,-3.7689,-3.7689,-3.7689,-3.7689,-3.7689,-3.7675,-3.754,-3.7485,-3.7485,-3.7485,-3.7485,0.0,0.0,0.0,0.0,0.0,0.0,0.0,0.0,-2.1788,-2.1694,-2.1968,-2.1769,-2.1694,-2.1968,-2.1769,-2.1975,-2.2868,-2.2718,-2.296,-2.379,-2.3913,-2.3934,-2.397,-2.3677,-2.3641,-2.397,-2.3641,-2.3677,-2.408,-2.408,-2.4116,-2.42,-2.42,-2.397,-2.3593,-2.3934,-2.3861,-2.3519,-2.3824,-2.397,-2.397,-2.397,-2.3593,-2.3001,-2.3001,-2.3001,-2.3001,-2.3001,-2.3001,-2.3001,-2.3001,-2.3001,-2.3001,-2.3001,-2.3001,0.0,0.0,0.0,0.0,0.0,0.0,0.0,0.0,0.0,0.0,0.0,0.0,0.0,0.0,0.0,0.0,0.0,0.0,0.0,-2.8246,-2.8853,-2.9856,-3.1588,-3.2594,-3.325,-3.3533,-3.4543,-3.5248,-3.5317,-3.6333,-3.7025,-3.7133,-3.7241,-3.7363,-3.7485,-3.7946,0.0,-3.8247,-3.8708,-3.8952,-3.8952,-3.8952,-3.8952,-3.8952,0.0,0.0,-3.8952,-3.8952,-3.8952,-3.8952,-3.8952,-3.8952,-3.8952,-3.8952,-3.8952,-3.8871,-3.7865,-3.7485,-3.7485,-3.7485,-3.7485,-3.74,0.0,0.0,0.0,0.0,0.0,0.0,0.0,-2.2061,-2.2018,-2.2185,-2.2061,-2.2018,-2.2185,-2.2288,-2.2659,-2.3423,-2.3822,-2.4061,-2.419,-2.4381,-2.4418,-2.42,-2.4007,-2.397,-2.42,-2.4007,-2.4091,-2.449,-2.449,-2.4598,-2.4754,-2.4754,-2.4539,-2.42,-2.4418,-2.4273,-2.3897,-2.4116,-2.42,-2.42,-2.42,-2.397,-2.3593,-2.3372,-2.3298,-2.3298,-2.3298,-2.315,-2.3038,-2.3224,-2.315,-2.3001,-2.3001,-2.3239,-2.3559,0.0,0.0,0.0,0.0,0.0,0.0,0.0,0.0,0.0,0.0,0.0,0.0,0.0,0.0,-2.6895,0.0,0.0,-2.8453,-2.8915,-2.968,-3.0974,-3.3096,-3.3893,-3.4378,-3.475,-3.5615,-3.628,-3.655,-3.7404,-3.7933,-3.7933,-3.8247,-3.8423,-3.8423,-3.8708,-3.8857,-3.8857,-3.9142,-3.9305,-3.9305,-3.9305,-3.9305,-3.9305,-3.9305,-3.9305,-3.9305,-3.9305,-3.9305,-3.9305,-3.9305,-3.9305,-3.9305,-3.9305,-3.9305,-3.9237,-3.8654,-3.8423,-3.8423,-3.8423,-3.8423,-3.8279,0.0,0.0,0.0,0.0,0.0,0.0,0.0,-2.2197,-2.2197,-2.2197,-2.2197,-2.2197,-2.2197,-2.2666,-2.3264,-2.389,-2.4771,-2.5028,-2.4442,-2.4706,-2.4742,-2.4442,-2.4345,-2.4345,-2.4406,-2.4345,-2.4526,-2.4885,-2.4885,-2.5052,-2.5312,-2.5312,-2.5111,-2.479,-2.4861,-2.467,-2.4309,-2.437,-2.4406,-2.4406,-2.4406,-2.4406,-2.437,-2.397,-2.3787,-2.3714,-2.3714,-2.3446,-2.315,-2.3482,-2.3446,-2.3176,-2.3038,-2.3596,-2.4301,-2.4156,-2.4264,0.0,0.0,0.0,0.0,0.0,0.0,0.0,0.0,-2.4648,-2.5231,-2.5671,-2.6542,-2.725,-2.7375,-2.8441,-2.9435,-2.9866,-3.0629,-3.1997,-3.4439,-3.4813,-3.5182,-3.6102,-3.6659,-3.7148,-3.7607,-3.8247,-3.8586,-3.8586,-3.9034,-3.9305,-3.9305,-3.9305,-3.9305,-3.9305,-3.9305,-3.9305,-3.9305,-3.9305,-3.9305,-3.9305,-3.9305,-3.9305,-3.9305,-3.9305,-3.9305,-3.9305,-3.9305,-3.9305,-3.9305,-3.9305,-3.9216,-3.9114,-3.9247,-3.9216,-3.9114,-3.9261,-3.9305,-3.9216,0.0,0.0,0.0,0.0,0.0,0.0,0.0,0.0,-2.2197,-2.2197,-2.2197,-2.2197,-2.2197,-2.2666,-2.3376,-2.435,-2.4975,-2.5276,-2.517,-2.5206,-2.5206,-2.517,-2.4885,-2.4885,-2.517,-2.4885,-2.4921,-2.5241,-2.5241,-2.5276,-2.5312,-2.5312,-2.5111,-2.479,-2.5111,-2.5052,-2.4754,-2.504,-2.517,-2.517,-2.517,-2.517,-2.5135,-2.4814,-2.4454,-2.4116,-2.4116,-2.3861,-2.3519,-2.3593,-2.3754,-2.3866,-2.3213,-2.4009,-2.5052,-2.4301,-2.4874,-2.5569,-2.4933,-2.4455,-2.4539,-2.6136,-2.5358,-2.4522,0.0,-2.5741,-2.5696,-2.6556,-2.7594,-2.8515,-2.9116,-2.9618,-3.0342,-3.1464,-3.1645,-3.2332,-3.4323,-3.5023,-3.6009,-3.7871,-3.8179,-3.8247,-3.8315,-3.8857,-3.921,-3.921,-3.9264,-3.9305,-3.9305,-3.9305,-3.9305,-3.9305,-3.9305,-3.9305,-3.9305,-3.9305,-3.9305,-3.9305,-3.9305,-3.9305,-3.9305,-3.9305,-3.9305,-3.9305,-3.9305,-3.9305,-3.9305,-3.9305,-3.889,-3.8395,-3.9024,-3.889,-3.8395,-3.9069,-3.9305,-3.9216,0.0,0.0,0.0,0.0,0.0,0.0,0.0,0.0,0.0,-2.2197,-2.2197,-2.2197,-2.2197,-2.2975,-2.3725,-2.4424,-2.4999,-2.5312,-2.5312,-2.5312,-2.5312,-2.5312,-2.5182,-2.5147,-2.5312,-2.5147,-2.5147,-2.5312,-2.5312,-2.5312,-2.5312,-2.5312,-2.5241,-2.5123,-2.5241,-2.5206,-2.5123,-2.5241,-2.5312,-2.5312,-2.5312,-2.5312,-2.5276,-2.5147,-2.4969,-2.4826,-2.4634,-2.4309,0.0,-2.4236,-2.4455,-2.4564,-2.4251,-2.4898,-2.5779,-2.5742,-2.5859,-2.5918,-2.5381,-2.5111,-2.5266,-2.6383,-2.5972,-2.5586,-2.6675,-2.7101,-2.7403,-2.7779,-2.8715,-2.9564,-2.9789,-3.0235,-3.0967,0.0,-3.2605,-3.3601,-3.5859,-3.6418,-3.7139,-3.8725,-3.8925,-3.8925,-3.8925,-3.9156,-3.9305,-3.9305,-3.9305,-3.9305,-3.9305,-3.9305,-3.9305,-3.9305,-3.9305,-3.9305,-3.9305,-3.9305,-3.9305,-3.9305,-3.9305,-3.9305,-3.9305,-3.9305,-3.9069,-3.8666,-3.8666,-3.8427,-3.8037,-3.8037,-3.7854,-3.7592,-3.79,-3.7808,-3.7717,-3.889,-3.9024,-3.8666,0.0,0.0,0.0,0.0,0.0,0.0,0.0,0.0,0.0,0.0,-2.2197,-2.2246,-2.239,-2.3264,-2.4011,-2.447,-2.4999,-2.5312,-2.5312,-2.5312,-2.5312,-2.5312,-2.5312,-2.5312,-2.5312,-2.5312,-2.5312,-2.5312,-2.5312,-2.5312,-2.5312,-2.5312,-2.5312,-2.5312,-2.5312,-2.5312,-2.5312,-2.5312,-2.5312,-2.5312,-2.5312,-2.5312,-2.5312,-2.5312,-2.5312,-2.5276,-2.5016,-2.4706,-2.4418,-2.4873,-2.5135,-2.5288,-2.5252,-2.5871,-2.6676,-2.6867,-2.6811,-2.6697,-2.6511,-2.6449,-2.6638,-2.7404,-2.7218,-2.7041,-2.773,-2.85,-2.9099,-2.8992,-3.0041,-3.0932,-3.0888,-3.132,-3.2031,-3.3052,-3.3526,-3.4603,-3.6975,-3.734,-3.7814,-3.9162,-3.9305,-3.9305,-3.9305,-3.9305,-3.9305,-3.9305,-3.9305,-3.9305,-3.9305,-3.9305,-3.9305,-3.9305,-3.9305,-3.9305,-3.9305,-3.9305,-3.9305,-3.9305,-3.9305,-3.9216,-3.898,-3.8787,-3.8413,-3.7926,-3.7926,-3.7592,-3.7103,-3.7103,-3.6977,-3.6837,-3.701,-3.6977,-3.6977,-3.8232,-3.8472,-3.82,0.0,0.0,0.0,0.0,0.0,0.0,0.0,0.0,0.0,0.0,0.0,0.0,0.0,-2.3481,-2.4011,-2.447,-2.4999,-2.5312,-2.5312,-2.5312,-2.5312,-2.5312,-2.5312,-2.5312,-2.5312,-2.5312,-2.5312,-2.5312,-2.5312,-2.5312,-2.5312,-2.5312,-2.5312,-2.5312,-2.5312,-2.5312,-2.5312,-2.5312,-2.5312,-2.5312,-2.5312,-2.5312,-2.5312,-2.5312,-2.5312,-2.5312,-2.5276,-2.5087,-2.4849,-2.5406,-2.5802,-2.6045,-2.5824,-2.6812,-2.7901,-2.7103,-2.7584,-2.8381,-2.8552,-2.8647,-2.896,-3.0019,-2.9482,-2.8841,-2.9233,-2.9857,-3.0343,-3.0248,-3.1643,-3.2829,-3.28,-3.3274,-3.3824,-3.443,-3.4388,-3.5012,-3.7117,-3.7202,-3.7645,-3.9114,-3.9305,-3.9305,0.0,-3.9305,-3.9305,-3.9305,-3.9305,-3.9305,-3.9305,-3.9305,-3.9305,-3.9305,-3.9305,-3.9305,-3.9305,-3.9305,-3.9305,-3.9305,-3.9305,-3.8935,-3.82,-3.7487,-3.715,-3.715,-3.715,-3.7103,-3.7103,-3.7103,-3.6696,-3.6108,-3.6837,-3.6649,-3.6108,-3.6883,-3.7625,-3.8018,0.0,0.0,0.0,0.0,0.0,0.0,0.0,0.0,0.0,0.0,0.0,0.0,0.0,0.0,0.0,0.0,-2.4494,-2.4939,-2.5288,-2.5312,-2.5312,-2.5312,-2.5312,-2.5312,-2.5312,-2.5312,-2.5312,-2.5312,-2.5312,-2.5312,-2.5312,-2.5312,-2.5312,-2.5312,-2.5312,-2.5312,-2.5312,-2.5312,-2.5312,-2.5312,-2.5312,-2.5558,-2.5908,-2.5908,-2.6117,-2.6414,0.0,-2.6117,-2.5816,-2.6346,-2.6845,-2.7229,-2.7149,-2.7464,-2.7934,-2.8056,-2.8881,-2.9669,-2.9393,-2.9315,-2.9495,-3.0281,-3.0171,-3.0107,-3.1003,-3.1666,-3.2098,-3.2026,-3.3152,-3.409,-3.4045,-3.4109,-3.4489,-3.5571,-3.5692,-3.6147,-3.7695,-3.8294,-3.8742,-3.9247,-3.9305,0.0,0.0,0.0,0.0,-3.9305,-3.9305,-3.9305,-3.9305,-3.9305,-3.9305,-3.9305,-3.9305,-3.9305,-3.9305,-3.9305,-3.9305,-3.9305,-3.88,-3.844,-3.8154,-3.7441,-3.6837,-3.638,-3.638,-3.6048,-3.5571,-3.5571,-3.544,-3.5259,-3.5488,-3.5427,-3.5259,-3.5475,-3.6048,-3.6756,0.0,0.0,0.0,0.0,0.0,0.0,0.0,0.0,0.0,0.0,0.0,0.0,0.0,0.0,0.0,0.0,0.0,-2.4731,-2.5116,-2.5239,-2.5312,-2.5312,-2.5312,-2.5312,-2.5312,-2.5312,-2.5312,-2.5312,-2.5312,-2.5312,-2.5312,-2.5312,-2.5312,-2.5312,-2.5312,-2.5312,-2.5312,-2.5312,-2.5406,-2.5629,-2.5629,-2.5978,-2.6496,-2.6496,-2.6701,0.0,-2.7209,-2.7074,-2.6837,-2.7175,-2.751,-2.7842,-2.802,-2.8232,-2.8472,-2.8879,-2.9814,-3.0661,-3.0284,-3.0361,-3.0668,-3.1292,-3.1397,-3.1543,-3.2275,-3.3077,-3.3569,-3.3294,-3.4225,-3.4959,-3.4686,-3.4929,-3.5453,-3.623,-3.6547,-3.7123,-3.8392,-3.8756,-3.898,-3.9261,-3.9305,-3.9305,0.0,0.0,0.0,-3.9305,-3.9305,-3.9305,-3.9305,-3.9305,-3.9305,-3.9305,-3.9305,-3.9305,-3.9305,-3.9305,-3.9172,-3.889,-3.788,-3.7407,-3.7407,-3.6649,-3.6048,-3.5584,-3.5584,-3.5307,-3.4775,-3.4775,-3.4775,-3.4775,-3.4775,-3.4775,-3.4775,-3.4775,-3.5114,-3.5631,0.0,0.0,0.0,0.0,0.0,0.0,0.0,0.0,0.0,0.0,0.0,0.0,0.0,0.0,0.0,0.0,0.0,0.0,-2.4815,-2.5128,-2.5312,-2.5312,-2.5312,-2.5312,-2.5312,-2.5312,-2.5312,-2.5312,-2.5312,-2.5312,-2.5312,-2.5312,-2.5312,-2.5312,-2.5312,-2.5312,-2.5312,-2.5312,-2.5664,-2.6198,-2.6198,-2.653,-2.704,-2.704,-2.7074,-2.7142,-2.7643,-2.7842,-2.7842,-2.7842,-2.7842,-2.7921,-2.8457,-2.9021,-2.9556,-2.9556,-3.0391,-3.1341,-3.1341,-3.1775,-3.2395,-3.2966,-3.3142,-3.3182,-3.3104,-3.4004,-3.4671,-3.4099,-3.4929,-3.5548,-3.4921,0.0,-3.6585,-3.6608,-3.7017,-3.7776,-3.9121,-3.8711,-3.853,0.0,0.0,0.0,0.0,0.0,0.0,-3.9305,0.0,-3.9305,-3.9305,-3.9305,-3.9305,-3.9305,-3.9305,-3.9305,-3.9305,-3.9247,-3.889,-3.8167,-3.6709,-3.6013,-3.5966,-3.5163,-3.4775,-3.4775,-3.4775,-3.4775,-3.4775,-3.4775,-3.4775,-3.4775,-3.4775,-3.4775,-3.4775,-3.4775,-3.4775,-3.4775,0.0,0.0,0.0,0.0,0.0,0.0,0.0,0.0,0.0,0.0,0.0,0.0,0.0,0.0,0.0,0.0,0.0,0.0,-2.4779,-2.5232,-2.5465,-2.5312,-2.5312,-2.5312,-2.5312,-2.5312,-2.5312,-2.5312,-2.5312,-2.5312,-2.5312,-2.5312,-2.5312,-2.5312,-2.5312,-2.5312,-2.5312,-2.5312,-2.5664,-2.6198,-2.6198,-2.6769,-2.761,-2.761,-2.7842,-2.8216,-2.836,-2.8392,-2.8392,-2.8392,-2.8392,-2.8425,-2.8554,-2.9319,-3.0174,-3.0174,-3.1015,-3.1951,-3.1951,-3.2422,-3.2911,-3.3061,-3.3729,-3.4343,-3.4322,-3.4939,-3.5412,-3.5278,-3.5832,-3.6333,-3.6169,-3.6305,0.0,-3.7768,-3.7559,0.0,-3.9121,-3.9127,0.0,-3.9305,0.0,-3.9305,-3.9305,-3.9305,0.0,0.0,-3.9305,-3.9305,-3.9305,-3.9305,-3.9305,-3.9305,-3.9305,-3.9305,-3.9305,-3.8756,-3.8395,-3.8167,-3.6709,-3.6013,-3.5966,-3.5163,-3.4775,-3.4775,-3.4775,-3.4775,-3.4775,-3.4775,-3.4775,-3.4775,-3.4775,-3.4775,-3.4775,-3.4775,-3.4775,-3.4775,0.0,0.0,0.0,0.0,0.0,0.0,0.0,0.0,0.0,0.0,0.0,0.0,0.0,0.0,0.0,0.0,0.0,0.0,0.0,-2.503,-2.5293,-2.5418,-2.5347,-2.5312,-2.5312,-2.5312,-2.5312,-2.5312,-2.5312,-2.5312,-2.5312,-2.5312,-2.5312,-2.5312,-2.5312,-2.5453,-2.5699,-2.5699,-2.6139,0.0,0.0,-2.741,-2.8151,-2.8151,-2.836,-2.8587,-2.8587,-2.8587,-2.8587,-2.8587,-2.8587,-2.8587,-2.8587,-2.9428,-3.0405,-3.0405,-3.1246,-3.2218,-3.2218,-3.2653,-3.3169,-3.3441,-3.4163,-3.4856,-3.5114,-3.5439,-3.571,-3.571,-3.5981,-3.6212,-3.6212,-3.6354,-3.6818,0.0,0.0,0.0,-3.9179,-3.9305,-3.9305,0.0,-3.9305,0.0,-3.9305,-3.9305,-3.9305,0.0,-3.9305,-3.9305,-3.9305,-3.9305,-3.9305,-3.9305,-3.9305,-3.9305,-3.9305,-3.8245,-3.773,-3.7684,-3.6191,-3.5488,-3.544,-3.5017,-3.4775,-3.4775,0.0,-3.4775,-3.4775,-3.4775,-3.4775,-3.4775,-3.4775,-3.4775,-3.4775,-3.4775,-3.4775,-3.4775,0.0,0.0,0.0,0.0,0.0,0.0,0.0,0.0,0.0,0.0,0.0,0.0,0.0,0.0,0.0,0.0,0.0,0.0,0.0,0.0,-2.5044,-2.5484,-2.5381,-2.5347,-2.5312,-2.5312,-2.5312,-2.5312,-2.5312,-2.5312,-2.5312,-2.5312,-2.5312,-2.5312,-2.5312,-2.5629,-2.6198,-2.6198,-2.6837,-2.7809,-2.7809,-2.8118,-2.8587,0.0,-2.8587,-2.8587,-2.8587,-2.8587,-2.8587,-2.8587,-2.8587,-2.8587,-2.8587,-2.9428,-3.0405,-3.0405,-3.1246,-3.2218,-3.2218,-3.2707,-3.3346,-3.3851,-3.4475,-3.5046,-3.5601,-3.571,-3.571,-3.571,-3.571,-3.571,-3.571,-3.6144,-3.6687,-3.7268,0.0,-3.8505,-3.9102,-3.9251,-3.9305,-3.9305,-3.9305,-3.9305,-3.9305,-3.9305,-3.9305,-3.9305,-3.9305,-3.9305,-3.9305,-3.9305,-3.9305,-3.9305,-3.9305,-3.9305,-3.9305,-3.7854,-3.7103,-3.7057,-3.5523,-3.4775,-3.4775,-3.4775,-3.4775,-3.4775,0.0,0.0,-3.4775,-3.4775,-3.4775,-3.4775,-3.4775,-3.4775,-3.4775,-3.4775,-3.4775,-3.4775,0.0,0.0,0.0,0.0,0.0,0.0,0.0,0.0,0.0,0.0,-2.3484,-2.3108,0.0,0.0,0.0,0.0,0.0,0.0,0.0,0.0,0.0,-2.4949,-2.534,-2.5465,-2.5312,-2.5312,-2.5312,-2.5312,-2.5312,-2.5312,-2.5312,-2.5312,-2.5312,-2.5312,-2.5312,-2.5629,-2.6198,-2.6198,-2.6837,-2.7809,-2.7809,-2.8118,-2.8587,-2.8587,0.0,0.0,-2.8587,-2.8587,-2.8587,-2.8587,-2.8587,-2.8587,-2.8587,-2.9428,-3.0405,-3.0405,-3.1246,-3.2218,-3.2218,-3.2969,-3.3786,-3.3894,-3.4734,-3.5588,-3.5696,-3.571,-3.571,-3.571,-3.571,-3.571,-3.571,-3.5805,-3.6062,-3.6659,-3.7241,-3.7851,-3.8491,-3.8993,-3.9305,0.0,-3.9305,-3.9305,-3.9305,-3.9305,0.0,0.0,0.0,0.0,-3.9305,-3.9305,-3.9305,-3.9305,-3.9305,-3.9305,-3.9305,-3.7854,-3.7103,-3.7057,-3.5523,-3.4775,-3.4775,-3.4775,-3.4775,-3.4775,0.0,0.0,-3.4775,-3.4775,-3.4775,-3.4775,-3.4775,-3.4775,-3.4775,-3.4775,-3.4775,-3.4775,0.0,0.0,0.0,0.0,0.0,0.0,0.0,-2.566,-2.5147,-2.4205,-2.3839,-2.3484,-2.3138,-2.3108,-2.3108,0.0,0.0,0.0,0.0,0.0,0.0,0.0,-2.5127,-2.5279,-2.5453,-2.5465,-2.5382,-2.5312,0.0,-2.5382,-2.5312,-2.5312,-2.5488,-2.5769,-2.5769,-2.6255,-2.704,-2.704,-2.7477,-2.8229,-2.8229,-2.836,-2.8587,0.0,0.0,0.0,-2.8587,-2.8587,-2.8587,-2.8587,-2.8587,-2.8587,-2.8587,-2.9428,-3.0405,-3.0405,-3.1246,-3.2218,-3.2218,-3.282,-3.3485,-3.3485,-3.438,-3.5209,-3.5209,-3.5209,-3.5209,-3.5209,-3.4965,-3.4856,-3.5154,-3.5209,-3.5547,-3.6456,-3.7121,-3.7702,-3.8342,-3.8925,-3.9305,-3.9305,-3.9305,-3.9305,-3.9305,-3.9305,0.0,0.0,0.0,0.0,-3.9305,-3.9305,-3.9305,-3.9305,-3.9305,-3.9305,-3.9305,-3.7854,-3.7103,-3.7057,-3.5523,-3.4775,-3.4775,-3.4775,-3.4775,-3.4775,-3.4775,0.0,-3.4775,-3.4775,-3.4775,-3.4775,-3.4775,-3.4775,-3.4775,-3.4775,-3.4775,-3.4775,0.0,0.0,0.0,0.0,0.0,0.0,0.0,-2.566,-2.5175,-2.4205,-2.3972,-2.3691,-2.3168,-2.3108,-2.3108,0.0,0.0,0.0,0.0,0.0,0.0,0.0,0.0,0.0,0.0,0.0,0.0,-2.5312,-2.5453,0.0,0.0,0.0,0.0,0.0,-2.6198,-2.6803,-2.7809,-2.7809,-2.8118,0.0,0.0,-2.8587,0.0,0.0,0.0,0.0,0.0,-2.8587,-2.8587,-2.8587,-2.8682,-2.8777,-2.8777,-2.9536,-3.0446,-3.0554,-3.1355,-3.2218,-3.2218,-3.2653,-3.3101,-3.3101,-3.3865,-3.4612,-3.4612,-3.4612,-3.4612,-3.4612,-3.4328,-3.4246,-3.4707,-3.4897,-3.5276,-3.6252,-3.6931,-3.7499,-3.8095,-3.8735,-3.9169,-3.9278,-3.9305,0.0,-3.9305,-3.9305,0.0,0.0,0.0,0.0,-3.9305,-3.9305,-3.9305,-3.9305,-3.9305,-3.9305,-3.9305,-3.7821,-3.7116,-3.7057,-3.5523,-3.4775,-3.4775,-3.4775,-3.4775,-3.4775,-3.4775,0.0,0.0,-3.4775,-3.4775,-3.4775,-3.4775,-3.4775,-3.4775,-3.4775,-3.4775,-3.4775,0.0,0.0,0.0,0.0,0.0,0.0,0.0,-2.4978,-2.4234,-2.4102,-2.3573,-2.3168,-2.3108,-2.3108,-2.3108,0.0,0.0,0.0,0.0,0.0,0.0,0.0,0.0,0.0,0.0,0.0,0.0,-2.5312,0.0,0.0,0.0,0.0,0.0,0.0,0.0,-2.6803,-2.7809,-2.7809,0.0,0.0,0.0,0.0,0.0,0.0,0.0,0.0,0.0,-2.8587,-2.8587,-2.8587,-2.894,-2.9434,-2.9434,-2.9862,-3.0513,-3.1056,-3.1667,-3.2218,-3.2218,-3.2653,-3.3101,-3.3101,-3.3552,-3.3989,-3.3989,-3.3989,-3.3989,-3.3989,-3.4368,-3.4721,-3.4788,-3.5236,-3.5669,-3.5778,-3.6293,-3.6904,-3.7485,-3.8082,-3.8708,-3.9237,0.0,0.0,-3.9305,-3.9305,0.0,0.0,0.0,0.0,0.0,-3.9305,-3.9305,-3.9305,-3.9305,-3.9305,-3.9305,-3.7835,-3.7095,-3.7057,-3.5523,-3.4775,-3.4775,-3.4775,-3.4775,-3.4775,0.0,0.0,0.0,-3.4775,-3.4775,-3.4775,-3.4775,-3.4775,-3.4775,-3.4775,-3.4775,-3.4775,0.0,0.0,0.0,0.0,0.0,0.0,-2.5893,-2.5175,-2.4652,-2.4652,-2.4076,-2.3543,-2.3125,-2.3108,-2.3108,-2.3108,0.0,0.0,0.0,0.0,0.0,0.0,0.0,0.0,0.0,0.0,-2.5535,-2.5312,-2.5418,0.0,0.0,0.0,0.0,0.0,0.0,0.0,-2.7809,-2.8151,0.0,0.0,0.0,0.0,0.0,0.0,0.0,0.0,0.0,0.0,-2.8587,-2.8587,-2.898,-2.957,-2.9916,-3.0459,-3.0988,-3.1219,-3.1721,-3.2218,-3.2218,-3.2395,-3.2572,-3.2572,-3.2969,-3.3417,-3.3417,-3.3417,-3.3512,-3.384,-3.3851,-3.3987,-3.4666,-3.4992,-3.5263,-3.5655,-3.6212,-3.6822,-3.7404,-3.8,-3.864,-3.9237,-3.9305,0.0,0.0,0.0,0.0,0.0,0.0,0.0,0.0,-3.9305,-3.9305,-3.9305,-3.9305,-3.9305,-3.9305,-3.8304,-3.7743,-3.773,-3.6238,-3.5536,-3.5488,-3.5017,-3.4775,-3.4775,0.0,0.0,0.0,-3.4775,-3.4775,-3.4775,-3.4775,-3.4775,-3.4775,-3.4775,-3.4775,-3.4775,0.0,0.0,0.0,0.0,0.0,-2.5439,-2.5605,-2.4964,-2.4509,-2.4709,-2.4192,-2.3632,-2.3155,-2.3108,-2.3108,-2.3108,-2.3108,0.0,0.0,0.0,0.0,0.0,0.0,0.0,0.0,0.0,-2.5676,-2.5382,-2.5465,-2.543,0.0,0.0,0.0,0.0,0.0,0.0,0.0,0.0,0.0,0.0,0.0,0.0,0.0,0.0,0.0,0.0,0.0,0.0,0.0,0.0,0.0,-2.9862,-3.0473,-3.1083,-3.1558,-3.1558,-3.1857,-3.2218,-3.2218,-3.2218,-3.2218,-3.2218,-3.2531,-3.283,-3.283,-3.2966,-3.3224,-3.3607,-3.3634,-3.3837,-3.4639,-3.4938,-3.5195,-3.5642,-3.6076,-3.6619,-3.7377,-3.7851,-3.8437,-3.921,0.0,0.0,0.0,0.0,0.0,0.0,0.0,0.0,0.0,-3.9305,-3.9305,-3.9305,-3.9305,-3.9305,-3.9305,-3.8575,-3.82,-3.8167,-3.6709,-3.6013,-3.5966,-3.5163,-3.4775,-3.4775,0.0,0.0,0.0,-3.4775,-3.4775,-3.4775,-3.4775,-3.4775,-3.4775,-3.4775,-3.4775,-3.4775,0.0,0.0,0.0,0.0,0.0,0.0,-2.4922,-2.393,-2.3365,-2.4002,-2.3514,-2.3108,-2.3108,-2.3108,-2.3108,-2.3108,-2.3108,0.0,0.0,0.0,0.0,0.0,0.0,0.0,0.0,0.0,-2.5606,-2.5606,-2.5382,-2.5312,-2.5312,-2.5312,-2.5629,0.0,0.0,0.0,0.0,0.0,0.0,0.0,0.0,0.0,0.0,0.0,0.0,0.0,0.0,0.0,0.0,0.0,0.0,0.0,0.0,-3.168,-3.2205,-3.2205,-3.2218,-3.2218,-3.2218,-3.2218,-3.2218,-3.2218,-3.2218,-3.2218,-3.2218,-3.268,-3.3101,-3.3115,-3.4,-3.4775,-3.4788,-3.5276,-3.571,-3.571,-3.5723,-3.6144,-3.7323,-3.7499,-3.7933,0.0,0.0,0.0,0.0,0.0,0.0,0.0,0.0,0.0,0.0,0.0,-3.9305,-3.9305,-3.9305,-3.9305,-3.9305,-3.8575,-3.82,-3.8167,-3.6709,-3.6013,-3.5966,-3.5163,-3.4775,0.0,0.0,0.0,0.0,-3.4775,-3.4775,-3.4775,-3.4775,-3.4775,-3.4775,-3.4775,-3.4775,-3.4775,0.0,0.0,0.0,0.0,0.0,0.0,0.0,-2.3649,-2.3335,-2.4015,-2.3514,-2.3108,-2.3108,-2.3108,-2.3108,-2.3108,-2.3108,0.0,0.0,0.0,0.0,0.0,0.0,0.0,0.0,0.0,-2.5172,-2.5382,-2.5734,-2.5699,-2.5312,-2.5734,-2.6013,-2.6233,-2.6769,0.0,0.0,0.0,0.0,0.0,0.0,0.0,0.0,0.0,0.0,0.0,0.0,0.0,0.0,0.0,0.0,0.0,0.0,0.0,0.0,-3.2218,-3.2218,-3.2218,-3.2218,-3.2218,-3.2218,-3.2218,-3.2218,-3.2327,-3.2721,-3.2966,-3.3332,-3.4109,-3.4531,-3.4924,-3.5317,-3.5588,-3.571,-3.571,-3.571,-3.6144,-3.7323,0.0,0.0,-3.9169,-3.9305,0.0,0.0,0.0,0.0,0.0,0.0,0.0,0.0,0.0,-3.9305,-3.9305,-3.9305,-3.9305,-3.9305,-3.9069,-3.8935,-3.8935,-3.7441,-3.6743,-3.6696,-3.5391,0.0,0.0,0.0,0.0,0.0,-3.4775,-3.4775,-3.4775,-3.4775,-3.4775,-3.4823,-3.503,-3.5066,-3.5078,0.0,0.0,0.0,0.0,0.0,0.0,0.0,-2.3365,-2.3258,-2.3662,-2.3365,-2.3108,-2.3108,-2.3108,-2.3108,-2.3108,-2.3108,0.0,0.0,0.0,0.0,0.0,0.0,0.0,-2.412,-2.4569,-2.5002,-2.5418,-2.5699,-2.5769,-2.5629,-2.5804,-2.5978,-2.6233,-2.6769,-2.7175,0.0,0.0,0.0,0.0,0.0,0.0,-2.8587,0.0,0.0,0.0,0.0,0.0,0.0,0.0,0.0,0.0,0.0,0.0,0.0,0.0,-3.2218,-3.2218,-3.2218,-3.2218,-3.2218,-3.2218,-3.2381,-3.2653,-3.3006,-3.3441,-3.3932,-3.4639,-3.4965,-3.5236,-3.5642,-3.571,-3.571,-3.571,-3.571,-3.6144,-3.7323,0.0,0.0,-3.9169,0.0,0.0,0.0,0.0,0.0,0.0,0.0,0.0,0.0,0.0,-3.9305,-3.9305,-3.9305,-3.9305,-3.9305,-3.9305,-3.9305,-3.9305,-3.7821,-3.7116,-3.707,-3.5475,0.0,0.0,0.0,0.0,0.0,-3.5078,-3.5126,-3.5126,-3.5126,-3.5126,-3.5126,-3.5271,-3.5368,-3.5368,0.0,0.0,0.0,0.0,0.0,0.0,0.0,-2.3108,-2.3108,-2.3108,-2.3108,-2.3108,-2.3108,-2.3108,-2.3108,-2.3108,0.0,0.0,0.0,0.0,0.0,0.0,0.0,0.0,-2.4001,-2.4499,-2.5,-2.5571,-2.5418,-2.5629,-2.6129,-2.5664,-2.5699,-2.6233,-2.6803,-2.7074,0.0,0.0,0.0,0.0,0.0,0.0,0.0,0.0,0.0,0.0,0.0,0.0,0.0,0.0,0.0,0.0,0.0,0.0,0.0,0.0,0.0,0.0,0.0,-3.2218,-3.2218,-3.2218,-3.2653,-3.3115,-3.3156,-3.4014,0.0,-3.4856,-3.529,-3.571,-3.571,-3.571,-3.571,-3.571,-3.571,-3.6144,0.0,-3.7567,0.0,0.0,0.0,0.0,0.0,0.0,0.0,0.0,0.0,0.0,0.0,0.0,0.0,-3.9305,-3.9305,-3.9305,-3.9305,-3.9305,-3.9305,-3.9305,-3.7848,-3.7142,-3.7057,-3.5571,0.0,0.0,0.0,0.0,0.0,-3.5464,-3.562,-3.562,-3.562,-3.562,-3.562,-3.562,-3.562,-3.562,0.0,0.0,0.0,0.0,0.0,0.0,0.0,0.0,0.0,0.0,-2.3108,-2.3108,-2.3108,-2.3108,-2.3108,0.0,0.0,0.0,0.0,0.0,0.0,0.0,0.0,0.0,-2.4141,-2.408,-2.4466,-2.5382,-2.5804,-2.5838,-2.5523,-2.6242,-2.6461,-2.622,-2.7209,-2.7855,0.0,0.0,0.0,0.0,0.0,0.0,0.0,0.0,0.0,0.0,-2.8587,-2.898,0.0,0.0,0.0,0.0,0.0,0.0,0.0,0.0,-3.2218,-3.2218,-3.2218,0.0,-3.2218,-3.2218,-3.2653,-3.3224,0.0,-3.4273,-3.4924,-3.5371,-3.5615,-3.571,-3.571,-3.571,-3.571,-3.571,-3.571,-3.6144,-3.7323,0.0,0.0,0.0,0.0,0.0,0.0,0.0,0.0,0.0,0.0,0.0,0.0,0.0,0.0,-3.9305,-3.9305,-3.9305,-3.9305,-3.9305,-3.9305,-3.9305,-3.8395,-3.7638,-3.7057,-3.6143,0.0,0.0,0.0,0.0,-3.5223,-3.5464,-3.562,-3.562,-3.562,-3.562,-3.562,-3.5824,-3.592,-3.5968,0.0,0.0,0.0,0.0,0.0,0.0,0.0,0.0,0.0,0.0,0.0,-2.3108,-2.3108,-2.3108,0.0,0.0,0.0,0.0,0.0,0.0,0.0,0.0,0.0,-2.3119,-2.3989,-2.386,-2.4278,-2.5312,-2.5629,-2.5769,-2.5734,-2.607,-2.6208,-2.6233,-2.7074,-2.7888,0.0,0.0,0.0,0.0,-2.8587,0.0,0.0,0.0,0.0,0.0,-2.8899,-2.9387,0.0,-3.0608,-3.1205,-3.1762,0.0,0.0,0.0,0.0,-3.1973,-3.2132,-3.1813,-3.1986,-3.2218,-3.2218,-3.282,-3.3552,-3.384,-3.4572,-3.529,-3.5642,-3.571,-3.571,-3.571,-3.571,-3.571,-3.571,-3.594,0.0,0.0,0.0,0.0,0.0,0.0,0.0,0.0,0.0,0.0,0.0,0.0,0.0,0.0,0.0,0.0,0.0,-3.9305,-3.9305,-3.9305,-3.9305,-3.9305,-3.9305,-3.8575,-3.8096,-3.7887,-3.6696,0.0,0.0,0.0,0.0,-3.5572,-3.5847,-3.5991,-3.5991,-3.5991,-3.5991,-3.5991,-3.6146,-3.6465,-3.6875,0.0,0.0,0.0,0.0,0.0,0.0,0.0,0.0,0.0,0.0,0.0,0.0,0.0,0.0,0.0,0.0,0.0,0.0,0.0,0.0,0.0,0.0,-2.272,-2.3056,-2.3803,-2.3806,-2.4278,-2.5312,-2.5312,-2.5558,-2.6047,-2.5629,-2.5769,-2.6324,-2.6803,-2.7543,0.0,0.0,0.0,0.0,-2.8522,0.0,0.0,0.0,0.0,0.0,0.0,0.0,0.0,-3.1097,-3.1644,-3.2059,-3.2182,0.0,0.0,0.0,0.0,0.0,-3.1381,-3.1616,-3.2059,-3.2169,-3.3078,-3.3908,-3.3908,-3.4816,-3.571,-3.571,-3.571,-3.571,-3.571,-3.571,-3.571,0.0,0.0,0.0,0.0,0.0,0.0,0.0,0.0,0.0,0.0,0.0,0.0,0.0,0.0,0.0,0.0,0.0,0.0,0.0,-3.9394,-3.9394,-3.9394,-3.9349,-3.9349,-3.9394,-3.8742,-3.8652,-3.8953,-3.7474,0.0,0.0,0.0,0.0,-3.6452,-3.6722,-3.6803,-3.6803,-3.6803,-3.6722,-3.6628,-3.6628,-3.7049,-3.7625,0.0,0.0,0.0,0.0,0.0,0.0,0.0,0.0,0.0,0.0,0.0,0.0,0.0,0.0,0.0,0.0,0.0,0.0,0.0,0.0,0.0,-2.2708,-2.272,-2.3088,-2.3956,-2.386,-2.4278,-2.5312,-2.5312,-2.5347,-2.5453,-2.5873,-2.6358,-2.6871,-2.6973,-2.7343,-2.7908,-2.7908,-2.8183,-2.8554,-2.8118,0.0,0.0,0.0,0.0,0.0,0.0,0.0,0.0,-3.1097,-3.133,-3.1468,-3.2009,0.0,0.0,0.0,0.0,0.0,-3.1381,-3.127,-3.1505,-3.2059,-3.3078,-3.3908,-3.3908,-3.4816,-3.571,-3.571,-3.571,-3.571,-3.571,-3.571,-3.571,0.0,0.0,0.0,0.0,0.0,0.0,0.0,0.0,0.0,0.0,0.0,0.0,0.0,0.0,0.0,0.0,0.0,0.0,0.0,0.0,-3.9865,-3.9865,-3.9526,-3.9526,-3.9865,-3.9777,-3.9631,-3.9472,-3.9237,-3.8751,0.0,0.0,-3.8366,-3.8366,-3.8662,-3.8751,-3.8751,-3.8751,-3.8283,-3.7592,-3.7592,-3.7176,-3.6849,0.0,0.0,0.0,0.0,0.0,0.0,0.0,0.0,0.0,0.0,0.0,0.0,0.0,0.0,0.0,0.0,0.0,0.0,0.0,0.0,-2.3,-2.2708,-2.272,-2.3056,-2.3869,-2.3827,-2.4278,-2.5312,-2.5312,-2.5312,-2.5312,-2.5594,-2.6013,-2.6564,-2.6871,-2.7142,-2.7377,-2.7676,-2.7776,-2.7743,0.0,0.0,0.0,0.0,0.0,0.0,0.0,0.0,0.0,0.0,-3.0948,-3.1196,-3.1172,0.0,0.0,0.0,0.0,0.0,-3.0482,-3.0696,-3.127,-3.1579,-3.2308,-3.3016,-3.335,-3.4336,-3.529,-3.5642,-3.571,-3.571,-3.571,-3.571,-3.5886,-3.6592,0.0,0.0,0.0,0.0,0.0,0.0,0.0,0.0,0.0,0.0,0.0,0.0,0.0,0.0,0.0,0.0,0.0,0.0,0.0,-3.9996,-3.9996,-4.0039,-4.017,-4.0386,-4.0386,-4.043,-4.0545,-4.0027,-3.9681,-3.9552,0.0,-3.9006,-3.9006,-3.9152,-3.921,-3.921,-3.921,-3.8944,-3.8554,-3.8554,-3.8283,-3.8088,0.0,0.0,0.0,0.0,0.0,0.0,0.0,0.0,0.0,0.0,0.0,0.0,0.0,0.0,0.0,0.0,0.0,0.0,0.0,-2.3078,-2.2939,-2.2708,-2.2647,-2.3006,-2.3782,-2.3806,-2.4278,-2.5312,-2.5312,-2.5312,-2.5312,-2.5312,-2.5558,-2.6013,-2.6564,-2.6803,-2.6837,-2.7242,-2.7276,-2.704,0.0,0.0,0.0,0.0,0.0,0.0,0.0,0.0,0.0,0.0,0.0,0.0,0.0,0.0,0.0,-2.9535,-3.0241,-3.0921,-2.9716,-3.0177,-3.1035,-3.1166,-3.1752,-3.2459,-3.3077,-3.415,-3.5127,-3.5615,-3.571,-3.571,-3.571,-3.5832,0.0,-3.7323,0.0,0.0,0.0,0.0,0.0,0.0,0.0,0.0,0.0,0.0,0.0,0.0,0.0,0.0,0.0,0.0,0.0,0.0,-3.9908,-4.0213,-4.0343,-4.0787,-4.0958,-4.0873,-4.0873,-4.1086,-4.1522,-4.0774,-4.0617,-4.093,-4.0187,-3.9883,-3.9883,-3.9883,-3.9883,-3.9883,-3.9883,-3.9738,-3.9505,-3.9285,-3.9329,-3.9637,0.0,0.0,0.0,0.0,0.0,0.0,0.0,0.0,0.0,0.0,0.0,0.0,0.0,0.0,0.0,0.0,0.0,0.0,0.0,-2.3,-2.2848,-2.2708,-2.2525,-2.2868,-2.3782,-2.3806,-2.4278,-2.5312,-2.5312,-2.5312,-2.5312,-2.5312,-2.5312,-2.5382,-2.5978,-2.6267,-2.6267,-2.6289,-2.6564,-2.6973,-2.6496,0.0,0.0,0.0,0.0,0.0,0.0,0.0,0.0,0.0,0.0,0.0,0.0,0.0,-2.9457,-2.9419,-3.0241,-3.0921,-2.9716,-2.9871,-3.0483,-3.1048,-3.2085,-3.3091,-3.3702,-3.4749,-3.5669,-3.571,-3.571,-3.571,-3.571,-3.6171,-3.6754,-3.7377,0.0,0.0,0.0,0.0,0.0,0.0,0.0,0.0,0.0,0.0,0.0,0.0,0.0,0.0,0.0,0.0,0.0,0.0,0.0,-4.0873,-4.1311,-4.1745,-4.1787,-4.1354,-4.1354,-4.162,-4.2051,-4.1953,-4.1953,-4.2009,-4.1912,-4.1912,-4.1912,-4.1912,-4.1912,-4.1912,-4.1912,-4.1311,-4.0375,-3.9505,-3.9768,-4.0504,0.0,0.0,0.0,0.0,0.0,0.0,0.0,0.0,0.0,0.0,0.0,0.0,0.0,0.0,0.0,0.0,0.0,0.0,0.0,-2.2939,-2.2787,-2.2512,-2.2451,-2.2836,-2.3782,-2.3806,-2.4278,-2.5312,-2.5312,-2.5312,-2.5312,-2.5312,-2.5312,-2.5347,-2.5943,-2.5978,-2.5664,-2.6047,-2.6082,-2.5965,-2.6117,-2.6324,0.0,0.0,0.0,0.0,0.0,0.0,0.0,0.0,-2.9457,-2.9419,-2.9496,-2.9223,-2.8855,-2.8855,-2.9419,-2.9909,-2.9079,-2.9263,-2.9958,-3.0983,-3.1823,-3.2698,-3.3688,-3.4551,-3.5236,-3.5642,-3.571,-3.5818,-3.6198,0.0,-3.6931,0.0,0.0,0.0,0.0,0.0,0.0,0.0,0.0,0.0,0.0,0.0,0.0,0.0,0.0,0.0,0.0,0.0,0.0,0.0,0.0,-4.1227,-4.1396,-4.187,-4.2009,-4.1829,-4.1829,-4.1926,-4.2092,-4.2092,-4.2092,-4.2092,-4.2092,-4.2092,-4.2092,-4.2092,-4.2092,-4.2092,-4.2092,-4.1856,-4.1395,-4.0432,-4.0289,-4.0603,0.0,0.0,0.0,0.0,0.0,0.0,0.0,0.0,0.0,0.0,0.0,0.0,0.0,0.0,0.0,0.0,0.0,0.0,-2.2909,-2.2848,-2.2696,-2.242,-2.2359,-2.2805,-2.3782,-2.3806,-2.4278,-2.5312,-2.5312,-2.5312,-2.5312,-2.5312,-2.5312,-2.5312,-2.5734,-2.5699,-2.5347,-2.5734,-2.5664,-2.5347,-2.5734,-2.5908,0.0,0.0,0.0,0.0,0.0,0.0,0.0,0.0,-2.8922,-2.9079,-2.8855,-2.8657,-2.851,-2.851,-2.8922,-2.9263,-2.8657,-2.8922,-2.9621,-3.067,-3.1366,-3.2158,-3.3594,-3.4527,-3.5142,-3.5346,-3.5548,-3.5845,-3.6252,-3.6632,0.0,0.0,0.0,0.0,0.0,0.0,0.0,0.0,0.0,0.0,0.0,0.0,0.0,0.0,0.0,0.0,0.0,0.0,0.0,0.0,0.0,0.0,-4.162,-4.1926,-4.2092,-4.2092,-4.2092,-4.2092,-4.2092,-4.2092,-4.2092,-4.2092,-4.2092,-4.2092,-4.2092,-4.2092,-4.2092,-4.2092,-4.2092,-4.2092,-4.2009,-4.1339,-4.1057,-4.1057,0.0,0.0,0.0,0.0,0.0,0.0,0.0,0.0,0.0,0.0,0.0,0.0,0.0,0.0,0.0,0.0,0.0,0.0,-2.2878,-2.2769,-2.2616,-2.242,-2.2278,-2.269,-2.3782,-2.3806,-2.429,-2.5312,-2.5312,-2.5312,-2.5312,-2.5312,-2.5312,-2.5312,-2.5312,-2.5312,-2.5312,-2.5312,-2.5312,-2.5312,-2.5312,-2.5312,-2.5382,0.0,0.0,0.0,0.0,0.0,0.0,0.0,-2.9,-2.859,-2.9197,-2.8961,-2.851,-2.851,-2.8922,-2.9263,-2.8657,-2.8922,-2.9543,-3.0169,-3.077,-3.1694,-3.3448,-3.4821,-3.5494,-3.484,-3.5263,-3.571,-3.5723,-3.6672,0.0,0.0,0.0,0.0,0.0,0.0,0.0,0.0,0.0,0.0,0.0,0.0,0.0,0.0,0.0,0.0,0.0,0.0,0.0,0.0,0.0,0.0,-4.2092,-4.2092,-4.2092,-4.2092,-4.2092,-4.2092,-4.2092,-4.2092,-4.2092,-4.2092,-4.2092,-4.2092,-4.2092,-4.2092,-4.2092,-4.2092,-4.2092,-4.2092,-4.2092,-4.2092,-4.2092,-4.2092,0.0,0.0,0.0,0.0,0.0,0.0,0.0,0.0,0.0,0.0,0.0,0.0,0.0,0.0,0.0,0.0,0.0,0.0,-2.2543,-2.2512,-2.2432,-2.2278,-2.2216,-2.269,-2.3782,-2.4482,-2.4999,-2.5312,-2.5312,-2.5312,-2.5312,-2.5312,-2.5312,-2.5312,-2.5312,-2.5312,-2.5312,-2.5312,-2.5312,-2.5312,-2.5312,-2.5312,-2.5312,0.0,0.0,0.0,0.0,0.0,0.0,0.0,0.0,0.0,-2.8697,-2.8657,-2.851,-2.851,-2.863,-2.8736,-2.855,-2.8618,-2.9016,-3.005,-3.077,-3.1355,-3.1803,-3.3553,-3.5128,-3.5346,-3.5548,-3.5845,-3.6252,-3.6957,0.0,0.0,0.0,0.0,0.0,0.0,0.0,0.0,0.0,0.0,0.0,0.0,0.0,0.0,0.0,0.0,0.0,0.0,0.0,0.0,0.0,0.0,-4.2092,-4.2092,-4.2092,-4.2092,-4.2092,-4.2092,-4.2092,-4.2092,-4.2092,-4.2092,-4.2092,-4.2092,-4.2092,-4.2092,-4.2092,-4.2092,-4.2092,-4.2092,-4.2092,-4.2092,-4.2092,-4.2092,0.0,0.0,0.0,0.0,0.0,0.0,0.0,0.0,0.0,0.0,-2.3047,-2.2939,0.0,0.0,0.0,0.0,0.0,0.0,0.0,-2.2389,-2.2328,-2.2228,-2.2197,-2.269,-2.3782,-2.4783,-2.5312,-2.5312,-2.5312,-2.5312,-2.5312,-2.5312,-2.5312,-2.5312,-2.5312,-2.5312,-2.5312,-2.5312,-2.5312,-2.5312,-2.5312,-2.5312,-2.5336,0.0,0.0,0.0,0.0,0.0,0.0,0.0,0.0,0.0,-2.851,-2.851,-2.851,-2.851,-2.851,-2.851,-2.851,-2.851,-2.8662,-2.9404,-3.0218,-3.1074,-3.1988,-3.3144,-3.4353,-3.5467,-3.571,-3.5818,-3.6185,-3.6754,0.0,0.0,0.0,0.0,0.0,0.0,0.0,0.0,0.0,0.0,0.0,0.0,0.0,0.0,0.0,0.0,0.0,0.0,0.0,0.0,0.0,0.0,-4.2092,-4.2092,-4.2092,-4.2092,-4.2092,-4.2092,-4.2092,-4.2092,-4.2092,-4.2092,-4.2092,-4.2092,-4.2092,-4.2092,-4.2092,-4.2092,-4.2092,-4.2092,-4.2092,-4.2092,-4.2092,-4.2092,0.0,0.0,0.0,0.0,0.0,0.0,0.0,0.0,0.0,0.0,-2.3,-2.2848,0.0,0.0,0.0,0.0,0.0,0.0,0.0,-2.2389,-2.2328,-2.2228,-2.2282,-2.2787,-2.3782,-2.4783,-2.5312,-2.5312,-2.5312,-2.5312,-2.5312,-2.5312,-2.5312,-2.5312,-2.5312,-2.5312,-2.5312,-2.5312,-2.5312,-2.5312,-2.5312,-2.5312,-2.536,-2.5889,0.0,0.0,0.0,0.0,0.0,0.0,0.0,0.0,-2.851,-2.851,-2.851,-2.851,-2.851,-2.851,-2.851,-2.851,-2.851,-2.851,-2.938,-3.0842,-3.3356,-3.3397,-3.3422,-3.5292,-3.571,-3.571,-3.571,0.0,0.0,0.0,0.0,0.0,0.0,0.0,0.0,0.0,0.0,0.0,0.0,0.0,0.0,0.0,0.0,0.0,0.0,0.0,0.0,0.0,0.0,0.0,-4.2092,-4.2092,-4.2092,0.0,-4.2092,-4.2092,-4.2092,-4.2092,-4.2092,-4.2092,-4.2092,-4.2092,-4.2092,-4.2092,-4.2092,-4.2092,-4.2092,-4.2092,-4.2092,-4.2092,-4.2092,-4.2092,0.0,0.0,0.0,0.0,0.0,0.0,0.0,0.0,0.0,0.0,0.0,0.0,0.0,0.0,0.0,0.0,0.0,0.0,0.0,-2.2247,-2.2216,-2.2197,-2.3023,-2.3565,-2.3794,-2.4783,-2.5312,-2.5312,-2.5312,-2.5312,-2.5312,-2.5312,-2.5312,-2.5312,-2.5312,-2.5312,-2.5312,-2.5312,-2.5312,-2.5312,-2.5312,-2.5312,-2.536,-2.5889,-2.6442,0.0,0.0,0.0,0.0,0.0,0.0,0.0,-2.851,-2.851,-2.851,-2.851,-2.851,-2.851,-2.851,-2.851,-2.851,-2.851,-2.904,-3.0355,-3.324,-3.3407,-3.3516,-3.5332,-3.571,-3.571,-3.571,0.0,0.0,0.0,0.0,0.0,0.0,0.0,0.0,0.0,0.0,0.0,0.0,0.0,0.0,0.0,0.0,0.0,0.0,0.0,0.0,0.0,0.0,-4.2092,-4.2092,-4.2092,-4.2092,0.0,-4.2092,-4.2092,-4.2092,-4.2092,-4.2092,-4.2092,-4.2092,-4.2092,-4.2092,-4.2092,-4.2092,-4.2092,-4.2092,-4.2092,-4.2092,-4.2092,-4.2092,-4.2092,0.0,0.0,0.0,0.0,0.0,0.0,0.0,0.0,0.0,0.0,0.0,0.0,0.0,0.0,0.0,0.0,0.0,0.0,0.0,0.0,-2.2306,-2.2558,-2.3372,-2.3914,-2.4121,-2.4903,-2.5312,-2.5312,-2.5312,-2.5312,-2.5312,-2.5312,-2.5312,-2.5312,-2.5312,-2.5312,-2.5312,-2.5312,-2.5312,-2.5312,-2.5312,-2.5456,-2.5745,-2.6286,-2.6839,-2.7342,-2.787,0.0,0.0,0.0,0.0,0.0,0.0,0.0,-2.851,-2.851,-2.851,-2.851,-2.851,-2.851,-2.859,-2.8855,-2.9157,-3.0059,-3.247,-3.3023,-3.3436,-3.494,-3.552,-3.571,0.0,0.0,0.0,0.0,0.0,0.0,0.0,0.0,0.0,0.0,0.0,0.0,0.0,0.0,0.0,0.0,0.0,0.0,0.0,0.0,0.0,0.0,-4.2092,-4.2092,-4.2092,-4.2092,-4.2092,-4.2092,-4.2092,-4.2092,-4.2092,-4.2092,-4.2092,-4.2092,-4.2092,-4.2092,-4.2092,-4.2092,-4.2092,-4.2092,-4.2092,-4.2092,-4.2092,-4.2092,-4.2092,-4.2092,0.0,0.0,0.0,0.0,0.0,0.0,0.0,0.0,0.0,0.0,0.0,0.0,0.0,0.0,0.0,0.0,0.0,0.0,0.0,0.0,0.0,-2.2987,-2.3517,-2.4001,-2.4472,-2.5035,-2.5312,-2.5312,-2.5312,-2.5312,-2.5312,-2.5312,-2.5312,-2.5312,-2.5312,-2.5312,-2.5312,-2.5312,-2.5312,-2.5312,-2.5408,-2.5709,-2.6166,-2.6789,-2.7306,-2.775,-2.8318,-2.851,-2.851,-2.851,0.0,0.0,0.0,0.0,-2.851,-2.851,-2.851,-2.851,-2.851,-2.851,-2.8657,-2.9263,-2.9496,-3.0009,-3.173,-3.2602,-3.3354,-3.4561,-3.5263,0.0,0.0,0.0,0.0,0.0,0.0,0.0,0.0,0.0,0.0,0.0,0.0,0.0,0.0,0.0,0.0,0.0,0.0,0.0,0.0,0.0,-4.2092,-4.2092,-4.2092,-4.2092,-4.2092,-4.2092,-4.2092,-4.2092,-4.2092,-4.2092,-4.2092,-4.2092,-4.2092,-4.2092,-4.2092,-4.2092,-4.2092,-4.2092,-4.2092,-4.2092,-4.2092,-4.2092,-4.2092,-4.2092,-4.2092,-4.2092,0.0,0.0,0.0,0.0,0.0,0.0,0.0,0.0,0.0,0.0,-2.2586,-2.2451,0.0,0.0,0.0,0.0,0.0,0.0,0.0,0.0,0.0,-2.2987,-2.3517,-2.4001,-2.4472,-2.5035,-2.5312,-2.5312,-2.5312,-2.5312,-2.5312,-2.5312,-2.5312,-2.5312,-2.5312,-2.5312,-2.5312,-2.5312,-2.5312,-2.5348,-2.5805,-2.6033,-2.6202,-2.7224,-2.7618,-2.775,-2.8318,-2.851,-2.851,-2.851,-2.851,0.0,0.0,0.0,-2.851,-2.851,-2.851,-2.851,-2.851,-2.851,-2.8657,-2.9263,-2.9793,-3.0509,-3.1806,-3.2589,-3.3422,0.0,0.0,0.0,0.0,0.0,0.0,0.0,0.0,0.0,0.0,0.0,0.0,0.0,0.0,0.0,0.0,0.0,0.0,0.0,0.0,0.0,0.0,-4.2092,-4.2092,-4.2092,-4.2092,-4.2092,-4.2092,-4.2092,-4.2092,-4.2092,-4.2092,-4.2092,-4.2092,-4.2092,-4.2092,-4.2092,-4.2092,-4.2092,-4.2092,-4.2092,-4.2092,-4.2092,-4.2092,-4.2092,-4.2092,-4.2092,-4.2092,-4.2092,0.0,0.0,0.0,0.0,0.0,0.0,0.0,0.0,0.0,0.0,0.0,-2.2525,0.0,0.0,0.0,0.0,0.0,0.0,0.0,0.0,0.0,-2.3433,-2.3917,-2.4434,-2.4951,-2.5192,-2.5312,-2.5312,-2.5312,-2.5312,-2.5312,-2.5312,-2.5312,-2.5312,-2.5312,-2.5312,-2.5312,-2.5312,-2.548,-2.5769,-2.6009,-2.6466,-2.7055,-2.7536,-2.7909,-2.8198,-2.8426,-2.851,-2.851,-2.851,-2.851,-2.851,-2.851,0.0,0.0,0.0,-2.851,-2.851,-2.851,-2.851,-2.8538,-2.8816,-2.9341,-3.0011,-3.0893,-3.1828,-3.2796,0.0,0.0,0.0,0.0,0.0,0.0,0.0,0.0,0.0,0.0,0.0,0.0,0.0,0.0,0.0,0.0,0.0,0.0,0.0,0.0,0.0,-4.2092,-4.2092,-4.2092,-4.2092,-4.2092,0.0,-4.2092,-4.2092,-4.2092,-4.2092,-4.2092,-4.2092,-4.2092,-4.2092,-4.2092,-4.2092,-4.2092,-4.2092,-4.2092,-4.2092,-4.2092,-4.2092,-4.2092,-4.2092,-4.2092,-4.2092,-4.2092,-4.2092,0.0,0.0,0.0,0.0,0.0,0.0,0.0,0.0,0.0,0.0,0.0,0.0,0.0,0.0,0.0,0.0,0.0,0.0,0.0,0.0,0.0,-2.3962,-2.4314,-2.4771,-2.53,-2.5312,-2.5312,-2.5312,-2.5312,-2.5312,-2.5312,-2.5312,-2.5312,-2.5312,-2.5312,-2.5312,-2.5312,-2.5312,-2.5612,-2.6105,-2.625,-2.6875,-2.7702,-2.7834,-2.8162,-2.851,-2.851,-2.851,-2.851,-2.851,-2.851,-2.851,-2.851,-2.851,0.0,0.0,0.0,-2.855,-2.8697,-2.863,-2.855,-2.8697,-2.9079,-2.9561,-3.0279,0.0,-3.2146,0.0,0.0,0.0,0.0,0.0,0.0,0.0,0.0,0.0,0.0,0.0,0.0,0.0,0.0,0.0,0.0,0.0,0.0,0.0,0.0,0.0,-4.2092,-4.2092,-4.2092,-4.2092,-4.2092,-4.2092,-4.2092,-4.2092,-4.2092,-4.2092,-4.2092,-4.2092,-4.2092,-4.2092,-4.2092,-4.2092,-4.2092,-4.2092,-4.2092,-4.2092,-4.2092,-4.2092,-4.2092,-4.2092,-4.2092,-4.2092,-4.2092,-4.2092,0.0,0.0,0.0,0.0,0.0,0.0,0.0,0.0,0.0,0.0,0.0,0.0,-2.2228,-2.2197,-2.2197,-2.2197,-2.2197,-2.2402,-2.2939,-2.2999,-2.3424,-2.4434,-2.4506,0.0,-2.53,-2.5312,-2.5312,-2.5312,-2.5312,-2.5312,-2.5312,-2.5312,-2.5312,-2.5312,-2.5312,-2.5312,-2.5312,-2.5312,-2.5612,-2.6142,-2.6633,-2.7186,-2.7777,-2.8282,-2.8486,-2.851,-2.851,-2.851,-2.851,-2.851,-2.851,-2.851,-2.851,-2.851,-2.851,0.0,0.0,0.0,-2.9197,-2.8922,-2.863,-2.9223,-2.938,-2.9678,0.0,0.0,0.0,0.0,0.0,0.0,0.0,0.0,0.0,0.0,0.0,0.0,0.0,0.0,0.0,0.0,0.0,0.0,0.0,0.0,0.0,0.0,0.0,0.0,-4.2092,-4.2092,-4.2092,-4.2092,-4.2092,-4.2092,-4.2092,-4.2092,-4.2092,-4.2092,-4.2092,-4.2092,-4.2092,-4.2092,-4.2092,-4.2092,-4.2092,-4.2092,-4.2092,-4.2092,-4.2092,-4.2092,-4.2092,-4.2092,-4.2092,-4.2092,-4.2092,-4.2092,0.0,0.0,0.0,0.0,0.0,0.0,0.0,0.0,0.0,0.0,0.0,0.0,0.0,-2.2328,-2.2278,-2.2228,-2.2498,-2.2919,-2.3493,-2.3785,-2.4133,-2.4472,-2.4843,-2.5107,-2.53,-2.5312,-2.5312,-2.5312,-2.5312,-2.5312,-2.5312,-2.5312,-2.5312,-2.5312,-2.5312,-2.5312,-2.5336,-2.5673,-2.6129,-2.6645,-2.7186,-2.7714,-2.8246,-2.8438,-2.851,-2.851,-2.851,-2.851,-2.851,-2.851,-2.851,-2.851,-2.851,-2.851,-2.851,-2.851,-2.851,-2.855,-2.8776,-2.8961,-2.9118,-2.9341,-2.9986,-3.0658,-3.1033,-3.1663,0.0,0.0,0.0,0.0,0.0,0.0,0.0,0.0,0.0,0.0,0.0,0.0,0.0,0.0,0.0,0.0,0.0,0.0,0.0,0.0,0.0,0.0,-4.1453,-4.186,-4.2092,-4.2092,-4.2092,-4.2092,-4.2092,-4.2092,-4.2092,-4.2092,-4.2092,-4.2092,-4.2092,-4.2092,-4.2092,-4.2092,-4.2092,-4.2092,-4.2092,-4.2092,-4.2092,-4.2092,-4.2092,-4.2092,-4.2092,-4.2092,-4.2092,-4.2092,0.0,0.0,0.0,0.0,0.0,0.0,0.0,0.0,-2.2739,-2.2708,0.0,0.0,0.0,0.0,-2.2648,-2.2734,-2.3071,-2.3505,-2.3989,-2.4338,-2.4568,-2.4748,-2.5119,-2.5312,-2.5312,-2.5131,-2.5131,-2.5312,-2.5131,-2.5131,-2.5312,-2.5312,-2.5312,-2.5312,-2.5312,-2.5312,-2.5348,-2.5877,-2.6418,-2.6946,-2.7474,-2.8041,-2.851,-2.851,-2.851,-2.851,-2.851,0.0,0.0,0.0,0.0,-2.851,-2.851,-2.851,-2.851,-2.851,-2.851,-2.855,-2.8736,-2.9079,-2.9457,-2.9639,-3.0279,-3.1033,-3.1516,0.0,0.0,0.0,0.0,0.0,0.0,0.0,0.0,0.0,0.0,0.0,0.0,0.0,0.0,0.0,0.0,0.0,0.0,0.0,0.0,0.0,0.0,0.0,-4.0757,-4.1407,-4.1872,-4.2092,-4.2092,-4.2092,-4.2092,-4.2092,-4.2092,-4.2092,-4.2092,-4.2092,-4.2092,-4.2092,-4.2092,-4.2092,-4.2092,-4.2092,-4.2092,-4.2092,-4.2092,-4.2092,-4.2092,-4.2092,-4.2092,-4.2092,-4.2092,-4.2092,0.0,0.0,0.0,0.0,0.0,0.0,0.0,0.0,-2.286,-2.2708,0.0,0.0,0.0,0.0,0.0,-2.3782,-2.383,-2.4001,-2.4472,-2.4508,-2.4771,-2.5288,-2.5312,-2.5312,-2.5312,-2.4807,-2.4795,-2.5312,-2.4795,-2.4807,-2.5312,-2.5312,-2.5312,-2.5312,-2.5312,-2.5312,-2.5348,-2.5889,-2.6442,-2.6946,-2.7486,-2.8053,-2.851,-2.851,-2.851,-2.851,-2.851,-2.851,0.0,-2.851,0.0,0.0,-2.851,-2.851,-2.851,-2.851,-2.851,-2.863,0.0,0.0,0.0,-3.0126,0.0,0.0,-3.2074,0.0,0.0,0.0,0.0,0.0,0.0,0.0,0.0,0.0,0.0,0.0,0.0,0.0,0.0,0.0,0.0,0.0,0.0,0.0,0.0,0.0,0.0,-4.0075,-4.0075,-4.0691,-4.136,-4.2049,-4.2063,-4.2078,-4.2092,-4.2092,-4.2092,-4.2092,-4.2092,-4.2092,-4.2092,-4.2092,-4.2092,-4.2092,-4.2092,-4.2092,-4.2092,-4.2092,-4.2092,-4.2092,-4.2092,-4.2092,-4.2092,-4.2092,-4.2092,-4.2092,0.0,0.0,0.0,0.0,0.0,-2.2909,-2.283,-2.2665,-2.2574,0.0,0.0,0.0,-2.3142,-2.3393,-2.3794,-2.4266,-2.4314,-2.4542,-2.5059,-2.5083,-2.5155,-2.53,-2.5312,-2.5312,-2.5312,-2.5168,-2.5155,-2.5312,-2.5155,-2.5168,-2.5312,-2.5312,-2.5312,-2.5312,-2.5312,-2.5312,-2.5372,-2.631,-2.6753,-2.697,-2.7933,-2.8378,-2.851,-2.851,-2.851,0.0,0.0,-2.851,-2.851,0.0,-2.851,-2.851,-2.851,-2.851,-2.851,-2.851,-2.851,-2.855,-2.8697,0.0,0.0,0.0,0.0,0.0,0.0,0.0,0.0,0.0,0.0,0.0,0.0,0.0,0.0,0.0,0.0,0.0,0.0,0.0,0.0,0.0,0.0,0.0,0.0,0.0,0.0,0.0,-3.9088,-3.945,-3.945,-4.0029,-4.068,-4.1366,-4.1389,-4.1607,-4.2092,-4.2092,-4.2092,-4.2092,-4.2092,-4.2092,-4.2092,-4.2092,-4.2092,-4.2092,-4.2092,-4.2092,-4.2092,-4.2092,-4.2092,-4.2092,-4.2092,-4.2092,-4.2092,-4.2092,-4.2092,-4.2092,0.0,0.0,0.0,0.0,0.0,-2.2969,-2.2878,-2.2726,-2.2721,0.0,0.0,0.0,-2.3863,-2.4026,-2.429,-2.4807,-2.482,-2.4975,-2.5288,-2.5312,-2.5312,-2.5312,-2.5312,-2.5312,-2.5312,-2.5095,-2.5083,-2.5312,-2.5083,-2.5095,-2.5312,-2.5312,-2.5312,-2.5312,-2.5312,-2.5312,-2.536,-2.6226,-2.6681,-2.697,-2.781,-2.8318,-2.851,-2.851,-2.851,0.0,0.0,0.0,-2.851,-2.851,-2.851,0.0,0.0,-2.851,-2.851,-2.851,-2.851,-2.851,-2.851,-2.938,-3.0279,-3.0279,0.0,0.0,-3.266,-3.3248,0.0,0.0,0.0,0.0,0.0,0.0,0.0,0.0,0.0,0.0,0.0,0.0,0.0,0.0,0.0,0.0,0.0,0.0,0.0,0.0,-3.8565,-3.8879,-3.9206,-3.9528,-4.0025,-4.0673,-4.0662,-4.0986,-4.1671,-4.1671,-4.1816,-4.2092,-4.2092,-4.2092,-4.2092,-4.2092,-4.2092,-4.2092,-4.2092,-4.2092,-4.2092,-4.2092,-4.2092,-4.2092,-4.2092,-4.2092,-4.2092,-4.2092,-4.2092,-4.2092,0.0,0.0,-2.3108,-2.3108,-2.3078,-2.309,-2.3135,-2.3026,-2.3071,0.0,-2.3452,-2.3684,-2.4506,-2.4568,-2.4795,-2.5264,-2.5312,-2.5312,-2.5312,-2.5312,-2.5312,-2.5312,-2.5312,-2.5312,-2.5312,-2.482,-2.4831,-2.5312,-2.4831,-2.482,-2.5312,-2.5312,-2.5312,-2.5312,-2.5312,-2.5312,-2.5336,-2.5817,-2.6334,-2.6849,-2.745,-2.8041,0.0,0.0,-2.851,-2.851,-2.851,-2.851,-2.851,-2.851,-2.851,0.0,0.0,0.0,0.0,-2.855,-2.855,-2.855,-2.855,-2.9406,-3.0355,-3.0355,0.0,0.0,-3.3234,-3.3597,0.0,0.0,0.0,0.0,0.0,0.0,0.0,0.0,0.0,0.0,0.0,0.0,0.0,0.0,0.0,0.0,0.0,0.0,-3.8101,-3.8101,-3.8159,-3.846,-3.9059,-3.9095,-3.9382,-4.0003,-4.0008,-4.0321,-4.0974,-4.1062,-4.1395,-4.199,-4.2063,-4.2092,-4.2092,-4.2092,-4.2092,-4.2092,-4.2092,-4.2092,-4.2092,-4.2092,-4.2092,-4.2092,-4.2092,-4.2092,-4.2092,-4.2092,-4.2092,-4.2092,0.0,-2.2794,-2.3108,-2.3108,-2.3017,-2.3058,-2.338,-2.3254,-2.3323,-2.3859,-2.4232,-2.4675,-2.5083,-2.5155,-2.5204,-2.53,-2.5312,-2.5312,-2.5312,-2.5312,-2.5312,-2.5312,-2.5312,-2.5312,-2.5312,-2.5204,-2.5204,-2.5312,-2.5204,-2.5204,-2.5312,-2.5312,-2.5312,-2.5312,-2.5312,-2.5312,-2.5312,-2.542,-2.5769,-2.6346,-2.7332,-2.8041,-2.851,-2.851,-2.851,-2.851,-2.851,-2.851,-2.851,-2.851,-2.851,-2.851,0.0,0.0,0.0,-2.8685,-2.8724,-2.8724,-2.8724,-2.9626,-3.057,0.0,0.0,0.0,-3.3269,-3.3805,-3.4196,0.0,0.0,0.0,0.0,0.0,0.0,0.0,0.0,0.0,0.0,0.0,0.0,0.0,0.0,0.0,0.0,0.0,-3.7491,-3.7491,-3.7941,-3.8269,-3.8379,-3.84,-3.8681,-3.9344,-3.9363,-3.9668,-4.0292,-4.0829,-4.1163,-4.1294,-4.1845,-4.2092,-4.2092,-4.2092,-4.2092,-4.2092,-4.2092,-4.2092,-4.2092,-4.2092,-4.2092,-4.2092,-4.2092,-4.2092,-4.2092,-4.2092,-4.2092,-4.2092,-2.2694,-2.292,-2.3195,-2.3484,-2.3411,-2.3474,-2.3936,-2.3773,-2.3806,-2.4341,-2.4774,-2.5128,-2.5276,-2.5312,-2.5312,-2.5312,-2.5312,-2.5312,-2.5312,-2.5312,-2.5312,-2.5312,-2.5312,-2.5312,-2.5312,-2.5312,-2.5312,-2.5312,-2.5312,-2.5312,-2.5312,-2.5312,-2.5312,-2.5312,-2.5312,-2.5312,-2.5312,-2.5312,-2.5612,-2.6142,-2.6695,0.0,-2.8114,-2.8114,-2.8282,-2.851,-2.851,-2.851,-2.851,-2.851,-2.851,0.0,-2.851,-2.8578,-2.8657,0.0,-2.8724,-2.8791,0.0,0.0,0.0,-3.0908,0.0,0.0,0.0,-3.3991,-3.4346,0.0,0.0,0.0,0.0,0.0,0.0,0.0,0.0,0.0,0.0,0.0,0.0,0.0,0.0,0.0,0.0,0.0,-3.6954,-3.7288,-3.7593,-3.7883,-3.8188,-3.8202,-3.8362,-3.8696,-3.8696,-3.9,-3.9639,-3.9987,-4.0307,-4.0612,-4.1279,-4.1599,-4.1613,-4.1947,-4.2092,-4.2092,-4.2092,-4.2092,-4.2092,-4.2092,-4.2092,-4.2092,-4.2092,-4.2092,-4.2092,-4.2092,-4.2092,-4.2092,-2.3145,-2.3195,-2.3446,-2.3992,-2.3953,-2.4045,-2.4546,-2.4402,-2.4399,-2.4888,-2.5152,-2.5312,-2.5347,-2.5312,-2.5347,-2.5418,-2.5382,-2.5347,-2.5347,-2.5347,-2.5347,-2.5312,-2.5312,-2.5312,-2.5312,-2.5312,-2.5312,-2.5312,-2.5312,-2.5312,-2.5312,-2.5312,-2.5312,-2.5312,-2.5312,-2.5312,-2.5312,-2.5312,-2.5552,-2.5949,0.0,-2.6659,-2.769,-2.7798,-2.8138,-2.851,-2.851,-2.851,-2.851,-2.851,-2.851,-2.851,-2.855,-2.8657,0.0,0.0,0.0,0.0,0.0,0.0,0.0,0.0,0.0,-3.3094,0.0,0.0,0.0,0.0,0.0,0.0,0.0,0.0,0.0,0.0,0.0,0.0,0.0,0.0,0.0,0.0,0.0,0.0,0.0,0.0,-3.6402,-3.707,-3.723,-3.752,-3.7999,-3.8144,-3.8202,-3.8202,-3.8202,-3.8463,-3.9,-3.9146,-3.945,-3.9929,-4.0583,-4.0974,-4.112,-4.1657,-4.1976,-4.2092,-4.2092,-4.2092,-4.2092,-4.2092,-4.2092,-4.2092,-4.2092,-4.2092,-4.2092,-4.2092,-4.2092,-4.2092,-2.3296,-2.3521,-2.4004,-2.4394,-2.4462,-2.4628,-2.4994,-2.5013,-2.5095,-2.5448,-2.5381,-2.5382,-2.5535,-2.5418,-2.5453,-2.5793,-2.5676,-2.5571,-2.5571,-2.5571,-2.55,-2.5312,-2.5312,-2.5312,-2.5312,-2.5312,-2.5312,-2.5312,-2.5312,-2.5312,-2.5312,-2.5312,-2.5312,-2.5312,-2.5312,-2.5312,-2.5312,-2.5312,-2.5348,0.0,-2.5396,-2.6334,0.0,-2.8246,-2.8462,-2.851,-2.851,-2.851,-2.851,0.0,-2.851,-2.855,0.0,-2.8803,-2.8882,-2.9184,0.0,0.0,0.0,0.0,0.0,0.0,-3.3171,0.0,0.0,0.0,0.0,0.0,0.0,-3.4414,-3.4414,0.0,0.0,0.0,0.0,0.0,0.0,0.0,0.0,0.0,0.0,0.0,0.0,0.0,0.0,-3.6373,-3.6968,-3.7346,-3.7404,-3.7912,-3.8202,-3.8202,-3.8202,-3.8246,-3.8318,-3.8899,-3.9233,-3.9305,-3.9915,-4.0525,-4.1091,-4.1178,-4.1541,-4.2092,-4.2092,-4.2092,-4.2092,-4.2092,-4.2092,-4.2092,-4.2092,-4.2092,-4.2092,-4.2092,-4.2092,-4.2092,-2.4173,-2.4274,-2.4612,-2.5073,-2.5087,-2.5186,-2.5664,-2.5532,-2.5397,-2.5429,-2.5347,-2.5347,-2.5418,-2.5347,-2.5382,-2.5535,0.0,-2.543,0.0,0.0,-2.5382,-2.5312,-2.5312,-2.5312,-2.5312,-2.5312,-2.5312,-2.5312,-2.5312,-2.5312,-2.5312,-2.5312,-2.5312,-2.5312,-2.5312,-2.5312,-2.5312,-2.5312,-2.5312,0.0,0.0,0.0,0.0,-2.7069,-2.75,-2.8053,-2.8053,-2.8313,-2.8657,0.0,-2.8657,0.0,0.0,0.0,0.0,-2.9157,0.0,0.0,0.0,0.0,0.0,0.0,0.0,0.0,-3.4264,0.0,-3.4414,0.0,0.0,0.0,0.0,0.0,0.0,0.0,0.0,0.0,0.0,0.0,0.0,0.0,0.0,0.0,0.0,0.0,0.0,0.0,0.0,-3.6344,-3.6707,-3.7331,-3.768,-3.768,-3.8028,-3.8202,-3.8202,-3.8478,-3.8623,-3.8623,-3.9276,-3.9726,-4.0002,-4.0365,-4.0887,-4.1512,-4.1512,-4.1744,-4.2092,-4.2092,-4.2092,-4.2092,-4.2092,-4.2092,-4.2092,-4.2092,-4.2092,-4.2092,-2.5272,-2.5146,-2.5176,-2.5682,-2.5647,-2.5695,-2.607,-2.5875,-2.5535,-2.5123,-2.5241,-2.5312,-2.5087,-2.5312,-2.55,-2.5535,-2.5535,-2.5535,0.0,0.0,-2.5453,-2.5453,-2.5347,-2.5347,-2.5382,-2.5347,-2.5312,-2.5312,-2.5312,-2.5312,-2.5312,-2.5312,-2.5312,-2.5312,-2.5312,-2.5347,-2.5382,0.0,-2.5418,-2.5489,-2.5876,-2.6153,-2.6262,-2.636,-2.6878,-2.7577,-2.7577,-2.7934,-2.8443,-2.8443,-2.8443,0.0,-2.8688,0.0,0.0,0.0,0.0,0.0,-2.9783,0.0,0.0,0.0,0.0,0.0,0.0,0.0,0.0,0.0,0.0,0.0,0.0,0.0,-3.3833,-3.3645,0.0,0.0,0.0,0.0,0.0,0.0,0.0,0.0,0.0,0.0,0.0,0.0,-3.5305,0.0,-3.6025,-3.6678,-3.7114,-3.7302,-3.7723,-3.8028,-3.8202,-3.8202,-3.8202,-3.8217,-3.8696,-3.903,-3.9218,-3.9654,-4.0205,-4.0829,-4.1018,-4.1381,-4.1845,-4.202,-4.2092,-4.2092,-4.2092,-4.2092,-4.2092,-4.2092,-4.2092,-4.2092,-2.6449,-2.5996,-2.5682,-2.6111,-2.6176,-2.6107,-2.5945,-2.591,-2.5535,0.0,0.0,0.0,0.0,0.0,0.0,0.0,0.0,-2.6166,-2.6166,0.0,-2.5875,-2.5875,-2.55,-2.5382,0.0,-2.5382,-2.5312,-2.5312,-2.5312,-2.5312,-2.5312,-2.5312,-2.5312,-2.5312,-2.5312,-2.5418,-2.5571,-2.5571,-2.5688,-2.5875,-2.5888,-2.59,-2.601,0.0,-2.7198,-2.7235,-2.7235,0.0,0.0,-2.7532,-2.7532,0.0,0.0,0.0,0.0,0.0,0.0,0.0,0.0,0.0,0.0,-3.2828,0.0,0.0,0.0,0.0,-3.3532,0.0,0.0,0.0,-3.2539,-3.2539,-3.2367,-3.1683,-3.2104,0.0,0.0,0.0,0.0,0.0,0.0,0.0,0.0,0.0,0.0,0.0,-3.5009,0.0,-3.5436,-3.5996,-3.6635,-3.7288,-3.7331,-3.7607,-3.8188,-3.8202,-3.8202,-3.8202,-3.8217,-3.8565,-3.9204,-3.9218,-3.9567,-4.0162,-4.0815,-4.1105,-4.1178,-4.1831,-4.2092,-4.2092,-4.2092,-4.2092,-4.2092,-4.2092,-4.2092,-4.2092,-2.6499,-2.6336,-2.6226,-2.6358,-2.6396,-2.6327,0.0,-2.598,0.0,0.0,0.0,0.0,0.0,-2.5688,-2.5945,0.0,0.0,-2.598,-2.598,-2.5945,0.0,-2.591,-2.5641,-2.5535,0.0,-2.5382,-2.5312,-2.5312,-2.5312,-2.5312,-2.5312,-2.5312,-2.5312,-2.5312,-2.5312,-2.5418,0.0,0.0,0.0,0.0,0.0,-2.6237,-2.6403,0.0,0.0,-2.6919,-2.7274,-2.752,0.0,-2.8114,-2.8002,-2.7718,-2.7939,-2.8206,-2.8543,-2.8983,-2.9443,0.0,0.0,0.0,-3.1232,-3.1268,0.0,0.0,0.0,0.0,0.0,0.0,0.0,0.0,0.0,-3.2481,-3.244,-3.2191,-3.1973,-3.1741,0.0,0.0,0.0,0.0,0.0,0.0,0.0,0.0,0.0,-3.3823,-3.437,-3.4733,0.0,-3.5328,-3.5828,-3.6046,-3.6852,-3.7404,-3.7607,-3.7999,-3.8202,-3.8202,-3.8202,-3.8318,-3.8536,-3.8536,-3.8884,-3.9523,-3.9741,-4.0075,-4.0481,-4.1163,-4.1439,-4.1482,-4.1918,-4.2092,-4.2092,-4.2092,-4.2092,-4.2092,-2.6499,-2.6499,-2.6499,-2.6499,0.0,0.0,0.0,0.0,0.0,0.0,-2.5793,0.0,-2.5802,0.0,-2.6443,0.0,-2.6654,-2.6689,-2.6689,-2.6433,0.0,-2.6404,-2.5961,0.0,0.0,0.0,-2.5418,-2.5418,-2.5347,-2.5312,-2.5312,-2.5382,-2.5382,-2.5312,-2.5453,-2.5571,-2.5723,-2.5793,-2.5945,0.0,0.0,-2.6435,0.0,0.0,-2.6703,-2.7113,0.0,-2.7569,-2.7952,-2.8325,-2.8088,-2.7652,-2.7784,-2.8051,-2.8408,-2.8776,-2.9389,-3.0027,-3.0199,-3.0635,0.0,-3.0697,-3.1035,0.0,-3.1805,0.0,0.0,0.0,0.0,0.0,0.0,-3.183,-3.183,-3.183,-3.1467,-3.1177,0.0,-3.1177,0.0,0.0,0.0,0.0,0.0,0.0,-3.3256,-3.3489,-3.3848,-3.4167,0.0,0.0,-3.516,-3.5392,-3.622,-3.6838,-3.7302,-3.7694,-3.7984,-3.8202,-3.8202,-3.8202,-3.8202,-3.8202,-3.8434,-3.8855,-3.9102,-3.9421,-3.9828,-4.0481,-4.0887,-4.1134,-4.157,-4.1889,-4.2092,-4.2092,-4.2092,-4.2092,-2.6499,-2.6499,0.0,0.0,-2.6499,0.0,0.0,0.0,-2.5875,0.0,-2.5642,-2.6073,-2.5692,-2.6649,-2.746,-2.7778,-2.7987,-2.8109,-2.8109,-2.7451,0.0,0.0,-2.6429,-2.6039,-2.6213,0.0,0.0,-2.5606,-2.5418,-2.5347,-2.5347,-2.5535,-2.55,-2.5347,-2.5723,-2.591,-2.5945,-2.6131,-2.6339,-2.6499,-2.6499,-2.6512,-2.66,-2.7115,0.0,-2.7803,-2.728,-2.7526,-2.8109,-2.8134,-2.777,-2.7318,-2.7329,-2.7447,-2.7709,-2.8312,-2.9062,-2.9749,-3.0263,-3.0399,-3.054,-3.1082,0.0,0.0,0.0,0.0,-3.1406,0.0,0.0,0.0,0.0,0.0,-3.0598,-3.0598,-3.0598,-3.0598,-3.0598,0.0,0.0,0.0,0.0,0.0,0.0,-3.2423,-3.273,-3.3402,-3.3489,-3.3779,0.0,0.0,0.0,-3.5334,-3.5378,-3.5988,-3.7201,-3.7273,-3.7593,-3.8159,-3.8188,-3.8202,-3.8202,-3.8202,-3.8202,-3.8246,-3.887,-3.916,-3.9204,-3.9813,-4.0423,-4.1004,-4.1033,-4.1453,-4.2049,-4.2092,-4.2092,-4.2092,-2.6499,-2.6499,-2.6499,0.0,-2.6361,-2.6305,0.0,0.0,0.0,0.0,-2.6856,-2.7139,-2.7408,-2.7702,-2.791,-2.8011,-2.8073,0.0,0.0,0.0,0.0,-2.7341,-2.6918,-2.6563,-2.6213,-2.5945,0.0,-2.5828,-2.5758,-2.5758,-2.5758,-2.5793,-2.5793,-2.5758,-2.5828,-2.598,-2.6131,-2.6166,-2.6339,-2.6499,-2.6499,-2.6738,0.0,0.0,-2.7847,-2.8612,-2.8474,-2.8298,-2.8172,-2.8549,-2.8348,-2.7821,-2.7419,-2.8002,-2.8811,-2.8563,-2.9376,-3.0385,-3.0513,-3.0557,-3.0477,-3.0108,-3.0024,-3.0101,0.0,0.0,0.0,0.0,0.0,0.0,0.0,0.0,0.0,-3.0598,-3.0598,-3.0598,-3.0598,0.0,0.0,0.0,0.0,0.0,0.0,-3.1496,-3.2048,-3.2716,-3.3227,-3.3779,0.0,0.0,0.0,-3.4646,-3.5145,-3.5566,-3.5886,-3.6823,-3.7389,-3.7549,-3.7984,-3.8202,-3.8202,-3.8202,-3.8202,-3.8217,-3.8376,-3.8463,-3.8507,-3.916,-3.9538,-3.9726,-4.0176,-4.0771,-4.1424,-4.1918,-4.2092,-4.2092,-2.6499,0.0,0.0,-2.6499,0.0,0.0,-2.6537,0.0,0.0,-2.7243,-2.7494,0.0,-2.8398,-2.8461,-2.8574,-2.8825,-2.8837,0.0,-2.8837,0.0,0.0,-2.8009,-2.7424,-2.6989,-2.6702,-2.6243,0.0,-2.6015,0.0,-2.591,-2.591,-2.598,-2.598,-2.591,-2.6084,-2.6201,-2.6213,-2.6305,-2.6396,-2.6499,-2.6499,0.0,0.0,-2.7557,-2.8185,-2.8925,-2.9214,-2.9101,-2.8888,-2.9202,-2.915,-2.8912,-2.8628,-2.934,-3.0152,-2.9564,-3.0128,-3.093,-3.067,-3.0598,-3.0507,-3.0129,-3.0038,-3.0038,-3.0038,-3.0038,-3.0129,0.0,0.0,0.0,0.0,0.0,0.0,-3.0598,-3.0598,-3.0598,0.0,0.0,0.0,0.0,0.0,0.0,0.0,-3.0901,-3.138,-3.2002,-3.2411,-3.3021,0.0,0.0,0.0,-3.4399,-3.4762,-3.5116,-3.5392,-3.6119,-3.6751,-3.7302,-3.7651,-3.7941,-3.8202,-3.8202,-3.8202,-3.8202,-3.8202,-3.8202,-3.8231,-3.8609,-3.8942,-3.9262,-3.9857,-4.0321,-4.0742,-4.141,-4.1845,-4.2092,-2.6499,0.0,0.0,0.0,0.0,0.0,0.0,-2.7115,0.0,-2.7494,0.0,-2.8423,-2.895,-2.9001,-2.9252,-2.9741,0.0,-2.9792,-2.9792,-2.9315,-2.8963,-2.8888,-2.8009,-2.7431,-2.7281,-2.6689,-2.631,0.0,-2.605,-2.598,-2.598,-2.6166,-2.6166,-2.598,-2.6349,-2.6396,0.0,-2.643,-2.6499,-2.6499,-2.6499,-2.6826,-2.7379,-2.7896,-2.8411,-2.8963,-2.9578,-2.9792,-2.9792,-2.9792,-2.9972,-3.0176,-3.0098,-3.0796,-3.1495,-3.0815,-3.1037,-3.1409,-3.0843,-3.067,-3.0598,-3.0598,-3.0598,-3.0598,-3.0598,-3.0598,-3.0598,-3.0598,-3.0598,0.0,0.0,0.0,0.0,-3.0598,0.0,0.0,0.0,0.0,0.0,0.0,0.0,0.0,0.0,0.0,-3.0843,-3.1437,-3.1495,0.0,0.0,0.0,0.0,0.0,-3.4414,0.0,-3.5261,0.0,-3.6017,-3.7172,-3.7259,-3.7622,-3.8202,-3.8202,-3.8202,-3.8202,-3.8202,-3.8202,-3.8202,-3.8202,-3.8551,-3.9131,-3.9741,-3.9987,-4.006,-4.0728,-4.1337,-4.186,-2.6499,0.0,0.0,0.0,0.0,-2.7934,-2.7833,-2.7896,-2.8122,-2.8549,-2.8687,-2.9001,-2.9578,-2.9641,-2.9679,-2.9779,-2.9792,0.0,0.0,0.0,0.0,-2.8913,-2.87,-2.821,-2.7341,-2.7157,-2.6882,0.0,0.0,-2.6396,-2.6396,-2.643,-2.643,-2.6396,-2.6465,-2.6499,-2.6465,-2.6499,0.0,-2.6499,-2.6499,-2.6826,-2.7379,-2.7896,-2.8411,-2.8963,-2.9578,-2.9792,-2.9792,-2.9792,-3.0215,-3.0673,-3.0228,-3.1067,-3.2033,-3.1476,-3.1425,-3.1466,-3.138,-3.0974,-3.0598,-3.0598,-3.0598,-3.0598,-3.0598,-3.0598,-3.0598,-3.0598,-3.0598,-3.0598,-3.0598,0.0,0.0,0.0,0.0,0.0,0.0,0.0,0.0,0.0,0.0,0.0,0.0,0.0,0.0,0.0,0.0,0.0,0.0,0.0,0.0,0.0,0.0,0.0,0.0,0.0,0.0,-3.6489,-3.7041,-3.7622,-3.8202,-3.8202,-3.8202,-3.8202,-3.8202,-3.8202,-3.8202,-3.8202,-3.8275,-3.8449,-3.9102,-3.9363,-3.9436,-4.0046,-4.035,-4.0612,0.0,0.0,0.0,0.0,0.0,0.0,0.0,-2.8787,0.0,-2.89,-2.9189,-2.9591,-3.0156,-3.0218,-3.0218,-3.0218,-3.0218,-3.0093,-2.9817,-2.9792,-2.9666,-2.939,-2.9051,0.0,-2.8147,-2.757,-2.719,-2.6914,0.0,-2.6499,-2.6499,-2.6499,-2.6499,-2.6499,-2.6499,-2.6499,0.0,0.0,0.0,-2.6512,-2.6801,-2.7253,-2.777,-2.8323,-2.8888,-2.9415,-2.9691,-2.9792,-2.9792,-2.9792,-3.0279,-3.0917,-3.1096,-3.1902,-3.2734,-3.2573,-3.2547,-3.2382,-3.17,-3.1293,-3.0988,-3.0685,-3.0598,-3.0598,-3.0598,-3.0598,-3.0598,-3.0598,-3.0598,-3.0598,-3.0598,-3.0598,0.0,0.0,0.0,0.0,0.0,0.0,0.0,0.0,0.0,0.0,0.0,0.0,0.0,0.0,0.0,0.0,0.0,0.0,0.0,0.0,0.0,0.0,0.0,0.0,0.0,-3.5822,-3.6475,-3.7128,-3.7738,-3.8057,-3.8202,-3.8202,-3.8202,-3.8202,-3.8202,-3.8202,-3.8202,-3.8231,-3.8565,-3.8681,-3.8754,-3.9392,-3.9639,-3.9813,0.0,-2.7557,0.0,0.0,-2.875,0.0,-2.9076,-2.9603,-2.9804,-2.9302,-2.9679,-3.0168,-3.0721,-3.0783,-3.0783,-3.0783,-3.0783,-3.0545,-3.0005,-2.9967,-2.9917,-2.9792,-2.9352,-2.9013,-2.8888,-2.8084,-2.7519,0.0,0.0,-2.6612,-2.6499,-2.6499,-2.6499,-2.6499,0.0,0.0,0.0,0.0,-2.6562,-2.6713,-2.714,-2.7682,-2.8335,-2.8725,-2.9289,-2.9792,-2.9792,-2.9792,-2.983,-2.996,-3.0406,-3.1007,-3.1636,-3.247,-3.3233,-3.3408,-3.3458,-3.3271,-3.2208,-3.1729,-3.1409,-3.0901,-3.0699,-3.0598,-3.0598,-3.0598,-3.0598,-3.0598,-3.0598,-3.0598,-3.0598,-3.0598,0.0,0.0,0.0,0.0,0.0,0.0,0.0,0.0,0.0,0.0,0.0,0.0,0.0,0.0,0.0,0.0,0.0,0.0,0.0,0.0,0.0,0.0,-3.4414,0.0,-3.4733,0.0,-3.5996,-3.6664,-3.7331,-3.7926,-3.8202,-3.8202,-3.8202,-3.8202,-3.8202,-3.8202,-3.8202,-3.8202,-3.8202,-3.8202,-3.826,-3.8797,-3.8986,-3.916,0.0,0.0,0.0,0.0,0.0,0.0,0.0,-3.0181,-3.052,-3.047,-3.0507,-3.0733,-3.126,-3.1323,-3.1323,-3.1323,-3.1323,-3.1097,-3.057,-3.0545,-3.0319,-2.9817,-2.9741,-2.9465,-2.89,-2.8787,-2.8285,0.0,0.0,-2.6989,-2.6499,-2.6499,-2.6499,0.0,0.0,0.0,0.0,-2.6499,-2.6788,-2.7241,-2.7291,-2.7908,-2.8813,-2.8875,-2.9289,-2.9792,-2.9792,-2.9792,-2.9895,-3.0582,-3.0857,-3.0932,-3.1007,-3.2024,-3.3213,-3.3227,-3.3359,-3.3474,-3.3358,-3.2425,-3.148,-3.1438,-3.0988,-3.0598,-3.0598,-3.0598,-3.0598,-3.0598,-3.0598,-3.0598,-3.0598,-3.0598,-3.0598,0.0,0.0,0.0,0.0,0.0,0.0,0.0,0.0,0.0,0.0,0.0,0.0,0.0,0.0,0.0,0.0,0.0,0.0,-3.437,0.0,-3.4414,-3.4414,-3.4414,0.0,-3.5407,-3.5996,-3.6664,-3.7331,-3.7926,-3.8202,-3.8202,-3.8202,-3.8202,-3.8202,-3.8202,-3.8202,-3.8202,-3.8202,-3.8202,-3.8217,-3.8275,-3.8289,-3.8405,0.0,0.0,0.0,0.0,0.0,0.0,0.0,-3.047,-3.0846,-3.1486,-3.1286,-3.1286,-3.1825,-3.1888,-3.1888,-3.1888,-3.1888,-3.1524,-3.067,-3.062,-3.0369,-2.9817,-2.9792,-2.9679,-2.9453,-2.9076,-2.8675,0.0,0.0,0.0,0.0,0.0,0.0,0.0,0.0,-2.6499,-2.6512,-2.6851,-2.7115,-2.7379,-2.8009,-2.8536,-2.8925,-2.9315,-2.9591,-2.9869,-3.0305,-3.0444,-3.0595,-3.1341,-3.1291,-3.1082,-3.1988,-3.2384,-3.272,-3.3638,-3.3639,-3.3354,-3.3458,-3.3126,-3.2498,-3.1714,-3.1322,-3.1047,-3.0685,-3.0598,-3.0598,-3.0598,-3.0598,-3.0598,-3.0598,-3.0598,-3.0598,0.0,0.0,0.0,0.0,0.0,0.0,0.0,0.0,-3.0598,0.0,0.0,0.0,0.0,0.0,0.0,0.0,0.0,0.0,-3.3819,0.0,-3.4414,-3.4414,-3.4414,-3.4545,-3.4806,-3.5822,-3.6446,-3.6736,-3.7738,-3.8202,-3.8202,-3.8329,-3.8315,-3.8202,-3.8329,-3.8315,-3.8202,-3.8202,-3.8202,-3.8202,-3.8202,-3.8202,-3.8246,-2.9101,0.0,-2.9365,0.0,-3.003,-3.0218,-3.0758,-3.0984,-3.1361,-3.2114,-3.2014,-3.2039,-3.2416,-3.2466,-3.2466,-3.2466,-3.2466,-3.2077,-3.1148,-3.0934,-3.0595,-3.0055,-2.988,0.0,-2.9792,-2.939,-2.9063,-2.8888,-2.8147,0.0,0.0,0.0,0.0,0.0,-2.6738,-2.6738,-2.6776,-2.7329,-2.762,-2.7833,-2.8612,-2.9001,-2.9189,-2.9641,-2.9792,-2.9869,-3.0381,-3.0582,-3.0733,-3.1759,-3.1709,-3.1439,-3.2528,-3.2684,-3.2648,-3.3722,-3.3811,-3.3573,-3.3715,-3.3649,-3.3242,-3.2092,-3.164,-3.1351,-3.0757,-3.0598,-3.0598,-3.0598,-3.0598,-3.0598,-3.0598,-3.0598,-3.0598,-3.0598,0.0,0.0,0.0,0.0,0.0,0.0,0.0,0.0,0.0,0.0,0.0,0.0,0.0,0.0,0.0,0.0,0.0,0.0,0.0,0.0,0.0,-3.4448,-3.4481,-3.4496,-3.5552,-3.6162,-3.643,-3.7659,-3.8202,-3.8202,-3.8404,-3.8404,-3.8315,-3.8516,-3.8501,-3.8389,-3.8389,-3.8389,-3.8389,-3.8389,-3.8389,-3.8352,-2.9779,-2.9779,-2.9955,-3.0507,-3.0608,-3.0783,-3.1298,-3.1838,-3.2202,-3.2215,-3.2704,-3.3056,-3.3111,-3.3111,-3.3111,-3.3111,-3.3111,-3.2817,-3.2227,-3.1687,-3.1148,0.0,0.0,-2.9792,-2.9792,-2.9779,-2.9503,-2.8888,0.0,0.0,-2.8084,0.0,-2.7268,-2.7268,-2.7268,-2.7268,-2.7341,-2.7858,-2.8411,-2.8875,-2.8888,-2.9277,-2.9779,-2.9792,-2.9792,-2.9792,-2.9792,-2.9792,-3.0049,-3.1576,-3.2074,-3.2074,-3.211,-3.2613,-3.3178,-3.3213,-3.3776,-3.438,-3.4399,-3.3935,-3.3344,-3.2672,-3.1973,-3.1351,-3.0757,-3.0598,-3.0598,-3.0598,-3.0598,-3.0598,-3.0598,-3.0598,-3.0598,-3.0598,0.0,0.0,0.0,0.0,0.0,0.0,0.0,0.0,-3.0598,0.0,0.0,0.0,0.0,0.0,0.0,0.0,0.0,-3.4356,-3.4582,0.0,-3.4414,-3.4597,-3.4698,-3.4698,-3.517,-3.5811,-3.6622,-3.7695,-3.8202,-3.8202,-3.8404,-3.8478,-3.8516,-3.8723,-3.8782,-3.8782,-3.8782,-3.8782,-3.8782,-3.8782,-3.8782,-3.8745,-3.0281,-3.0357,-3.052,-3.1047,-3.1148,-3.1323,-3.1863,-3.2102,-3.2353,-3.2754,-3.2968,-3.3124,-3.3124,-3.3124,-3.3124,0.0,-3.3124,-3.283,0.0,-3.17,-3.116,-3.0633,-3.0093,-2.9792,-2.9792,-2.9792,-2.9704,-2.9515,0.0,0.0,0.0,-2.7921,-2.7846,-2.7846,-2.7846,-2.7846,-2.7883,-2.8436,-2.8725,-2.9001,-2.9907,-3.0377,-3.062,-3.1145,-3.1033,-3.062,-3.1182,-3.1033,-3.0809,-3.2313,-3.2506,-3.229,-3.336,-3.3451,-3.3297,-3.3859,-3.3811,-3.3707,-3.4264,-3.4269,-3.3862,-3.2756,-3.2336,-3.1917,-3.0845,-3.0598,-3.0598,-3.0598,-3.0598,-3.0598,-3.0598,-3.0598,-3.0598,-3.0598,0.0,0.0,0.0,0.0,0.0,0.0,0.0,0.0,0.0,-3.0598,0.0,0.0,0.0,0.0,0.0,0.0,0.0,0.0,-3.4364,0.0,-3.4414,-3.4597,-3.4698,-3.4712,-3.5258,-3.619,-3.7437,-3.8084,-3.8404,-3.8404,-3.8478,-3.8478,-3.8516,-3.8723,-3.8782,-3.8782,-3.8782,-3.8782,-3.8782,-3.8782,-3.8782,-3.8782,-3.0796,-3.0909,-3.1072,-3.1612,-3.17,-3.1888,-3.2453,-3.2541,-3.2667,-3.3031,-3.3124,-3.3124,-3.3124,-3.3124,0.0,-3.3124,-3.3124,-3.2918,-3.2554,-3.1813,-3.1248,-3.0922,-3.0193,-2.9792,-2.9792,0.0,0.0,-2.9792,-2.9428,-2.9076,-2.8737,-2.8511,-2.8411,-2.8411,-2.8411,-2.8411,-2.8448,-2.9013,-2.9252,-2.9353,-3.0427,-3.0895,-3.1007,-3.1783,-3.1783,-3.1415,-3.1928,-3.1783,-3.1549,-3.2777,-3.2897,-3.272,-3.4011,-3.4045,-3.3742,-3.4264,-3.4045,-3.3742,-3.4264,-3.4414,-3.4167,-3.3137,-3.2701,-3.2179,-3.0903,-3.0598,-3.0598,-3.0598,-3.0598,-3.0598,-3.0598,-3.0598,-3.0598,-3.0598,0.0,-3.0598,-3.0598,0.0,0.0,0.0,0.0,0.0,0.0,-3.0732,0.0,0.0,0.0,0.0,0.0,0.0,0.0,-3.3988,-3.4511,0.0,-3.4601,-3.4798,-3.4898,-3.4898,-3.5732,-3.6619,-3.7479,-3.8253,-3.8612,-3.8627,-3.8701,-3.8738,-3.8738,-3.8943,-3.9017,-3.9017,-3.9017,-3.9017,-3.9017,-3.9017,-3.9017,-3.9017,-3.1348,-3.1449,0.0,0.0,-3.2277,0.0,-3.2993,-3.3124,-3.3124,-3.3124,-3.3124,-3.3124,-3.3124,-3.3124,-3.3124,-3.3124,0.0,0.0,0.0,-3.2001,-3.1373,-3.1336,-3.0344,0.0,-2.9792,-2.9792,-2.9792,-2.9792,-2.9792,-2.9792,-2.9779,-2.9239,-2.895,-2.895,-2.895,-2.895,-2.8988,-2.9566,-2.9792,-2.9856,-3.062,-3.0932,-3.1068,-3.1892,-3.2182,-3.2182,-3.2182,-3.2146,-3.2218,-3.2932,-3.3178,-3.3262,-3.4113,-3.4346,-3.4346,-3.438,-3.4414,-3.4414,-3.4414,-3.4414,-3.4269,-3.3663,-3.2962,-3.2121,-3.0888,-3.0598,-3.0598,-3.0598,-3.0598,-3.0598,-3.0598,-3.0598,-3.0598,-3.0598,-3.0598,-3.0598,-3.0598,0.0,0.0,0.0,0.0,0.0,0.0,-3.0984,-3.1279,0.0,0.0,0.0,0.0,0.0,-3.3299,-3.4824,-3.4902,-3.4902,-3.4902,-3.5115,-3.518,-3.5228,-3.6501,-3.707,-3.6989,-3.8243,-3.8819,-3.8819,-3.898,-3.9104,-3.9104,-3.9301,-3.9388,-3.9388,-3.9388,-3.9388,-3.9388,-3.9388,-3.9388,-3.9373,0.0,0.0,-3.2202,-3.2767,-3.2867,-3.2918,-3.3056,-3.3124,-3.3124,-3.3124,-3.3124,-3.3124,-3.3124,-3.3124,-3.3124,-3.3124,-3.3124,-3.288,-3.2441,-3.1775,-3.121,-3.0821,-3.0143,-2.9792,-2.9792,-2.9792,-2.9792,-2.9792,-2.9792,-2.9792,-2.9792,-2.9654,-2.9591,-2.9591,-2.9591,-2.9591,-2.9591,-2.9729,-2.9792,-2.9856,-3.062,-3.1267,-3.1892,-3.2648,-3.2932,-3.2932,-3.2932,-3.2577,-3.2218,-3.2932,-3.2826,-3.2577,-3.3977,-3.3977,-3.3589,-3.423,-3.4414,-3.4414,-3.4414,-3.4414,-3.4269,-3.3663,-3.26,-3.1555,-3.0786,-3.0598,-3.0598,-3.0598,-3.0598,-3.0598,-3.0598,-3.0598,-3.0598,-3.0598,-3.0598,-3.0598,-3.0598,-3.0702,0.0,0.0,-3.0955,-3.1014,-3.1014,-3.1087,-3.1338,0.0,0.0,0.0,0.0,0.0,-3.398,-3.4735,-3.4983,-3.5082,-3.4902,-3.5115,-3.518,-3.5228,-3.6656,-3.7316,-3.7327,-3.8495,-3.9017,-3.9017,-3.8907,-3.8943,-3.9104,-3.9141,-3.9265,-3.9388,-3.9388,-3.9388,-3.9388,-3.9388,-3.9388,-3.9388,-3.2617,-3.2689,-3.2747,-3.3147,-3.3154,-3.3124,-3.3124,-3.3124,-3.3124,-3.3124,-3.3124,-3.3124,-3.3124,-3.3124,-3.3124,-3.3124,-3.3124,-3.283,-3.2252,-3.17,-3.116,-3.0633,-3.0093,-2.9792,-2.9792,-2.9792,-2.9792,-2.9792,-3.0139,-3.0305,-3.0305,-3.0684,-3.0872,-3.0872,-3.0872,-3.0872,-3.0835,-3.0457,-3.0305,-3.0343,-3.072,-3.1378,-3.2182,-3.2932,-3.3437,-3.3742,-3.3742,-3.3485,-3.3206,-3.3604,-3.3485,-3.3311,-3.4128,-3.4113,-3.3811,-3.4264,-3.4414,-3.4414,-3.4414,-3.4414,-3.4196,-3.3267,-3.2498,-3.1729,-3.0816,-3.0598,-3.0598,-3.0598,-3.0598,-3.0598,-3.0598,-3.0598,-3.0598,-3.0598,-3.0598,-3.0598,-3.0598,-3.0732,0.0,-3.0925,-3.1102,-3.1176,-3.1176,-3.1516,-3.199,-3.2537,0.0,0.0,-3.4604,-3.4679,-3.4792,-3.5063,-3.5162,-3.518,-3.518,-3.5294,-3.5326,-3.5341,-3.6724,-3.7404,-3.7449,-3.8689,-3.9228,-3.9228,-3.9104,-3.9141,-3.9228,-3.9228,-3.9301,-3.9388,-3.9388,-3.9388,-3.9388,-3.9388,-3.9388,-3.9388,-3.3297,-3.3283,-3.3197,-3.3398,-3.3283,-3.3154,-3.3154,-3.3124,-3.3124,-3.3124,-3.3124,-3.3124,-3.3124,-3.3111,-3.3086,-3.2955,-3.2986,-3.2747,-3.2127,-3.1574,-3.1035,-3.052,-3.0043,-2.9792,-2.9792,-2.9792,-2.9792,-2.9792,-3.0419,-3.0796,-3.0932,-3.1599,-3.1965,-3.211,-3.211,-3.211,-3.2037,-3.1378,-3.1068,-3.1068,-3.1068,-3.1563,-3.2326,-3.2967,-3.3707,-3.4414,-3.4414,-3.4414,-3.4414,-3.4414,-3.4414,-3.4414,-3.4414,-3.4414,-3.4414,-3.4414,-3.4414,-3.4414,-3.4414,-3.4414,-3.4076,-3.2832,-3.2481,-3.2179,-3.0903,-3.0598,-3.0598,-3.0598,-3.0598,-3.0598,-3.0598,-3.0612,-3.0612,-3.0598,-3.0612,-3.0612,-3.0598,0.0,-3.0925,-3.1087,-3.1234,-3.138,-3.1485,-3.2094,-3.2781,-3.3434,-3.411,0.0,0.0,-3.5407,-3.5504,-3.5504,-3.5326,-3.5326,-3.5504,-3.5504,-3.5504,-3.5519,-3.6806,-3.7404,-3.7464,-3.8811,-3.9388,-3.9388,-3.9388,-3.9388,-3.9388,-3.9388,-3.9388,-3.9388,-3.9388,-3.9388,-3.9388,-3.9388,-3.9388,-3.9388,-3.3573,-3.3471,-3.3441,-3.3641,-3.3471,-3.3356,-3.3356,-3.3197,-3.3124,-3.3124,-3.3124,-3.3124,-3.3124,-3.324,-3.3081,-3.239,-3.2563,-3.2335,-3.1549,-3.1022,-3.0495,-2.9942,-2.9842,-2.9792,-2.9792,-2.9792,-2.9792,-2.9792,-2.9934,-3.0279,-3.0895,-3.1044,-3.1452,-3.211,-3.211,-3.211,-3.2074,-3.1965,-3.1928,-3.1928,-3.1928,-3.2362,-3.3038,-3.3143,-3.3707,-3.4414,-3.4414,-3.4414,-3.4414,-3.4414,-3.4414,-3.4414,-3.4414,-3.4414,-3.4414,-3.4414,-3.4414,-3.4414,-3.4414,-3.4414,-3.4076,-3.2832,-3.2481,-3.2179,-3.0903,-3.0598,-3.0598,-3.0598,-3.0598,-3.0598,-3.0598,-3.0702,-3.0732,-3.0612,-3.0702,-3.0732,-3.0612,0.0,-3.1087,-3.1117,-3.1336,-3.1691,-3.2243,-3.2422,-3.3021,-3.4201,-3.4427,-3.4771,-3.5427,-3.5472,-3.5504,-3.5504,-3.5472,-3.5472,-3.5504,-3.5504,-3.5504,-3.5519,-3.6806,-3.7404,-3.7464,-3.8811,-3.9388,-3.9388,-3.9388,-3.9388,-3.9388,-3.9388,-3.9388,-3.9388,-3.9388,-3.9388,-3.9388,-3.9388,-3.9388,-3.9388,-3.3852,-3.3725,-3.3641,-3.3852,-3.3725,-3.3513,-3.3441,-3.3313,-3.324,-3.3124,-3.3124,-3.2998,-3.2641,-3.2773,-3.2642,-3.1991,-3.1879,-3.1827,-3.1796,-3.1052,-3.0369,-2.9817,-2.9792,-2.9792,-2.9792,-2.9792,-2.9792,-2.9792,-3.0216,-3.0582,-3.0932,-3.1328,-3.1965,-3.2684,-3.2684,-3.2946,-3.3311,-3.2875,-3.2684,-3.2648,-3.2254,-3.2541,-3.3178,-3.3178,-3.3707,-3.4414,-3.4414,-3.4414,-3.4414,-3.4414,-3.4414,-3.4414,-3.4414,-3.4414,-3.4414,-3.4414,-3.4414,-3.4414,-3.4414,-3.4414,-3.4076,-3.2832,-3.2481,-3.2179,-3.0903,-3.0598,-3.0598,-3.0598,-3.0598,-3.0612,-3.0702,-3.0762,-3.0791,-3.0732,-3.0851,0.0,0.0,-3.0999,-3.122,-3.122,-3.1692,-3.2153,-3.2452,-3.3155,-3.3829,-3.4459,-3.4816,-3.5175,-3.5489,-3.5504,-3.5504,-3.5504,-3.5504,-3.5504,-3.5504,-3.5504,-3.5504,-3.5519,-3.6806,-3.7404,-3.7464,-3.8811,-3.9388,-3.9388,-3.9388,-3.9388,-3.9388,-3.9388,-3.9388,-3.9388,-3.9388,-3.9388,-3.9388,-3.9388,-3.9388,-3.9388,-3.4118,-3.3979,-3.3852,-3.4118,-3.3937,-3.3725,-3.3611,-3.3526,-3.336,-3.3076,-3.3051,-3.2836,-3.2214,-3.2329,-3.2237,-3.1637,-3.1378,-3.1371,-3.1678,-3.1126,-3.0597,-3.0088,-3.0113,-3.0037,-2.9869,-3.0075,-3.0075,-2.9869,-3.0457,-3.0871,-3.118,-3.1819,-3.2577,-3.3485,-3.3485,-3.3811,-3.4346,-3.3742,-3.3485,-3.3437,-3.2875,-3.2981,-3.3485,-3.3485,-3.3845,-3.4414,-3.4414,-3.4414,-3.4414,-3.4414,-3.4414,-3.4414,-3.4414,-3.4414,-3.4481,-3.4481,-3.4481,-3.4515,-3.4414,-3.4414,-3.4076,-3.2832,-3.2481,-3.2179,-3.0903,-3.0598,-3.0598,-3.0598,-3.0598,-3.0642,-3.0791,-3.0821,-3.0866,-3.0866,0.0,0.0,0.0,-3.125,-3.1515,-3.1515,-3.2243,-3.2796,-3.2961,-3.3888,-3.4578,-3.4728,-3.5205,-3.5504,-3.5504,-3.5504,-3.5504,-3.5504,-3.5504,-3.5504,-3.5504,-3.5504,-3.5504,-3.5519,-3.6656,-3.727,-3.7449,-3.8646,-3.9275,-3.9388,-3.9388,-3.9388,-3.9388,-3.9388,-3.9388,-3.9388,-3.9388,-3.9388,-3.9388,-3.9388,-3.9388,-3.9388,-3.4272,-3.4189,-3.416,-3.4356,-3.4202,-3.4076,-3.4034,-3.3852,-3.3504,-3.2963,-3.2899,-3.2682,-3.2081,-3.2245,-3.2093,-3.1316,-3.137,-3.1203,-3.0572,-3.1112,-3.1259,-3.0833,-3.1007,-3.0771,-3.0075,-3.0934,-3.0934,-3.0075,-3.0152,-3.0797,-3.2001,-3.2074,-3.2875,-3.4298,-3.4298,-3.4332,-3.4414,-3.4346,-3.4298,-3.4312,-3.4264,-3.4264,-3.4298,-3.4298,-3.4346,-3.4414,-3.4414,-3.4414,-3.4414,-3.4414,-3.4414,-3.4414,-3.4414,-3.4515,-3.4664,-3.4664,-3.4783,-3.4802,-3.4481,-3.4414,-3.4076,-3.2832,-3.2481,-3.2179,-3.0903,-3.0598,-3.0598,-3.0598,-3.0598,-3.0642,-3.0791,-3.0955,-3.1087,-3.1087,0.0,0.0,-3.1102,-3.1723,-3.2228,-3.2228,-3.2945,-3.3664,-3.4294,-3.4444,-3.4773,-3.5385,-3.5474,-3.5504,-3.5504,-3.5504,-3.5504,-3.5504,-3.5504,-3.5504,-3.5504,-3.5504,-3.5504,-3.5519,-3.6207,-3.6851,-3.7434,-3.8138,-3.8811,-3.9388,-3.9388,-3.9388,-3.9388,-3.9388,-3.9388,-3.9388,-3.9388,-3.9388,-3.9388,-3.9388,-3.9388,-3.9388,-3.429,-3.4356,-3.4314,-3.4397,-3.4082,-3.3736,-3.3558,-3.3165,-3.2746,-3.2406,-3.2339,-3.231,-3.2215,-3.2382,-3.2437,-3.2256,-3.2008,-3.2112,-3.2662,-3.2064,-3.1773,-3.196,-3.2033,-3.1924,-3.1659,-3.201,-3.201,-3.1659,-3.1659,-3.1842,-3.2227,-3.2227,-3.2741,-3.3673,-3.3673,-3.3928,-3.4414,-3.4515,-3.4597,-3.4582,-3.4683,-3.4702,-3.4702,-3.4616,-3.4597,-3.4563,-3.4448,-3.4414,-3.4414,-3.4414,-3.4414,-3.4414,-3.4414,-3.4448,-3.4549,-3.4664,-3.4783,-3.4868,-3.4735,-3.4702,-3.4482,-3.3636,-3.3123,-3.2581,-3.1657,-3.1189,-3.0925,-3.0925,-3.0925,-3.0955,-3.1087,-3.1176,-3.1234,-3.1234,0.0,-3.199,-3.1871,-3.2541,-3.3034,-3.3034,-3.3678,-3.4234,-3.4488,-3.4861,-3.522,-3.5489,-3.5504,-3.5504,-3.5504,-3.5504,-3.5504,-3.5504,-3.5504,-3.5504,-3.5504,-3.5504,-3.5504,-3.5519,-3.6178,-3.6806,-3.7434,-3.8093,-3.8766,-3.9388,-3.9388,-3.9388,-3.9388,-3.9388,-3.9388,-3.9388,-3.9388,-3.9388,-3.9388,-3.9388,-3.9388,-3.9388,-3.3783,-3.3862,-3.3862,-3.3862,-3.3751,-3.3608,-3.3434,-3.3066,-3.2686,-3.2345,-3.2096,-3.1915,-3.1893,-3.2228,-3.2508,-3.2648,-3.2528,-3.2826,-3.3748,-3.3052,-3.2591,-3.2635,-3.2656,-3.2678,-3.2713,-3.2996,-3.2996,-3.2713,-3.2713,-3.2713,-3.2763,-3.2763,-3.3129,-3.3713,-3.3693,-3.3962,-3.4481,-3.4631,-3.4698,-3.4698,-3.4835,-3.4902,-3.4902,-3.4817,-3.475,-3.475,-3.4616,-3.4582,-3.4582,-3.4582,-3.4549,-3.4515,-3.4534,-3.4616,-3.4683,-3.4898,-3.503,-3.5082,-3.5082,-3.5082,-3.4919,-3.4171,-3.3638,-3.3136,-3.2489,-3.2002,-3.1707,-3.1707,-3.1707,-3.1737,-3.1916,-3.1946,-3.1931,-3.199,-3.2467,-3.2766,-3.269,-3.3333,-3.3799,-3.3799,-3.4429,-3.4801,-3.4801,-3.5235,-3.5504,-3.5504,-3.5504,-3.5504,-3.5504,-3.5504,-3.5504,-3.5504,-3.5504,-3.5504,-3.5504,-3.5504,-3.5504,-3.5504,-3.5968,-3.6611,-3.7419,-3.7883,-3.8571,-3.9388,-3.9388,-3.9388,-3.9388,-3.9388,-3.9388,-3.9388,-3.9388,-3.9388,-3.9388,-3.9388,-3.9388,-3.9388,-3.2685,-3.2685,-3.2725,-3.2685,-3.334,-3.3815,-3.3815,-3.3815,-3.3598,-3.3078,-3.2308,-3.1614,-3.1089,-3.1676,-3.211,-3.211,-3.2791,-3.3213,-3.3178,-3.3905,-3.3837,-3.2761,-3.2854,-3.2918,-3.2925,-3.3842,-3.3842,-3.2925,-3.2925,-3.322,-3.3831,-3.3831,-3.4187,-3.4902,-3.475,-3.4698,-3.4698,-3.4698,-3.4698,-3.4731,-3.4835,-3.4902,-3.4902,-3.4902,-3.4902,-3.4902,-3.4902,-3.4902,-3.4902,-3.4902,-3.4817,-3.4731,-3.4868,-3.5034,-3.5261,-3.5439,-3.5504,-3.5504,-3.5504,-3.5504,-3.5275,-3.4268,-3.4009,-3.3832,-3.3153,-3.3022,-3.2991,-3.2991,-3.2991,-3.3068,-3.3268,-3.3314,-3.333,-3.3469,-3.3499,-3.3499,-3.3499,-3.4099,-3.4518,-3.4518,-3.51,-3.5504,-3.5504,-3.5504,-3.5504,-3.5504,-3.5504,-3.5504,-3.5504,-3.5504,-3.5504,-3.5504,-3.5504,-3.5504,-3.5504,-3.5504,-3.5504,-3.5504,-3.5504,-3.6163,-3.7404,-3.7404,-3.8138,-3.9373,-3.9388,-3.9388,-3.9388,-3.9388,-3.9388,-3.9388,-3.9388,-3.9388,-3.9388,-3.9388,-3.9388,-3.9388,-3.2725,-3.3545,-3.4093,-3.3559,-3.3752,-3.402,-3.402,-3.3659,-3.3312,-3.3167,-3.2938,-3.2927,-3.3297,-3.3512,-3.3871,-3.4438,-3.4158,-3.3768,-3.3213,-3.3905,-3.4177,-3.3837,-3.439,-3.4721,-3.4706,-3.4986,-3.4986,-3.4706,-3.4706,-3.4739,-3.4787,-3.4787,-3.482,-3.4902,-3.4868,-3.4835,-3.4835,-3.4983,-3.5049,-3.5063,-3.5261,-3.5326,-3.5326,-3.5148,-3.5115,-3.5082,-3.4935,-3.4902,-3.4902,-3.4902,-3.4868,-3.4835,-3.4902,-3.5034,-3.5213,-3.5261,-3.5392,-3.5504,-3.5504,-3.5504,-3.5427,-3.5121,-3.4703,-3.4301,-3.4092,-3.3689,-3.3362,-3.3362,-3.3362,-3.3362,-3.3438,-3.3438,-3.3438,-3.3499,-3.3888,-3.4219,-3.4219,-3.4771,-3.519,-3.519,-3.5385,-3.5504,-3.5504,-3.5504,-3.5504,-3.5504,-3.5504,-3.5504,-3.5504,-3.5504,-3.5504,-3.5504,-3.5504,-3.5504,-3.5504,-3.5504,-3.5504,-3.5504,-3.5504,-3.5953,-3.6776,-3.721,-3.7883,-3.8721,-3.9215,-3.9388,-3.9388,-3.9388,-3.9388,-3.9388,-3.9388,-3.9388,-3.9388,-3.9388,-3.9388,-3.9388,-3.2414,-3.3196,-3.3739,-3.3582,-3.3906,-3.4185,-3.4185,-3.3872,-3.363,-3.363,-3.3388,-3.3353,-3.3837,-3.4143,-3.4495,-3.4971,-3.4872,-3.4591,-3.4153,-3.4524,-3.4758,-3.4758,-3.5246,-3.5504,-3.5504,-3.5504,-3.5504,-3.5504,-3.5504,-3.5439,-3.5326,-3.5326,-3.5261,-3.5115,-3.5034,-3.5001,-3.5034,-3.5148,-3.518,-3.5213,-3.5439,-3.5504,-3.5504,-3.5359,-3.5326,-3.5294,-3.518,-3.5148,-3.5148,-3.5148,-3.5148,-3.5115,-3.5034,-3.5148,-3.5326,-3.5326,-3.5392,-3.5504,-3.5504,-3.5504,-3.5504,-3.5504,-3.519,-3.4891,-3.4891,-3.4577,-3.4292,-3.4292,-3.4292,-3.4292,-3.4292,-3.4292,-3.4292,-3.4292,-3.4622,-3.4891,-3.4891,-3.5235,-3.5504,-3.5504,-3.5504,-3.5504,-3.5504,-3.5504,-3.5504,-3.5504,-3.5504,-3.5504,-3.5504,-3.5504,-3.5504,-3.5504,-3.5504,-3.5504,-3.5504,-3.5504,-3.5504,-3.5504,-3.5504,-3.5848,-3.6507,-3.712,-3.7764,-3.8422,-3.9125,-3.9388,-3.9388,-3.9388,-3.9388,-3.9388,-3.9388,-3.9388,-3.9388,-3.9388,-3.9388,-3.9388,-3.2087,-3.229,-3.2577,-3.3178,-3.3905,-3.4413,-3.4413,-3.4413,-3.4413,-3.4413,-3.3802,-3.3402,-3.3402,-3.4007,-3.4413,-3.4413,-3.51,-3.5504,-3.5504,-3.5504,-3.5504,-3.5504,-3.5504,-3.5504,-3.5504,-3.5504,-3.5504,-3.5504,-3.5504,-3.5504,-3.5504,-3.5504,-3.5504,-3.5504,-3.5326,-3.5213,-3.5213,-3.5213,-3.5213,-3.5261,-3.5439,-3.5504,-3.5504,-3.5504,-3.5504,-3.5504,-3.5504,-3.5504,-3.5504,-3.5504,-3.5504,-3.5472,-3.5294,-3.5359,-3.5504,-3.5504,-3.5504,-3.5504,-3.5504,-3.5504,-3.5504,-3.5504,-3.5504,-3.5504,-3.5504,-3.5504,-3.5504,-3.5504,-3.5504,-3.5504,-3.5504,-3.5504,-3.5504,-3.5504,-3.5504,-3.5504,-3.5504,-3.5504,-3.5504,-3.5504,-3.5504,-3.5504,-3.5504,-3.5504,-3.5504,-3.5504,-3.5504,-3.5504,-3.5504,-3.5504,-3.5504,-3.5504,-3.5504,-3.5504,-3.5504,-3.5504,-3.5504,-3.5504,-3.5504,-3.5818,-3.6417,-3.7045,-3.7689,-3.8347,-3.9035,-3.9328,-3.9388,-3.9388,-3.9388,-3.9388,-3.9388,-3.9388,-3.9388,-3.9388,-3.9388,-3.9388,-3.3038,-3.3934,-3.4606,-3.4143,-3.4725,-3.5246,-3.5246,-3.5246,-3.5246,-3.5246,-3.51,-3.5001,-3.5001,-3.5133,-3.5246,-3.5246,-3.5392,-3.5504,-3.5504,-3.5504,-3.5504,-3.5504,-3.5504,-3.5504,-3.5504,-3.5504,-3.5504,-3.5504,-3.5504,-3.5504,-3.5504,-3.5504,-3.5504,-3.5504,-3.5439,-3.5439,-3.5439,-3.5439,-3.5439,-3.5439,-3.5472,-3.5504,-3.5504,-3.5504,-3.5504,-3.5504,-3.5504,-3.5504,-3.5504,-3.5504,-3.5504,-3.5504,-3.5439,-3.5472,-3.5504,-3.5504,-3.5504,-3.5504,-3.5504,-3.5504,-3.5504,-3.5504,-3.5504,-3.5504,-3.5504,-3.5504,-3.5504,-3.5504,-3.5504,-3.5504,-3.5504,-3.5504,-3.5504,-3.5504,-3.5504,-3.5504,-3.5504,-3.5504,-3.5504,-3.5504,-3.5504,-3.5504,-3.5504,-3.5504,-3.5504,-3.5504,-3.5504,-3.5504,-3.5504,-3.5504,-3.5504,-3.5504,-3.5504,-3.5504,-3.5504,-3.5504,-3.5504,-3.5504,-3.5504,-3.5579,-3.5744,-3.6387,-3.703,-3.7659,-3.8332,-3.8916,-3.9388,-3.9388,-3.9388,-3.9388,-3.9388,-3.9388,-3.9388,-3.9388,-3.9388,-3.9388,-3.3734,-3.4375,-3.4905,-3.4872,-3.5213,-3.5504,-3.5504,-3.5504,-3.5504,-3.5504,-3.5504,-3.5504,-3.5504,-3.5504,-3.5504,-3.5504,-3.5504,-3.5504,-3.5504,-3.5504,-3.5504,-3.5504,-3.5504,-3.5504,-3.5504,-3.5504,-3.5504,-3.5504,-3.5504,-3.5504,-3.5504,-3.5504,-3.5504,-3.5504,-3.5504,-3.5504,-3.5504,-3.5504,-3.5504,-3.5504,-3.5504,-3.5504,-3.5504,-3.5504,-3.5504,-3.5504,-3.5504,-3.5504,-3.5504,-3.5504,-3.5504,-3.5504,-3.5504,-3.5504,-3.5504,-3.5504,-3.5504,-3.5504,-3.5504,-3.5504,-3.5504,-3.5504,-3.5504,-3.5504,-3.5504,-3.5504,-3.5504,-3.5504,-3.5504,-3.5504,-3.5504,-3.5504,-3.5504,-3.5504,-3.5504,-3.5504,-3.5504,-3.5504,-3.5504,-3.5504,-3.5504,-3.5504,-3.5504,-3.5504,-3.5504,-3.5504,-3.5504,-3.5504,-3.5504,-3.5504,-3.5504,-3.5504,-3.5504,-3.5504,-3.5504,-3.5504,-3.5504,-3.5504,-3.5504,-3.5504,-3.5534,-3.6193,-3.6656,-3.7,-3.7644,-3.8302,-3.8931,-3.8931,-3.9125,-3.9388,-3.9388,-3.9388,-3.9388,-3.9388,-3.9388,-3.9388,-3.4394,-3.4495,-3.4725,-3.5392,-3.5504,-3.5504,-3.5504,-3.5504,-3.5504,-3.5504,-3.5504,-3.5504,-3.5504,-3.5504,-3.5504,-3.5504,-3.5504,-3.5504,-3.5504,-3.5504,-3.5504,-3.5504,-3.5504,-3.5504,-3.5504,-3.5504,-3.5504,-3.5504,-3.5504,-3.5504,-3.5504,-3.5504,-3.5504,-3.5504,-3.5504,-3.5504,-3.5504,-3.5504,-3.5504,-3.5504,-3.5504,-3.5504,-3.5504,-3.5504,-3.5504,-3.5504,-3.5504,-3.5504,-3.5504,-3.5504,-3.5504,-3.5504,-3.5504,-3.5504,-3.5504,-3.5504,-3.5504,-3.5504,-3.5504,-3.5504,-3.5504,-3.5504,-3.5504,-3.5504,-3.5504,-3.5504,-3.5504,-3.5504,-3.5504,-3.5504,-3.5504,-3.5504,-3.5504,-3.5504,-3.5504,-3.5504,-3.5504,-3.5504,-3.5504,-3.5504,-3.5504,-3.5504,-3.5504,-3.5504,-3.5504,-3.5504,-3.5504,-3.5504,-3.5504,-3.5504,-3.5504,-3.5504,-3.5504,-3.5504,-3.5504,-3.5504,-3.5504,-3.5504,-3.5504,-3.5504,-3.5534,-3.6073,-3.6372,-3.6507,-3.703,-3.7629,-3.8227,-3.8227,-3.8556,-3.9059,-3.92,-3.9245,-3.926,-3.9379,-3.9388,-3.9388,-3.5326,-3.5359,-3.5359,-3.5472,-3.5504,-3.5504,-3.5504,-3.5504,-3.5504,-3.5504,-3.5504,-3.5504,-3.5504,-3.5504,-3.5504,-3.5504,-3.5504,-3.5504,-3.5504,-3.5504,-3.5504,-3.5504,-3.5504,-3.5504,-3.5504,-3.5504,-3.5504,-3.5504,-3.5504,-3.5504,-3.5504,-3.5504,-3.5504,-3.5504,-3.5504,-3.5504,-3.5504,-3.5504,-3.5504,-3.5504,-3.5504,-3.5504,-3.5504,-3.5504,-3.5504,-3.5504,-3.5504,-3.5504,-3.5504,-3.5504,-3.5504,-3.5504,-3.5504,-3.5504,-3.5504,-3.5504,-3.5504,-3.5504,-3.5504,-3.5504,-3.5504,-3.5504,-3.5504,-3.5504,-3.5504,-3.5504,-3.5504,-3.5504,-3.5504,-3.5504,-3.5504,-3.5504,-3.5504,-3.5504,-3.5504,-3.5504,-3.5504,-3.5504,-3.5504,-3.5504,-3.5504,-3.5504,-3.5504,-3.5504,-3.5504,-3.5504,-3.5504,-3.5504,-3.5504,-3.5504,-3.5504,-3.5504,-3.5504,-3.5504,-3.5504,-3.5504,-3.5504,-3.5504,-3.5504,-3.5504,-3.5504,-3.5594,-3.5953,-3.6492,-3.6582,-3.6971,-3.7539,-3.7539,-3.7599,-3.7734,-3.8302,-3.8527,-3.8601,-3.92,-3.9388,-3.9388,-3.5504,-3.5504,-3.5504,-3.5504,-3.5504,-3.5504,-3.5504,-3.5504,-3.5504,-3.5504,-3.5504,-3.5504,-3.5504,-3.5504,-3.5504,-3.5504,-3.5504,-3.5504,-3.5504,-3.5504,-3.5504,-3.5504,-3.5504,-3.5504,-3.5504,-3.5504,-3.5504,-3.5504,-3.5504,-3.5504,-3.5504,-3.5504,-3.5504,-3.5504,-3.5504,-3.5504,-3.5504,-3.5504,-3.5504,-3.5504,-3.5504,-3.5504,-3.5504,-3.5504,-3.5504,-3.5504,-3.5504,-3.5504,-3.5504,-3.5504,-3.5504,-3.5504,-3.5504,-3.5504,-3.5504,-3.5504,-3.5504,-3.5504,-3.5504,-3.5504,-3.5504,-3.5504,-3.5504,-3.5504,-3.5504,-3.5504,-3.5504,-3.5504,-3.5504,-3.5504,-3.5504,-3.5504,-3.5504,-3.5504,-3.5504,-3.5504,-3.5504,-3.5504,-3.5504,-3.5504,-3.5504,-3.5504,-3.5504,-3.5504,-3.5504,-3.5504,-3.5504,-3.5504,-3.5504,-3.5829,-3.599,-3.599,-3.599,-3.6164,-3.6554,-3.6196,-3.599,-3.599,-3.599,-3.5829,-3.5504,-3.5504,-3.5669,-3.5938,-3.5938,-3.6312,-3.6896,-3.6896,-3.7105,-3.7434,-3.7734,-3.7838,-3.7913,-3.8601,-3.8841,-3.8901]},{"header":{"parameterUnit":"m.s-1","parameterCategory":1,"la1":30.6,"la2":28.766,"lo1":-90.7593,"lo2":-88.6598,"dy":0.0162,"dx":0.0183,"nx":116,"ny":114,"refTime":"2023-06-02T12:00:00:Z","depth":0,"parameterNumber":3,"parameterNumberName":"V-component_of_WINDS"},"data":[0.0,0.0,0.0,0.0,0.0,0.0,0.0,0.0,0.0,0.0,0.0,0.0,0.0,0.0,0.0,0.0,0.0,0.0,0.0,0.0,0.0,0.0,0.0,0.0,0.0,0.0,0.0,0.0,0.0,0.0,0.0,0.0,0.0,0.0,0.0,0.0,0.0,0.0,0.0,0.0,0.0,0.0,0.0,0.0,0.0,0.0,0.0,0.0,0.0,0.0,0.0,0.0,0.0,0.0,0.0,0.0,0.0,0.0,0.0,0.0,0.0,0.0,0.0,0.0,0.0,0.0,0.0,0.0,0.0,0.0,0.0,0.0,0.0,0.0,0.0,0.0,0.0,0.0,0.0,0.0,0.0,0.0,0.0,0.0,0.0,0.0,0.0,0.0,0.0,0.0,0.0,0.0,0.0,0.0,0.0,0.0,0.0,0.0,0.0,0.0,0.0,0.0,0.0,0.0,0.0,0.0,0.0,0.0,0.0,0.0,0.0,0.0,0.0,0.0,0.0,0.0,0.0,0.0,0.0,0.0,0.0,0.0,0.0,0.0,0.0,0.0,0.0,0.0,0.0,0.0,0.0,0.0,0.0,0.0,0.0,0.0,0.0,0.0,0.0,0.0,0.0,0.0,0.0,0.0,0.0,0.0,0.0,0.0,0.0,0.0,0.0,0.0,0.0,0.0,0.0,0.0,0.0,0.0,0.0,0.0,0.0,0.0,0.0,0.0,0.0,0.0,0.0,0.0,0.0,0.0,0.0,0.0,0.0,0.0,0.0,0.0,0.0,0.0,0.0,0.0,0.0,0.0,0.0,0.0,0.0,0.0,0.0,0.0,0.0,0.0,0.0,0.0,0.0,0.0,0.0,0.0,0.0,0.0,0.0,0.0,0.0,0.0,0.0,0.0,0.0,0.0,0.0,0.0,0.0,0.0,0.0,0.0,0.0,0.0,0.0,0.0,0.0,0.0,0.0,0.0,0.0,0.0,0.0,0.0,0.0,0.0,0.0,0.0,0.0,0.0,0.0,0.0,0.0,0.0,0.0,0.0,0.0,0.0,0.0,0.0,0.0,0.0,0.0,0.0,0.0,0.0,0.0,0.0,0.0,0.0,0.0,0.0,0.0,0.0,0.0,0.0,0.0,0.0,0.0,0.0,0.0,0.0,0.0,0.0,0.0,0.0,0.0,0.0,0.0,0.0,0.0,0.0,0.0,0.0,0.0,0.0,0.0,0.0,0.0,0.0,0.0,0.0,0.0,0.0,0.0,0.0,0.0,0.0,0.0,0.0,0.0,0.0,0.0,0.0,0.0,0.0,0.0,0.0,0.0,0.0,0.0,0.0,0.0,0.0,0.0,0.0,0.0,0.0,0.0,0.0,0.0,0.0,0.0,0.0,0.0,0.0,0.0,0.0,0.0,0.0,0.0,0.0,0.0,0.0,0.0,0.0,0.0,0.0,0.0,0.0,0.0,0.0,0.0,0.0,0.0,0.0,0.0,0.0,0.0,0.0,0.0,0.0,0.0,0.0,0.0,0.0,0.0,0.0,0.0,0.0,0.0,0.0,0.0,0.0,0.0,0.0,0.0,0.0,0.0,0.0,0.0,0.0,0.0,0.0,0.0,0.0,0.0,0.0,0.0,0.0,0.0,0.0,0.0,0.0,0.0,0.0,0.0,0.0,0.0,0.0,0.0,0.0,0.0,0.0,0.0,0.0,0.0,0.0,0.0,0.0,0.0,0.0,0.0,0.0,0.0,0.0,0.0,0.0,0.0,0.0,0.0,0.0,0.0,0.0,0.0,0.0,0.0,0.0,0.0,0.0,0.0,0.0,0.0,0.0,0.0,0.0,0.0,0.0,0.0,0.0,0.0,0.0,0.0,0.0,0.0,0.0,0.0,0.0,0.0,0.0,0.0,0.0,0.0,0.0,0.0,0.0,0.0,0.0,0.0,0.0,0.0,0.0,0.0,0.0,0.0,0.0,0.0,0.0,0.0,0.0,0.0,0.0,0.0,0.0,0.0,0.0,0.0,0.0,0.0,0.0,0.0,0.0,0.0,0.0,0.0,0.0,0.0,0.0,0.0,0.0,0.0,0.0,0.0,0.0,0.0,0.0,0.0,0.0,0.0,0.0,0.0,0.0,0.0,0.0,0.0,0.0,0.0,0.0,0.0,0.0,0.0,0.0,0.0,0.0,0.0,0.0,0.0,0.0,0.0,0.0,0.0,0.0,0.0,0.0,0.0,0.0,0.0,0.0,0.0,0.0,0.0,0.0,0.0,0.0,0.0,0.0,0.0,0.0,0.0,0.0,0.0,0.0,0.0,0.0,0.0,0.0,0.0,0.0,0.0,0.0,0.0,0.0,0.0,0.0,0.0,0.0,0.0,0.0,0.0,0.0,0.0,0.0,0.0,0.0,0.0,0.0,0.0,0.0,0.0,0.0,0.0,0.0,0.0,0.0,0.0,0.0,0.0,0.0,0.0,0.0,0.0,0.0,0.0,0.0,0.0,0.0,0.0,0.0,0.0,0.0,0.0,0.0,0.0,0.0,0.0,0.0,0.0,0.0,0.0,0.0,0.0,0.0,0.0,0.0,0.0,0.0,0.0,0.0,0.0,0.0,0.0,0.0,0.0,0.0,0.0,0.0,0.0,0.0,0.0,0.0,0.0,0.0,0.0,0.0,0.0,0.0,0.0,0.0,0.0,0.0,0.0,0.0,0.0,0.0,0.0,0.0,0.0,0.0,0.0,0.0,0.0,0.0,0.0,0.0,0.0,0.0,0.0,0.0,0.0,0.0,0.0,0.0,0.0,0.0,0.0,0.0,0.0,0.0,0.0,0.0,0.0,0.0,0.0,0.0,0.0,0.0,0.0,0.0,0.0,0.0,0.0,0.0,0.0,0.0,0.0,0.0,0.0,0.0,0.0,0.0,0.0,0.0,0.0,0.0,0.0,0.0,0.0,0.0,0.0,0.0,0.0,0.0,0.0,0.0,0.0,0.0,0.0,0.0,0.0,0.0,0.0,0.0,0.0,0.0,0.0,0.0,0.0,0.0,0.0,0.0,0.0,0.0,0.0,0.0,0.0,0.0,0.0,0.0,0.0,0.0,0.0,0.0,0.0,0.0,0.0,0.0,0.0,0.0,0.0,0.0,0.0,0.0,0.0,0.0,0.0,0.0,0.0,0.0,0.0,0.0,0.0,0.0,0.0,0.0,0.0,0.0,0.0,0.0,0.0,0.0,0.0,0.0,0.0,0.0,0.0,0.0,0.0,0.0,0.0,0.0,0.0,0.0,0.0,0.0,0.0,0.0,0.0,0.0,0.0,0.0,0.0,0.0,0.0,0.0,0.0,0.0,0.0,0.0,0.0,0.0,0.0,0.0,0.0,0.0,0.0,0.0,0.0,0.0,0.0,0.0,0.0,0.0,0.0,0.0,0.0,0.0,0.0,0.0,0.0,0.0,0.0,0.0,0.0,0.0,0.0,0.0,0.0,0.0,0.0,0.0,0.0,0.0,0.0,0.0,0.0,0.0,0.0,0.0,0.0,0.0,0.0,0.0,0.0,0.0,0.0,0.0,0.0,0.0,0.0,0.0,0.0,0.0,0.0,0.0,0.0,0.0,0.0,0.0,0.0,0.0,0.0,0.0,0.0,0.0,0.0,0.0,0.0,0.0,0.0,0.0,0.0,0.0,0.0,0.0,0.0,0.0,0.0,0.0,0.0,0.0,0.0,0.0,0.0,0.0,0.0,0.0,0.0,0.0,0.0,0.0,0.0,0.0,0.0,0.0,0.0,0.0,0.0,0.0,0.0,0.0,0.0,0.0,0.0,0.0,0.0,0.0,0.0,0.0,0.0,0.0,0.0,0.0,0.0,0.0,0.0,0.0,0.0,0.0,0.0,0.0,0.0,0.0,0.0,0.0,0.0,0.0,0.0,0.0,0.0,0.0,0.0,0.0,0.0,0.0,0.0,0.0,0.0,0.0,0.0,0.0,0.0,0.0,0.0,0.0,0.0,0.0,0.0,0.0,0.0,0.0,0.0,0.0,0.0,0.0,0.0,0.0,0.0,0.0,0.0,0.0,0.0,0.0,0.0,0.0,0.0,0.0,0.0,0.0,0.0,0.0,0.0,0.0,0.0,0.0,0.0,0.0,0.0,0.0,0.0,0.0,0.0,0.0,0.0,0.0,0.0,0.0,0.0,0.0,0.0,0.0,0.0,0.0,0.0,0.0,0.0,0.0,0.0,0.0,0.0,0.0,0.0,0.0,0.0,0.0,0.0,0.0,0.0,0.0,0.0,0.0,0.0,0.0,0.0,0.0,0.0,0.0,0.0,0.0,0.0,0.0,0.0,0.0,0.0,0.0,0.0,0.0,0.0,0.0,0.0,0.0,0.0,0.0,0.0,0.0,0.0,0.0,0.0,0.0,0.0,0.0,0.0,0.0,0.0,0.0,0.0,0.0,0.0,0.0,0.0,0.0,0.0,0.0,0.0,0.0,0.0,0.0,0.0,0.0,0.0,0.0,0.0,0.0,0.0,0.0,0.0,0.0,0.0,0.0,0.0,0.0,0.0,0.0,0.0,0.0,0.0,0.0,0.0,0.0,0.0,0.0,0.0,0.0,0.0,0.0,0.0,0.0,0.0,0.0,0.0,0.0,0.0,0.0,0.0,0.0,0.0,0.0,0.0,0.0,0.0,0.0,0.0,0.0,0.0,0.0,0.0,0.0,0.0,0.0,0.0,0.0,0.0,0.0,0.0,0.0,0.0,0.0,0.0,0.0,0.0,0.0,0.0,0.0,0.0,0.0,0.0,0.0,0.0,0.0,0.0,0.0,0.0,0.0,0.0,0.0,0.0,0.0,0.0,0.0,0.0,0.0,0.0,0.0,0.0,0.0,0.0,0.0,0.0,0.0,0.0,0.0,0.0,0.0,0.0,0.0,0.0,0.0,0.0,0.0,0.0,0.0,0.0,0.0,0.0,0.0,0.0,0.0,0.0,0.0,0.0,0.0,0.0,0.0,0.0,0.0,0.0,0.0,0.0,0.0,0.0,0.0,0.0,0.0,0.0,0.0,0.0,0.0,0.0,0.0,0.0,0.0,0.0,0.0,0.0,0.0,0.0,0.0,0.0,0.0,0.0,0.0,0.0,0.0,0.0,0.0,0.0,0.0,0.0,0.0,0.0,0.0,0.0,0.0,0.0,0.0,0.0,0.0,0.0,0.0,0.0,0.0,0.0,0.0,0.0,0.0,0.0,0.0,0.0,0.0,0.0,0.0,0.0,0.0,0.0,0.0,0.0,0.0,0.0,0.0,0.0,0.0,0.0,0.0,0.0,0.0,0.0,0.0,0.0,0.0,0.0,0.0,0.0,0.0,0.0,0.0,0.0,0.0,0.0,0.0,0.0,0.0,0.0,0.0,0.0,0.0,0.0,0.0,0.0,0.0,0.0,0.0,0.0,0.0,0.0,0.0,0.0,0.0,0.0,0.0,0.0,0.0,0.0,0.0,0.0,0.0,0.0,0.0,0.0,0.0,0.0,0.0,0.0,0.0,0.0,0.0,0.0,0.0,0.0,0.0,0.0,0.0,0.0,0.0,0.0,0.0,0.0,0.0,0.0,0.0,0.0,0.0,0.0,0.0,0.0,0.0,0.0,0.0,0.0,0.0,0.0,0.0,0.0,0.0,0.0,0.0,0.0,0.0,0.0,0.0,0.0,0.0,0.0,0.0,0.0,0.0,0.0,0.0,0.0,0.0,0.0,0.0,0.0,0.0,0.0,0.0,0.0,0.0,0.0,0.0,0.0,0.0,0.0,0.0,0.0,0.0,0.0,0.0,0.0,0.0,0.0,0.0,0.0,0.0,0.0,0.0,0.0,0.0,0.0,0.0,0.0,0.0,0.0,0.0,0.0,0.0,0.0,0.0,0.0,0.0,0.0,0.0,0.0,0.0,0.0,0.0,0.0,0.0,0.0,0.0,0.0,0.0,0.0,0.0,0.0,0.0,0.0,0.0,0.0,0.0,0.0,0.0,0.0,0.0,0.0,0.0,0.0,0.0,0.0,0.0,0.0,0.0,0.0,0.0,0.0,0.0,0.0,0.0,0.0,0.0,0.0,0.0,-2.9602,0.0,0.0,0.0,0.0,0.0,0.0,0.0,0.0,0.0,0.0,0.0,0.0,0.0,0.0,0.0,0.0,0.0,0.0,0.0,0.0,0.0,0.0,0.0,0.0,0.0,0.0,0.0,0.0,0.0,0.0,0.0,0.0,0.0,0.0,0.0,0.0,0.0,0.0,-3.1204,-3.1731,-3.1715,-3.1204,-3.1314,-3.1402,-3.1467,0.0,0.0,0.0,0.0,0.0,0.0,0.0,0.0,0.0,0.0,0.0,0.0,0.0,0.0,0.0,0.0,0.0,0.0,0.0,0.0,0.0,0.0,0.0,0.0,0.0,0.0,0.0,0.0,0.0,0.0,0.0,0.0,0.0,0.0,0.0,0.0,0.0,0.0,0.0,0.0,0.0,0.0,0.0,0.0,0.0,0.0,0.0,0.0,0.0,0.0,0.0,0.0,0.0,0.0,0.0,0.0,0.0,0.0,0.0,0.0,0.0,0.0,0.0,0.0,0.0,0.0,0.0,0.0,0.0,0.0,0.0,-2.9602,0.0,0.0,0.0,0.0,0.0,0.0,0.0,0.0,0.0,0.0,0.0,0.0,0.0,0.0,0.0,0.0,0.0,0.0,0.0,0.0,0.0,0.0,0.0,-2.9643,-2.9896,-2.9896,-2.9896,-2.9896,0.0,0.0,0.0,0.0,0.0,0.0,-3.1444,-3.155,-3.1806,-3.2249,-3.2341,-3.2495,-3.2649,-3.2518,-3.2587,-3.2794,-3.2683,0.0,0.0,0.0,0.0,0.0,0.0,0.0,0.0,0.0,0.0,0.0,0.0,0.0,0.0,0.0,0.0,0.0,0.0,0.0,0.0,0.0,0.0,0.0,0.0,0.0,0.0,0.0,0.0,0.0,0.0,0.0,0.0,0.0,0.0,0.0,0.0,0.0,0.0,0.0,0.0,0.0,0.0,0.0,0.0,0.0,0.0,0.0,0.0,0.0,0.0,0.0,0.0,0.0,0.0,0.0,0.0,0.0,0.0,0.0,0.0,0.0,0.0,0.0,0.0,-2.9602,-2.9602,-2.9715,-2.9771,-2.9771,-2.9883,-2.9813,-2.9602,0.0,0.0,0.0,0.0,0.0,0.0,0.0,0.0,0.0,0.0,0.0,0.0,0.0,0.0,0.0,0.0,0.0,0.0,0.0,0.0,0.0,0.0,-2.9858,-2.9896,-2.9896,-2.9896,-2.9896,-2.9896,0.0,0.0,0.0,0.0,0.0,-3.2059,-3.1983,-3.1985,-3.2043,-3.2066,-3.273,-3.4015,-3.3396,-3.3428,-3.4007,-3.2852,-3.2348,-3.2364,0.0,0.0,0.0,0.0,0.0,0.0,0.0,0.0,0.0,0.0,0.0,0.0,0.0,0.0,0.0,0.0,0.0,0.0,0.0,0.0,0.0,0.0,0.0,0.0,0.0,0.0,0.0,0.0,0.0,0.0,0.0,0.0,0.0,0.0,0.0,0.0,0.0,0.0,0.0,0.0,0.0,-2.8797,-2.9392,0.0,0.0,0.0,0.0,0.0,0.0,0.0,0.0,0.0,0.0,0.0,0.0,0.0,0.0,-2.9602,-2.9602,-2.9602,-2.9602,-2.9602,-2.9602,-2.9631,-3.0119,-3.0371,-3.0399,-3.1007,0.0,-2.9602,-2.9602,0.0,0.0,0.0,0.0,0.0,0.0,0.0,0.0,0.0,0.0,0.0,0.0,0.0,0.0,0.0,0.0,0.0,0.0,0.0,0.0,0.0,-2.9896,-2.9896,-2.9896,-2.9896,-2.9896,-2.9896,-3.0247,0.0,0.0,0.0,-3.1889,-3.269,-3.269,-3.2869,-3.3275,-3.3202,-3.3526,-3.4184,-3.3851,-3.3867,-3.4168,-3.3584,-3.3403,-3.353,-3.3515,0.0,0.0,0.0,0.0,0.0,0.0,0.0,0.0,0.0,0.0,0.0,0.0,0.0,0.0,0.0,0.0,0.0,0.0,0.0,0.0,0.0,0.0,0.0,0.0,0.0,0.0,0.0,0.0,0.0,0.0,0.0,0.0,0.0,0.0,0.0,0.0,0.0,0.0,0.0,-2.9523,-2.9871,-3.0132,-3.0161,-3.0233,0.0,0.0,0.0,0.0,0.0,0.0,0.0,0.0,0.0,-2.9602,-2.9602,-2.9602,-2.9602,-2.9954,-3.0091,-3.0091,-3.0488,-3.067,-3.067,-3.0951,-3.1064,-3.1078,-3.1373,-3.1176,-3.067,-3.067,-3.0825,-3.1064,0.0,0.0,0.0,0.0,0.0,-3.272,0.0,0.0,0.0,0.0,0.0,0.0,0.0,0.0,0.0,0.0,0.0,0.0,-2.9874,-2.9836,-2.9836,-2.988,-2.9896,-2.9961,-3.0156,-3.0613,-3.1066,-3.1438,-3.1996,-3.2611,-3.334,-3.3405,-3.3714,-3.425,-3.4151,-3.4101,-3.4101,-3.4101,-3.4101,-3.4101,-3.4101,-3.4226,-3.4399,-3.4399,-3.4349,-3.425,0.0,0.0,0.0,0.0,0.0,0.0,0.0,0.0,0.0,0.0,0.0,0.0,0.0,0.0,0.0,0.0,0.0,0.0,0.0,0.0,0.0,0.0,0.0,0.0,0.0,0.0,0.0,0.0,0.0,0.0,0.0,0.0,0.0,0.0,0.0,0.0,0.0,-3.0248,-3.0538,-3.0598,-3.0538,-3.0507,0.0,0.0,0.0,0.0,0.0,0.0,-3.0049,-2.9921,-2.9912,-3.008,-3.0094,-3.0094,-3.0094,-3.0544,-3.0769,-3.075,-3.126,-3.1485,-3.1499,-3.1654,-3.1724,-3.1738,-3.1893,-3.1963,-3.1935,-3.1626,-3.1583,-3.1724,-3.1724,-3.1822,-3.1996,-3.2102,-3.2472,-3.3038,0.0,0.0,0.0,0.0,0.0,0.0,0.0,0.0,0.0,0.0,0.0,-2.9598,-2.9874,-2.9665,-2.9621,-2.9896,-2.9896,-3.0172,-3.0807,-3.0888,-3.1519,-3.2919,-3.3016,-3.3356,-3.4036,-3.4036,-3.4068,-3.4126,-3.4101,-3.4101,-3.4101,-3.4101,-3.4101,-3.4101,-3.4101,-3.4101,-3.4126,-3.4126,-3.4126,-3.4126,-3.4126,0.0,0.0,0.0,0.0,0.0,0.0,0.0,0.0,0.0,0.0,0.0,0.0,0.0,0.0,0.0,0.0,0.0,0.0,0.0,0.0,0.0,0.0,0.0,0.0,0.0,0.0,0.0,0.0,0.0,0.0,0.0,0.0,0.0,0.0,0.0,0.0,0.0,0.0,-3.0568,-3.0447,0.0,0.0,0.0,0.0,-2.9839,-2.9808,-3.0077,-3.0733,-3.057,-3.0769,-3.1373,-3.1387,-3.1387,-3.1387,-3.1429,-3.1443,-3.1443,-3.1471,-3.1485,-3.1513,-3.2089,-3.2356,-3.2398,-3.2974,-3.3192,-3.3108,-3.1963,-3.1836,-3.2356,-3.2356,-3.2707,-3.3262,-3.3794,-3.4321,-3.4853,0.0,0.0,0.0,0.0,0.0,0.0,0.0,0.0,-2.977,-2.977,-2.977,-2.9792,-2.988,-2.9814,-2.9792,-2.988,-3.0279,-3.0629,-3.0888,-3.1778,-3.2546,-3.3064,-3.3746,-3.4251,-3.4472,-3.4226,-3.4101,-3.4101,-3.4349,-3.4497,-3.4497,-3.4723,-3.4802,-3.4802,-3.4802,-3.4699,-3.4472,-3.4201,-3.4101,-3.4101,-3.4101,-3.4101,0.0,0.0,0.0,0.0,0.0,0.0,0.0,0.0,0.0,0.0,0.0,0.0,0.0,0.0,0.0,0.0,0.0,0.0,0.0,0.0,0.0,0.0,0.0,0.0,0.0,0.0,0.0,0.0,0.0,0.0,0.0,0.0,0.0,0.0,0.0,0.0,0.0,-3.0387,-3.028,0.0,-3.0111,-3.0437,-3.0572,-3.0432,-3.0732,-3.1007,-3.1232,-3.1181,-3.1429,-3.2061,-3.2075,-3.2272,-3.2665,-3.3059,-3.322,-3.322,-3.3663,-3.3881,-3.3895,-3.4106,-3.4205,-3.4219,-3.4444,-3.4528,-3.45,-3.4064,-3.3508,-3.3002,-3.3002,-3.3094,-3.3312,-3.3507,-3.3928,-3.4409,0.0,0.0,0.0,0.0,0.0,0.0,0.0,0.0,-2.977,-2.977,-2.977,-2.9792,-2.988,-2.9814,-2.9792,-2.988,-3.0522,-3.1047,-3.1411,-3.2472,-3.3267,-3.3616,-3.4178,-3.4497,-3.4497,-3.4226,-3.4101,-3.4101,-3.4374,-3.4497,-3.4497,-3.4706,-3.4826,-3.4826,-3.4826,-3.4723,-3.4472,-3.4226,-3.4101,-3.4101,-3.4101,-3.4101,-3.4052,0.0,0.0,0.0,0.0,0.0,0.0,0.0,0.0,0.0,0.0,0.0,0.0,0.0,0.0,0.0,0.0,0.0,0.0,0.0,0.0,0.0,0.0,0.0,0.0,0.0,0.0,0.0,0.0,0.0,0.0,0.0,0.0,0.0,0.0,0.0,-3.0336,-3.0492,-3.0411,-3.0418,-3.0631,-3.092,-3.1164,-3.1344,-3.1622,-3.1977,-3.2398,-3.2412,-3.2707,-3.3312,-3.3326,-3.3536,-3.3944,-3.4337,-3.4548,-3.4548,-3.4992,-3.5189,-3.5189,-3.5189,-3.5189,-3.5189,-3.5189,-3.5189,-3.5189,-3.5189,-3.4711,-3.3944,-3.3944,-3.3944,-3.3944,-3.3944,-3.4271,-3.4802,0.0,0.0,0.0,0.0,0.0,0.0,0.0,-2.9328,-2.9493,-2.9493,-2.9493,-2.9598,-2.9852,-2.9643,-2.9598,-2.9907,-3.0554,-3.1388,-3.2438,-3.2907,-3.3616,-3.4634,-3.4325,-3.4101,-3.4126,-3.4101,-3.4101,-3.4101,-3.4126,-3.4126,-3.4126,-3.4126,-3.4109,-3.4109,-3.4109,-3.4126,-3.4126,-3.4126,-3.4126,-3.4101,-3.4101,-3.4101,-3.4101,0.0,0.0,0.0,0.0,0.0,0.0,0.0,0.0,0.0,0.0,0.0,0.0,0.0,0.0,0.0,0.0,0.0,0.0,0.0,0.0,0.0,0.0,0.0,0.0,0.0,0.0,0.0,0.0,0.0,0.0,0.0,0.0,0.0,-3.1146,-3.0851,-3.0691,-3.0997,-3.0924,-3.1083,-3.1678,-3.1778,-3.1961,-3.2412,-3.2483,-3.3016,-3.4161,-3.4245,-3.4576,-3.5231,-3.5259,-3.5287,-3.5302,-3.5302,-3.5302,-3.5302,-3.5302,-3.5302,-3.5302,-3.5302,-3.5302,-3.5302,-3.5302,-3.5302,-3.5302,-3.5302,-3.5302,-3.5302,-3.5217,-3.5189,-3.5189,-3.5189,-3.5543,-3.6143,0.0,0.0,0.0,0.0,0.0,0.0,0.0,-2.9198,-2.9425,-2.9236,-2.938,-2.9448,-2.9328,-2.9441,-2.9739,-3.0353,-3.1184,-3.2059,-3.2892,-3.3494,-3.408,-3.4667,-3.4325,-3.4226,-3.4521,-3.425,-3.4101,-3.4101,-3.4399,-3.4546,-3.4546,-3.4778,-3.4897,-3.4897,-3.4897,-3.4771,-3.4546,-3.4546,-3.4374,-3.4101,-3.4101,-3.4101,-3.4101,0.0,0.0,0.0,0.0,0.0,0.0,0.0,0.0,0.0,0.0,0.0,0.0,0.0,0.0,0.0,0.0,0.0,0.0,0.0,0.0,0.0,0.0,0.0,0.0,0.0,0.0,0.0,0.0,0.0,0.0,0.0,0.0,-3.208,-3.1188,-3.0768,-3.0775,-3.1413,-3.1778,-3.203,-3.2185,-3.3016,-3.3586,-3.3683,-3.4155,-3.4584,-3.4922,-3.5358,-3.584,-3.6511,-3.6908,-3.7372,-3.7889,-3.7889,-3.7889,-3.7889,-3.7889,-3.7889,-3.7889,-3.7889,-3.7889,-3.7889,-3.7889,-3.7889,-3.7889,-3.7889,-3.7889,-3.7707,-3.5892,-3.5189,-3.5189,-3.5189,-3.53,-3.5579,0.0,0.0,0.0,0.0,0.0,0.0,0.0,-2.9144,-2.9282,-2.9121,-2.9236,-2.9282,-2.9121,-2.9236,-2.9614,-3.033,-3.1269,-3.2168,-3.2926,-3.3721,-3.425,-3.4448,-3.4226,-3.4201,-3.4448,-3.4226,-3.405,-3.3924,-3.4176,-3.4226,-3.4126,-3.4317,-3.4464,-3.4561,-3.4561,-3.4529,-3.4448,-3.4448,-3.4325,-3.4101,-3.4101,-3.4101,-3.4101,-3.4101,-3.4101,-3.4101,-3.4101,-3.4101,-3.4101,-3.4101,0.0,0.0,0.0,0.0,0.0,0.0,0.0,0.0,0.0,0.0,0.0,0.0,0.0,0.0,0.0,0.0,0.0,0.0,0.0,0.0,0.0,0.0,0.0,0.0,-3.2959,-3.2883,-3.2385,-3.1885,-3.1792,-3.2295,-3.2826,-3.3269,-3.3536,-3.4436,-3.511,-3.5363,-3.5953,-3.6455,-3.6722,-3.7088,-3.7439,-3.7791,-3.8157,-3.8496,-3.8902,-3.8902,-3.8902,-3.8902,-3.8902,-3.8902,-3.8902,-3.8902,-3.8902,0.0,-3.8902,-3.8902,-3.8902,-3.8902,-3.8902,0.0,0.0,0.0,0.0,0.0,-3.675,-3.689,0.0,0.0,0.0,0.0,0.0,0.0,0.0,-2.9029,-2.9052,-2.9006,-2.9029,-2.9052,-2.9006,-2.9029,-2.9351,-3.0116,-3.1022,-3.1942,-3.2803,-3.3703,-3.4126,-3.4,-3.405,-3.405,-3.4,-3.405,-3.3924,-3.3642,-3.3642,-3.3529,-3.3309,-3.3309,-3.345,-3.3694,-3.3684,-3.3797,-3.405,-3.4025,-3.4,-3.4,-3.4,-3.405,-3.4101,-3.4101,-3.4101,-3.4101,-3.4101,-3.4101,-3.4101,-3.4101,0.0,0.0,0.0,0.0,0.0,0.0,0.0,0.0,0.0,0.0,0.0,0.0,0.0,0.0,0.0,0.0,0.0,0.0,0.0,0.0,0.0,0.0,0.0,0.0,-3.2967,-3.3559,-3.4317,-3.3897,-3.3525,-3.3501,-3.409,-3.4759,-3.5344,-3.6019,-3.6652,-3.7147,-3.7695,-3.8257,-3.8874,0.0,0.0,0.0,0.0,-3.9113,-3.9113,-3.9113,-3.9113,-3.9113,-3.9113,-3.9113,-3.9113,-3.9113,-3.9113,-3.9113,-3.9113,-3.9113,-3.9113,-3.9113,-3.9113,-3.9099,-3.8958,-3.8902,-3.8902,-3.8902,-3.8902,0.0,0.0,0.0,0.0,0.0,0.0,0.0,0.0,-2.8653,-2.8724,-2.8565,-2.8692,-2.8724,-2.8565,-2.8692,-2.9295,-3.0554,-3.1054,-3.182,-3.3123,-3.3371,-3.3477,-3.345,-3.3658,-3.3684,-3.345,-3.3684,-3.3658,-3.3372,-3.3372,-3.3346,-3.3309,-3.3309,-3.345,-3.3694,-3.3477,-3.3529,-3.3745,-3.3555,-3.345,-3.345,-3.345,-3.3694,-3.4101,-3.4101,-3.4101,-3.4101,-3.4101,-3.4101,-3.4101,-3.4101,-3.4101,-3.4101,-3.4101,-3.4101,0.0,0.0,0.0,0.0,0.0,0.0,0.0,0.0,0.0,0.0,0.0,0.0,0.0,0.0,0.0,0.0,0.0,0.0,0.0,-3.5431,-3.5393,-3.5424,-3.6178,-3.6278,-3.5891,-3.4953,-3.577,-3.6501,-3.6652,-3.7707,-3.8424,-3.8536,-3.8649,-3.8775,-3.8902,-3.938,0.0,-3.9606,-4.0083,-4.0336,-4.0336,-4.0336,-4.0336,-4.0336,0.0,0.0,-4.0336,-4.0336,-4.0336,-4.0336,-4.0336,-4.0336,-4.0336,-4.0336,-4.0336,-4.0252,-3.9296,-3.8902,-3.8902,-3.8902,-3.8902,-3.8984,0.0,0.0,0.0,0.0,0.0,0.0,0.0,-2.8493,-2.8501,-2.8396,-2.8493,-2.8501,-2.8396,-2.8786,-2.9463,-3.0525,-3.1327,-3.2222,-3.3219,-3.3176,-3.315,-3.3309,-3.3424,-3.345,-3.3309,-3.3424,-3.3388,-3.3096,-3.3096,-3.3016,-3.285,-3.285,-3.3011,-3.3309,-3.315,-3.3256,-3.3503,-3.3346,-3.3309,-3.3309,-3.3309,-3.345,-3.3694,-3.3848,-3.3899,-3.3899,-3.3899,-3.4,-3.4075,-3.3949,-3.4,-3.4101,-3.4101,-3.3892,-3.3646,0.0,0.0,0.0,0.0,0.0,0.0,0.0,0.0,0.0,0.0,0.0,0.0,0.0,0.0,-3.3586,0.0,0.0,-3.5215,-3.5947,-3.6408,-3.6832,-3.7244,-3.7395,-3.7109,-3.6221,-3.688,-3.7569,-3.7932,-3.8818,-3.9366,-3.9366,-3.9606,-3.9788,-3.9788,-4.0083,-4.0238,-4.0238,-4.0533,-4.0702,-4.0702,-4.0702,-4.0702,-4.0702,-4.0702,-4.0702,-4.0702,-4.0702,-4.0702,-4.0702,-4.0702,-4.0702,-4.0702,-4.0702,-4.0702,-4.0631,-4.0027,-3.9788,-3.9788,-3.9788,-3.9788,-3.99,0.0,0.0,0.0,0.0,0.0,0.0,0.0,-2.8411,-2.8411,-2.8411,-2.8411,-2.8411,-2.8411,-2.9012,-2.971,-3.0509,-3.1705,-3.2617,-3.3107,-3.2935,-3.2908,-3.3107,-3.3203,-3.3203,-3.3134,-3.3203,-3.3069,-3.28,-3.28,-3.2648,-3.2398,-3.2398,-3.2578,-3.2897,-3.2843,-3.2962,-3.3229,-3.316,-3.3134,-3.3134,-3.3134,-3.3134,-3.316,-3.345,-3.3581,-3.3633,-3.3633,-3.3797,-3.4,-3.3771,-3.3797,-3.3958,-3.4075,-3.362,-3.3066,-3.3172,-3.3093,0.0,0.0,0.0,0.0,0.0,0.0,0.0,0.0,-3.3925,-3.4176,-3.4067,-3.4434,-3.48,-3.4726,-3.5675,-3.643,-3.623,-3.7322,-3.8217,-3.8165,-3.8326,-3.8227,-3.7631,-3.7962,-3.8468,-3.9029,-3.9606,-3.9957,-3.9957,-4.0421,-4.0702,-4.0702,-4.0702,-4.0702,-4.0702,-4.0702,-4.0702,-4.0702,-4.0702,-4.0702,-4.0702,-4.0702,-4.0702,-4.0702,-4.0702,-4.0702,-4.0702,-4.0702,-4.0702,-4.0702,-4.0702,-4.0787,-4.0859,-4.073,-4.0787,-4.0859,-4.0744,-4.0702,-4.0787,0.0,0.0,0.0,0.0,0.0,0.0,0.0,0.0,-2.8411,-2.8411,-2.8411,-2.8411,-2.8411,-2.9012,-2.992,-3.1166,-3.1967,-3.2425,-3.2508,-3.248,-3.248,-3.2508,-3.28,-3.28,-3.2508,-3.28,-3.2773,-3.2453,-3.2453,-3.2425,-3.2398,-3.2398,-3.2578,-3.2897,-3.2578,-3.2648,-3.2924,-3.2633,-3.2508,-3.2508,-3.2508,-3.2508,-3.2535,-3.2854,-3.3123,-3.3346,-3.3346,-3.3529,-3.3745,-3.3694,-3.3533,-3.3381,-3.3933,-3.3351,-3.2574,-3.3066,-3.2637,-3.2145,-3.2641,-3.3049,-3.3011,-3.1635,-3.2312,-3.3291,0.0,-3.3622,-3.4023,-3.4374,-3.5398,-3.609,-3.5557,-3.6985,-3.8231,-3.8254,-3.934,-4.0016,-3.9571,-4.0024,-4.0168,-3.9561,-3.9535,-3.9606,-3.9676,-4.0238,-4.0603,-4.0603,-4.0659,-4.0702,-4.0702,-4.0702,-4.0702,-4.0702,-4.0702,-4.0702,-4.0702,-4.0702,-4.0702,-4.0702,-4.0702,-4.0702,-4.0702,-4.0702,-4.0702,-4.0702,-4.0702,-4.0702,-4.0702,-4.0702,-4.1071,-4.1535,-4.0944,-4.1071,-4.1535,-4.0901,-4.0702,-4.0787,0.0,0.0,0.0,0.0,0.0,0.0,0.0,0.0,0.0,-2.8411,-2.8411,-2.8411,-2.8411,-2.9341,-3.0366,-3.1332,-3.1997,-3.2398,-3.2398,-3.2398,-3.2398,-3.2398,-3.2523,-3.2551,-3.2398,-3.2551,-3.2551,-3.2398,-3.2398,-3.2398,-3.2398,-3.2398,-3.2453,-3.2594,-3.2453,-3.248,-3.2594,-3.2453,-3.2398,-3.2398,-3.2398,-3.2398,-3.2425,-3.2551,-3.2687,-3.2796,-3.2989,-3.3229,0.0,-3.3282,-3.3049,-3.2895,-3.315,-3.2668,-3.1977,-3.1931,-3.1862,-3.1864,-3.2269,-3.2504,-3.2557,-3.2291,-3.2798,-3.342,-3.3686,-3.4071,-3.4605,-3.5476,-3.6181,-3.6753,-3.7199,-3.8266,-3.9106,0.0,-3.9995,-4.0491,-4.0354,-4.0535,-4.0619,-4.0365,-4.0308,-4.0308,-4.0308,-4.0547,-4.0702,-4.0702,-4.0702,-4.0702,-4.0702,-4.0702,-4.0702,-4.0702,-4.0702,-4.0702,-4.0702,-4.0702,-4.0702,-4.0702,-4.0702,-4.0702,-4.0702,-4.0702,-4.0901,-4.1283,-4.1283,-4.1479,-4.1784,-4.1784,-4.1949,-4.2211,-4.1908,-4.199,-4.2073,-4.1071,-4.0944,-4.1283,0.0,0.0,0.0,0.0,0.0,0.0,0.0,0.0,0.0,0.0,-2.8411,-2.8473,-2.8658,-2.971,-3.0663,-3.132,-3.1997,-3.2398,-3.2398,-3.2398,-3.2398,-3.2398,-3.2398,-3.2398,-3.2398,-3.2398,-3.2398,-3.2398,-3.2398,-3.2398,-3.2398,-3.2398,-3.2398,-3.2398,-3.2398,-3.2398,-3.2398,-3.2398,-3.2398,-3.2398,-3.2398,-3.2398,-3.2398,-3.2398,-3.2398,-3.2425,-3.2676,-3.2935,-3.315,-3.2784,-3.2535,-3.2367,-3.2394,-3.1877,-3.1233,-3.1043,-3.1323,-3.1676,-3.1806,-3.2086,-3.2386,-3.2587,-3.2945,-3.3393,-3.394,-3.442,-3.5065,-3.6285,-3.6768,-3.7274,-3.8144,-3.885,-3.9379,-3.9652,-4.0401,-4.0875,-4.0796,-4.1018,-4.1087,-4.0731,-4.0702,-4.0702,-4.0702,-4.0702,-4.0702,-4.0702,-4.0702,-4.0702,-4.0702,-4.0702,-4.0702,-4.0702,-4.0702,-4.0702,-4.0702,-4.0702,-4.0702,-4.0702,-4.0702,-4.0787,-4.0986,-4.1142,-4.1464,-4.1937,-4.1937,-4.2211,-4.2589,-4.2589,-4.2725,-4.2845,-4.267,-4.2725,-4.2725,-4.1632,-4.1437,-4.1688,0.0,0.0,0.0,0.0,0.0,0.0,0.0,0.0,0.0,0.0,0.0,0.0,0.0,-2.9986,-3.0663,-3.132,-3.1997,-3.2398,-3.2398,-3.2398,-3.2398,-3.2398,-3.2398,-3.2398,-3.2398,-3.2398,-3.2398,-3.2398,-3.2398,-3.2398,-3.2398,-3.2398,-3.2398,-3.2398,-3.2398,-3.2398,-3.2398,-3.2398,-3.2398,-3.2398,-3.2398,-3.2398,-3.2398,-3.2398,-3.2398,-3.2398,-3.2425,-3.2621,-3.2827,-3.2299,-3.1934,-3.1736,-3.189,-3.1116,-3.0249,-3.0837,-3.1246,-3.1451,-3.1296,-3.2026,-3.2662,-3.1772,-3.2245,-3.3105,-3.3851,-3.4422,-3.5137,-3.637,-3.7213,-3.7765,-3.7815,-3.8361,-3.8996,-3.9607,-4.0801,-4.1449,-4.0773,-4.1773,-4.2085,-4.0859,-4.0702,-4.0702,0.0,-4.0702,-4.0702,-4.0702,-4.0702,-4.0702,-4.0702,-4.0702,-4.0702,-4.0702,-4.0702,-4.0702,-4.0702,-4.0702,-4.0702,-4.0702,-4.0702,-4.1029,-4.1688,-4.2278,-4.2548,-4.2548,-4.2548,-4.2589,-4.2589,-4.2589,-4.2966,-4.3512,-4.2845,-4.3006,-4.3512,-4.2805,-4.2155,-4.1854,0.0,0.0,0.0,0.0,0.0,0.0,0.0,0.0,0.0,0.0,0.0,0.0,0.0,0.0,0.0,0.0,-3.1351,-3.1921,-3.2367,-3.2398,-3.2398,-3.2398,-3.2398,-3.2398,-3.2398,-3.2398,-3.2398,-3.2398,-3.2398,-3.2398,-3.2398,-3.2398,-3.2398,-3.2398,-3.2398,-3.2398,-3.2398,-3.2398,-3.2398,-3.2398,-3.2398,-3.2203,-3.1923,-3.1923,-3.1752,-3.148,0.0,-3.1752,-3.2023,-3.1537,-3.1087,-3.0777,-3.0822,-3.0569,-3.0352,-3.0955,-3.1312,-3.1539,-3.1797,-3.2133,-3.2471,-3.2544,-3.3361,-3.4255,-3.4583,-3.5169,-3.5962,-3.7168,-3.7637,-3.8111,-3.8907,-3.9936,-4.074,-4.0919,-4.1331,-4.1583,-4.1408,-4.1336,-4.1184,-4.073,-4.0702,0.0,0.0,0.0,0.0,-4.0702,-4.0702,-4.0702,-4.0702,-4.0702,-4.0702,-4.0702,-4.0702,-4.0702,-4.0702,-4.0702,-4.0702,-4.0702,-4.1156,-4.1493,-4.1729,-4.2319,-4.2845,-4.326,-4.326,-4.3536,-4.3927,-4.3927,-4.4058,-4.4228,-4.402,-4.4043,-4.4228,-4.4004,-4.3536,-4.2941,0.0,0.0,0.0,0.0,0.0,0.0,0.0,0.0,0.0,0.0,0.0,0.0,0.0,0.0,0.0,0.0,0.0,-3.1513,-3.1931,-3.2232,-3.2398,-3.2398,-3.2398,-3.2398,-3.2398,-3.2398,-3.2398,-3.2398,-3.2398,-3.2398,-3.2398,-3.2398,-3.2398,-3.2398,-3.2398,-3.2398,-3.2398,-3.2398,-3.2299,-3.2148,-3.2148,-3.1866,-3.1437,-3.1437,-3.1263,0.0,-3.0822,-3.094,-3.1146,-3.0851,-3.0553,-3.0251,-3.0113,-3.0209,-3.0466,-3.0834,-3.1348,-3.1889,-3.2193,-3.2416,-3.2744,-3.3337,-3.404,-3.4727,-3.5222,-3.5705,-3.6314,-3.7303,-3.7515,-3.7902,-3.8862,-3.9742,-4.0426,-4.086,-4.1127,-4.132,-4.1351,-4.1198,-4.0986,-4.0744,-4.0702,-4.0702,0.0,0.0,0.0,-4.0702,-4.0702,-4.0702,-4.0702,-4.0702,-4.0702,-4.0702,-4.0702,-4.0702,-4.0702,-4.0702,-4.083,-4.1071,-4.1978,-4.2374,-4.2374,-4.3006,-4.3536,-4.3942,-4.3942,-4.4189,-4.461,-4.461,-4.461,-4.461,-4.461,-4.461,-4.461,-4.461,-4.4343,-4.3903,0.0,0.0,0.0,0.0,0.0,0.0,0.0,0.0,0.0,0.0,0.0,0.0,0.0,0.0,0.0,0.0,0.0,0.0,-3.1197,-3.1946,-3.2398,-3.2398,-3.2398,-3.2398,-3.2398,-3.2398,-3.2398,-3.2398,-3.2398,-3.2398,-3.2398,-3.2398,-3.2398,-3.2398,-3.2398,-3.2398,-3.2398,-3.2398,-3.212,-3.171,-3.171,-3.1408,-3.097,-3.097,-3.094,-3.0881,-3.0433,-3.0251,-3.0251,-3.0251,-3.0251,-3.0205,-2.9727,-3.0052,-3.054,-3.054,-3.1471,-3.2455,-3.2455,-3.2904,-3.3473,-3.4062,-3.4245,-3.4586,-3.5733,-3.6068,-3.6297,-3.6808,-3.6968,-3.7215,-3.7777,0.0,-3.8385,-3.9516,-4.0308,-4.0777,-4.0689,-4.1241,-4.1409,0.0,0.0,0.0,0.0,0.0,0.0,-4.0702,0.0,-4.0702,-4.0702,-4.0702,-4.0702,-4.0702,-4.0702,-4.0702,-4.0702,-4.073,-4.1071,-4.1744,-4.2981,-4.3591,-4.363,-4.4305,-4.461,-4.461,-4.461,-4.461,-4.461,-4.461,-4.461,-4.461,-4.461,-4.461,-4.461,-4.461,-4.461,-4.461,0.0,0.0,0.0,0.0,0.0,0.0,0.0,0.0,0.0,0.0,0.0,0.0,0.0,0.0,0.0,0.0,0.0,0.0,-3.1151,-3.1864,-3.2302,-3.2398,-3.2398,-3.2398,-3.2398,-3.2398,-3.2398,-3.2398,-3.2398,-3.2398,-3.2398,-3.2398,-3.2398,-3.2398,-3.2398,-3.2398,-3.2398,-3.2398,-3.212,-3.171,-3.171,-3.1204,-3.0463,-3.0463,-3.0251,-2.9929,-2.982,-2.9789,-2.9789,-2.9789,-2.9789,-2.9758,-2.9634,-3.0361,-3.1246,-3.1246,-3.2117,-3.3087,-3.3087,-3.3501,-3.4006,-3.4161,-3.4927,-3.5719,-3.601,-3.6419,-3.6831,-3.6933,-3.7349,-3.7707,-3.7865,-3.8677,0.0,-3.9713,-4.0365,0.0,-4.0689,-4.0873,0.0,-4.0702,0.0,-4.0702,-4.0702,-4.0702,0.0,0.0,-4.0702,-4.0702,-4.0702,-4.0702,-4.0702,-4.0702,-4.0702,-4.0702,-4.0702,-4.1198,-4.1535,-4.1744,-4.2981,-4.3591,-4.363,-4.4305,-4.461,-4.461,-4.461,-4.461,-4.461,-4.461,-4.461,-4.461,-4.461,-4.461,-4.461,-4.461,-4.461,-4.461,0.0,0.0,0.0,0.0,0.0,0.0,0.0,0.0,0.0,0.0,0.0,0.0,0.0,0.0,0.0,0.0,0.0,0.0,0.0,-3.1326,-3.194,-3.2315,-3.237,-3.2398,-3.2398,-3.2398,-3.2398,-3.2398,-3.2398,-3.2398,-3.2398,-3.2398,-3.2398,-3.2398,-3.2398,-3.2287,-3.2092,-3.2092,-3.1709,0.0,0.0,-3.0643,-2.9991,-2.9991,-2.982,-2.9602,-2.9602,-2.9602,-2.9602,-2.9602,-2.9602,-2.9602,-2.9602,-3.0474,-3.1485,-3.1485,-3.2356,-3.329,-3.329,-3.374,-3.4273,-3.4554,-3.5377,-3.6174,-3.6441,-3.6778,-3.6978,-3.6978,-3.7259,-3.7498,-3.7498,-3.8309,-3.9053,0.0,0.0,0.0,-4.066,-4.0702,-4.0702,0.0,-4.0702,0.0,-4.0702,-4.0702,-4.0702,0.0,-4.0702,-4.0702,-4.0702,-4.0702,-4.0702,-4.0702,-4.0702,-4.0702,-4.0702,-4.1646,-4.2087,-4.2129,-4.3418,-4.402,-4.4058,-4.4419,-4.461,-4.461,0.0,-4.461,-4.461,-4.461,-4.461,-4.461,-4.461,-4.461,-4.461,-4.461,-4.461,-4.461,0.0,0.0,0.0,0.0,0.0,0.0,0.0,0.0,0.0,0.0,0.0,0.0,0.0,0.0,0.0,0.0,0.0,0.0,0.0,0.0,-3.1415,-3.2038,-3.2269,-3.237,-3.2398,-3.2398,-3.2398,-3.2398,-3.2398,-3.2398,-3.2398,-3.2398,-3.2398,-3.2398,-3.2398,-3.2148,-3.171,-3.171,-3.1146,-3.0282,-3.0282,-3.0021,-2.9602,0.0,-2.9602,-2.9602,-2.9602,-2.9602,-2.9602,-2.9602,-2.9602,-2.9602,-2.9602,-3.0474,-3.1485,-3.1485,-3.2356,-3.329,-3.329,-3.3796,-3.4455,-3.5054,-3.57,-3.637,-3.6866,-3.6978,-3.6978,-3.6978,-3.6978,-3.6978,-3.6978,-3.7428,-3.799,-3.8677,0.0,-3.9873,-4.0491,-4.0645,-4.0702,-4.0702,-4.0702,-4.0702,-4.0702,-4.0702,-4.0702,-4.0702,-4.0702,-4.0702,-4.0702,-4.0702,-4.0702,-4.0702,-4.0702,-4.0702,-4.0702,-4.1949,-4.2589,-4.2629,-4.3966,-4.461,-4.461,-4.461,-4.461,-4.461,0.0,0.0,-4.461,-4.461,-4.461,-4.461,-4.461,-4.461,-4.461,-4.461,-4.461,-4.461,0.0,0.0,0.0,0.0,0.0,0.0,0.0,0.0,0.0,0.0,-2.7255,-2.76,0.0,0.0,0.0,0.0,0.0,0.0,0.0,0.0,0.0,-3.1365,-3.1928,-3.2302,-3.2398,-3.2398,-3.2398,-3.2398,-3.2398,-3.2398,-3.2398,-3.2398,-3.2398,-3.2398,-3.2398,-3.2148,-3.171,-3.171,-3.1146,-3.0282,-3.0282,-3.0021,-2.9602,-2.9602,0.0,0.0,-2.9602,-2.9602,-2.9602,-2.9602,-2.9602,-2.9602,-2.9602,-3.0474,-3.1485,-3.1485,-3.2356,-3.329,-3.329,-3.414,-3.5062,-3.5175,-3.6047,-3.6852,-3.6964,-3.6978,-3.6978,-3.6978,-3.6978,-3.6978,-3.6978,-3.7077,-3.7344,-3.7962,-3.8649,-3.9282,-3.9859,-4.0378,-4.0702,0.0,-4.0702,-4.0702,-4.0702,-4.0702,0.0,0.0,0.0,0.0,-4.0702,-4.0702,-4.0702,-4.0702,-4.0702,-4.0702,-4.0702,-4.1949,-4.2589,-4.2629,-4.3966,-4.461,-4.461,-4.461,-4.461,-4.461,0.0,0.0,-4.461,-4.461,-4.461,-4.461,-4.461,-4.461,-4.461,-4.461,-4.461,-4.461,0.0,0.0,0.0,0.0,0.0,0.0,0.0,-2.5216,-2.5701,-2.659,-2.6945,-2.7255,-2.7575,-2.76,-2.76,0.0,0.0,0.0,0.0,0.0,0.0,0.0,-3.1448,-3.1852,-3.2287,-3.2302,-3.2342,-3.2398,0.0,-3.2342,-3.2398,-3.2398,-3.2259,-3.2035,-3.2035,-3.1638,-3.097,-3.097,-3.0583,-2.9943,-2.9943,-2.982,-2.9602,0.0,0.0,0.0,-2.9602,-2.9602,-2.9602,-2.9602,-2.9602,-2.9602,-2.9602,-3.0474,-3.1485,-3.1485,-3.2356,-3.329,-3.329,-3.3986,-3.4674,-3.4674,-3.5602,-3.6539,-3.6539,-3.6539,-3.6539,-3.6539,-3.6286,-3.6174,-3.6483,-3.6539,-3.681,-3.7751,-3.844,-3.9127,-3.9704,-4.0308,-4.0702,-4.0702,-4.0702,-4.0702,-4.0702,-4.0702,0.0,0.0,0.0,0.0,-4.0702,-4.0702,-4.0702,-4.0702,-4.0702,-4.0702,-4.0702,-4.1949,-4.2589,-4.2629,-4.3966,-4.461,-4.461,-4.461,-4.461,-4.461,-4.461,0.0,-4.461,-4.461,-4.461,-4.461,-4.461,-4.461,-4.461,-4.461,-4.461,-4.461,0.0,0.0,0.0,0.0,0.0,0.0,0.0,-2.5216,-2.5674,-2.659,-2.68,-2.7074,-2.7549,-2.76,-2.76,0.0,0.0,0.0,0.0,0.0,0.0,0.0,0.0,0.0,0.0,0.0,0.0,-3.2398,-3.2287,0.0,0.0,0.0,0.0,0.0,-3.171,-3.1175,-3.0282,-3.0282,-3.0021,0.0,0.0,-2.9602,0.0,0.0,0.0,0.0,0.0,-2.9602,-2.9602,-2.9602,-2.9701,-2.9799,-2.9799,-3.0586,-3.1527,-3.164,-3.2469,-3.329,-3.329,-3.374,-3.4203,-3.4203,-3.5068,-3.592,-3.592,-3.592,-3.592,-3.592,-3.5625,-3.5541,-3.6019,-3.6216,-3.661,-3.754,-3.8243,-3.8916,-3.9535,-4.0112,-4.0561,-4.0674,-4.0702,0.0,-4.0702,-4.0702,0.0,0.0,0.0,0.0,-4.0702,-4.0702,-4.0702,-4.0702,-4.0702,-4.0702,-4.0702,-4.2005,-4.2603,-4.2629,-4.3966,-4.461,-4.461,-4.461,-4.461,-4.461,-4.461,0.0,0.0,-4.461,-4.461,-4.461,-4.461,-4.461,-4.461,-4.461,-4.461,-4.461,0.0,0.0,0.0,0.0,0.0,0.0,0.0,-2.5865,-2.6563,-2.6709,-2.7178,-2.7549,-2.76,-2.76,-2.76,0.0,0.0,0.0,0.0,0.0,0.0,0.0,0.0,0.0,0.0,0.0,0.0,-3.2398,0.0,0.0,0.0,0.0,0.0,0.0,0.0,-3.1175,-3.0282,-3.0282,0.0,0.0,0.0,0.0,0.0,0.0,0.0,0.0,0.0,-2.9602,-2.9602,-2.9602,-2.9968,-3.0413,-3.0413,-3.0923,-3.1597,-3.2159,-3.2792,-3.329,-3.329,-3.374,-3.4203,-3.4203,-3.4745,-3.5273,-3.5273,-3.5273,-3.5273,-3.5273,-3.5667,-3.6033,-3.6103,-3.6567,-3.6936,-3.7049,-3.7583,-3.8215,-3.8902,-3.9521,-4.0083,-4.0631,0.0,0.0,-4.0702,-4.0702,0.0,0.0,0.0,0.0,0.0,-4.0702,-4.0702,-4.0702,-4.0702,-4.0702,-4.0702,-4.202,-4.2673,-4.2629,-4.3966,-4.461,-4.461,-4.461,-4.461,-4.461,0.0,0.0,0.0,-4.461,-4.461,-4.461,-4.461,-4.461,-4.461,-4.461,-4.461,-4.461,0.0,0.0,0.0,0.0,0.0,0.0,-2.5005,-2.5674,-2.6149,-2.6149,-2.668,-2.7203,-2.756,-2.76,-2.76,-2.76,0.0,0.0,0.0,0.0,0.0,0.0,0.0,0.0,0.0,0.0,-3.2247,-3.2398,-3.2315,0.0,0.0,0.0,0.0,0.0,0.0,0.0,-3.0282,-2.9991,0.0,0.0,0.0,0.0,0.0,0.0,0.0,0.0,0.0,0.0,-2.9602,-2.9602,-3.001,-3.0554,-3.0979,-3.1541,-3.2089,-3.2328,-3.2848,-3.329,-3.329,-3.3473,-3.3655,-3.3655,-3.414,-3.4604,-3.4604,-3.4604,-3.4702,-3.5119,-3.5054,-3.5194,-3.5977,-3.6314,-3.6595,-3.6922,-3.7498,-3.8131,-3.8818,-3.9436,-4.0013,-4.0631,-4.0702,0.0,0.0,0.0,0.0,0.0,0.0,0.0,0.0,-4.0702,-4.0702,-4.0702,-4.0702,-4.0702,-4.0702,-4.1619,-4.2102,-4.2087,-4.3379,-4.3981,-4.402,-4.4419,-4.461,-4.461,0.0,0.0,0.0,-4.461,-4.461,-4.461,-4.461,-4.461,-4.461,-4.461,-4.461,-4.461,0.0,0.0,0.0,0.0,0.0,-2.5439,-2.5272,-2.5851,-2.6283,-2.6095,-2.6575,-2.7126,-2.7534,-2.76,-2.76,-2.76,-2.76,0.0,0.0,0.0,0.0,0.0,0.0,0.0,0.0,0.0,-3.2135,-3.2342,-3.2302,-3.233,0.0,0.0,0.0,0.0,0.0,0.0,0.0,0.0,0.0,0.0,0.0,0.0,0.0,0.0,0.0,0.0,0.0,0.0,0.0,0.0,0.0,-3.0923,-3.1555,-3.2188,-3.2679,-3.2679,-3.2988,-3.329,-3.329,-3.329,-3.329,-3.329,-3.3613,-3.3922,-3.3922,-3.4062,-3.4329,-3.4801,-3.4829,-3.504,-3.5949,-3.6258,-3.6525,-3.6908,-3.7358,-3.792,-3.879,-3.9282,-3.9802,-4.0603,0.0,0.0,0.0,0.0,0.0,0.0,0.0,0.0,0.0,-4.0702,-4.0702,-4.0702,-4.0702,-4.0702,-4.0702,-4.1367,-4.1688,-4.1744,-4.2981,-4.3591,-4.363,-4.4305,-4.461,-4.461,0.0,0.0,0.0,-4.461,-4.461,-4.461,-4.461,-4.461,-4.461,-4.461,-4.461,-4.461,0.0,0.0,0.0,0.0,0.0,0.0,-2.5864,-2.6811,-2.7357,-2.6774,-2.7229,-2.76,-2.76,-2.76,-2.76,-2.76,-2.76,0.0,0.0,0.0,0.0,0.0,0.0,0.0,0.0,0.0,-3.2191,-3.2191,-3.2342,-3.2398,-3.2398,-3.2398,-3.2148,0.0,0.0,0.0,0.0,0.0,0.0,0.0,0.0,0.0,0.0,0.0,0.0,0.0,0.0,0.0,0.0,0.0,0.0,0.0,0.0,-3.2806,-3.3276,-3.3276,-3.329,-3.329,-3.329,-3.329,-3.329,-3.329,-3.329,-3.329,-3.329,-3.3768,-3.4203,-3.4217,-3.5208,-3.6089,-3.6103,-3.661,-3.6978,-3.6978,-3.6993,-3.7428,-3.8733,-3.8916,-3.9366,0.0,0.0,0.0,0.0,0.0,0.0,0.0,0.0,0.0,0.0,0.0,-4.0702,-4.0702,-4.0702,-4.0702,-4.0702,-4.1367,-4.1688,-4.1744,-4.2981,-4.3591,-4.363,-4.4305,-4.461,0.0,0.0,0.0,0.0,-4.461,-4.461,-4.461,-4.461,-4.461,-4.461,-4.461,-4.461,-4.461,0.0,0.0,0.0,0.0,0.0,0.0,0.0,-2.7086,-2.7382,-2.6788,-2.7229,-2.76,-2.76,-2.76,-2.76,-2.76,-2.76,0.0,0.0,0.0,0.0,0.0,0.0,0.0,0.0,0.0,-3.1787,-3.2342,-3.2064,-3.2092,-3.2398,-3.2064,-3.1838,-3.1682,-3.1204,0.0,0.0,0.0,0.0,0.0,0.0,0.0,0.0,0.0,0.0,0.0,0.0,0.0,0.0,0.0,0.0,0.0,0.0,0.0,0.0,-3.329,-3.329,-3.329,-3.329,-3.329,-3.329,-3.329,-3.329,-3.3403,-3.381,-3.4062,-3.4441,-3.5321,-3.5836,-3.6244,-3.6652,-3.6852,-3.6978,-3.6978,-3.6978,-3.7428,-3.8733,0.0,0.0,-4.0561,-4.0702,0.0,0.0,0.0,0.0,0.0,0.0,0.0,0.0,0.0,-4.0702,-4.0702,-4.0702,-4.0702,-4.0702,-4.0901,-4.1029,-4.1029,-4.2319,-4.2926,-4.2966,-4.4097,0.0,0.0,0.0,0.0,0.0,-4.461,-4.461,-4.461,-4.461,-4.461,-4.4572,-4.4435,-4.4381,-4.4396,0.0,0.0,0.0,0.0,0.0,0.0,0.0,-2.7357,-2.7473,-2.71,-2.7357,-2.76,-2.76,-2.76,-2.76,-2.76,-2.76,0.0,0.0,0.0,0.0,0.0,0.0,0.0,-3.0053,-3.0819,-3.1573,-3.2315,-3.2092,-3.2035,-3.2148,-3.2007,-3.1866,-3.1682,-3.1204,-3.0851,0.0,0.0,0.0,0.0,0.0,0.0,-2.9602,0.0,0.0,0.0,0.0,0.0,0.0,0.0,0.0,0.0,0.0,0.0,0.0,0.0,-3.329,-3.329,-3.329,-3.329,-3.329,-3.329,-3.3459,-3.374,-3.4104,-3.4554,-3.5138,-3.5949,-3.6286,-3.6567,-3.6908,-3.6978,-3.6978,-3.6978,-3.6978,-3.7428,-3.8733,0.0,0.0,-4.0561,0.0,0.0,0.0,0.0,0.0,0.0,0.0,0.0,0.0,0.0,-4.0702,-4.0702,-4.0702,-4.0702,-4.0702,-4.0702,-4.0702,-4.0702,-4.2005,-4.2603,-4.2644,-4.4004,0.0,0.0,0.0,0.0,0.0,-4.4396,-4.4358,-4.4358,-4.4358,-4.4358,-4.4358,-4.4243,-4.4166,-4.4166,0.0,0.0,0.0,0.0,0.0,0.0,0.0,-2.76,-2.76,-2.76,-2.76,-2.76,-2.76,-2.76,-2.76,-2.76,0.0,0.0,0.0,0.0,0.0,0.0,0.0,0.0,-3.0173,-3.08,-3.15,-3.2219,-3.2315,-3.2148,-3.1768,-3.212,-3.2092,-3.1682,-3.1175,-3.094,0.0,0.0,0.0,0.0,0.0,0.0,0.0,0.0,0.0,0.0,0.0,0.0,0.0,0.0,0.0,0.0,0.0,0.0,0.0,0.0,0.0,0.0,0.0,-3.329,-3.329,-3.329,-3.374,-3.4217,-3.4259,-3.5222,0.0,-3.6174,-3.6624,-3.6978,-3.6978,-3.6978,-3.6978,-3.6978,-3.6978,-3.7428,0.0,-3.8986,0.0,0.0,0.0,0.0,0.0,0.0,0.0,0.0,0.0,0.0,0.0,0.0,0.0,-4.0702,-4.0702,-4.0702,-4.0702,-4.0702,-4.0702,-4.0702,-4.2034,-4.2633,-4.2629,-4.3927,0.0,0.0,0.0,0.0,0.0,-4.4089,-4.3988,-4.3988,-4.3988,-4.3988,-4.3988,-4.3988,-4.3988,-4.3988,0.0,0.0,0.0,0.0,0.0,0.0,0.0,0.0,0.0,0.0,-2.76,-2.76,-2.76,-2.76,-2.76,0.0,0.0,0.0,0.0,0.0,0.0,0.0,0.0,0.0,-3.0011,-3.0409,-3.1175,-3.2342,-3.2007,-3.1979,-3.2231,-3.1623,-3.1466,-3.1667,-3.0822,-3.0266,0.0,0.0,0.0,0.0,0.0,0.0,0.0,0.0,0.0,0.0,-2.9602,-3.001,0.0,0.0,0.0,0.0,0.0,0.0,0.0,0.0,-3.329,-3.329,-3.329,0.0,-3.329,-3.329,-3.374,-3.4329,0.0,-3.5569,-3.6244,-3.6708,-3.688,-3.6978,-3.6978,-3.6978,-3.6978,-3.6978,-3.6978,-3.7428,-3.8733,0.0,0.0,0.0,0.0,0.0,0.0,0.0,0.0,0.0,0.0,0.0,0.0,0.0,0.0,-4.0702,-4.0702,-4.0702,-4.0702,-4.0702,-4.0702,-4.0702,-4.1535,-4.217,-4.2629,-4.3457,0.0,0.0,0.0,0.0,-4.4281,-4.4089,-4.3988,-4.3988,-4.3988,-4.3988,-4.3988,-4.3847,-4.3769,-4.3729,0.0,0.0,0.0,0.0,0.0,0.0,0.0,0.0,0.0,0.0,0.0,-2.76,-2.76,-2.76,0.0,0.0,0.0,0.0,0.0,0.0,0.0,0.0,0.0,-2.8677,-3.0158,-3.0334,-3.1074,-3.2398,-3.2148,-3.2035,-3.2064,-3.1766,-3.1652,-3.1682,-3.094,-3.0235,0.0,0.0,0.0,0.0,-2.9602,0.0,0.0,0.0,0.0,0.0,-2.9926,-3.0431,0.0,-3.1696,-3.2314,-3.289,0.0,0.0,0.0,0.0,-3.3472,-3.3347,-3.3597,-3.3486,-3.329,-3.329,-3.3986,-3.4745,-3.5119,-3.5878,-3.6624,-3.6908,-3.6978,-3.6978,-3.6978,-3.6978,-3.6978,-3.6978,-3.7217,0.0,0.0,0.0,0.0,0.0,0.0,0.0,0.0,0.0,0.0,0.0,0.0,0.0,0.0,0.0,0.0,0.0,-4.0702,-4.0702,-4.0702,-4.0702,-4.0702,-4.0702,-4.1367,-4.1757,-4.1893,-4.2966,0.0,0.0,0.0,0.0,-4.4026,-4.3778,-4.366,-4.366,-4.366,-4.366,-4.366,-4.3557,-4.3265,-4.289,0.0,0.0,0.0,0.0,0.0,0.0,0.0,0.0,0.0,0.0,0.0,0.0,0.0,0.0,0.0,0.0,0.0,0.0,0.0,0.0,0.0,0.0,-2.7995,-2.8728,-3.033,-3.0402,-3.1074,-3.2398,-3.2398,-3.2203,-3.1809,-3.2148,-3.2035,-3.1581,-3.1175,-3.0523,0.0,0.0,0.0,0.0,-2.9665,0.0,0.0,0.0,0.0,0.0,0.0,0.0,0.0,-3.2202,-3.284,-3.3417,-3.3326,0.0,0.0,0.0,0.0,0.0,-3.3948,-3.3756,-3.3417,-3.3312,-3.4253,-3.5189,-3.5189,-3.6131,-3.6978,-3.6978,-3.6978,-3.6978,-3.6978,-3.6978,-3.6978,0.0,0.0,0.0,0.0,0.0,0.0,0.0,0.0,0.0,0.0,0.0,0.0,0.0,0.0,0.0,0.0,0.0,0.0,0.0,-4.0616,-4.0616,-4.0616,-4.0659,-4.0659,-4.0616,-4.1184,-4.1269,-4.0958,-4.2263,0.0,0.0,0.0,0.0,-4.325,-4.2996,-4.29,-4.29,-4.29,-4.2996,-4.3076,-4.3076,-4.2714,-4.2155,0.0,0.0,0.0,0.0,0.0,0.0,0.0,0.0,0.0,0.0,0.0,0.0,0.0,0.0,0.0,0.0,0.0,0.0,0.0,0.0,0.0,-2.798,-2.7995,-2.8703,-3.0184,-3.0334,-3.1074,-3.2398,-3.2398,-3.237,-3.2287,-3.1951,-3.1552,-3.1117,-3.1029,-3.0703,-3.019,-3.019,-2.996,-2.9634,-3.0021,0.0,0.0,0.0,0.0,0.0,0.0,0.0,0.0,-3.2202,-3.3087,-3.3894,-3.3437,0.0,0.0,0.0,0.0,0.0,-3.3948,-3.4051,-3.3859,-3.3417,-3.4253,-3.5189,-3.5189,-3.6131,-3.6978,-3.6978,-3.6978,-3.6978,-3.6978,-3.6978,-3.6978,0.0,0.0,0.0,0.0,0.0,0.0,0.0,0.0,0.0,0.0,0.0,0.0,0.0,0.0,0.0,0.0,0.0,0.0,0.0,0.0,-4.0126,-4.0126,-4.0487,-4.0487,-4.0126,-4.0213,-4.0329,-4.0431,-4.0631,-4.1014,0.0,0.0,-4.1322,-4.1322,-4.1099,-4.1014,-4.1014,-4.1014,-4.1505,-4.2211,-4.2211,-4.2578,-4.286,0.0,0.0,0.0,0.0,0.0,0.0,0.0,0.0,0.0,0.0,0.0,0.0,0.0,0.0,0.0,0.0,0.0,0.0,0.0,0.0,-2.7715,-2.798,-2.7995,-2.8728,-3.0278,-3.036,-3.1074,-3.2398,-3.2398,-3.2398,-3.2398,-3.2176,-3.1838,-3.1379,-3.1117,-3.0881,-3.0673,-3.0403,-3.0312,-3.0342,0.0,0.0,0.0,0.0,0.0,0.0,0.0,0.0,0.0,0.0,-3.3922,-3.4119,-3.4167,0.0,0.0,0.0,0.0,0.0,-3.4758,-3.4543,-3.4051,-3.3791,-3.4419,-3.5174,-3.553,-3.6104,-3.6624,-3.6908,-3.6978,-3.6978,-3.6978,-3.6978,-3.7242,-3.7892,0.0,0.0,0.0,0.0,0.0,0.0,0.0,0.0,0.0,0.0,0.0,0.0,0.0,0.0,0.0,0.0,0.0,0.0,0.0,-3.9996,-3.9996,-3.9952,-3.9821,-3.9601,-3.9601,-3.9557,-3.9411,-3.9853,-4.0116,-4.0161,0.0,-4.0746,-4.0746,-4.0632,-4.0603,-4.0603,-4.0603,-4.0859,-4.1254,-4.1254,-4.1505,-4.1657,0.0,0.0,0.0,0.0,0.0,0.0,0.0,0.0,0.0,0.0,0.0,0.0,0.0,0.0,0.0,0.0,0.0,0.0,0.0,-2.7625,-2.7765,-2.798,-2.8029,-2.8793,-3.0371,-3.0402,-3.1074,-3.2398,-3.2398,-3.2398,-3.2398,-3.2398,-3.2203,-3.1838,-3.1379,-3.1175,-3.1146,-3.0792,-3.0762,-3.097,0.0,0.0,0.0,0.0,0.0,0.0,0.0,0.0,0.0,0.0,0.0,0.0,0.0,0.0,0.0,-3.5591,-3.4942,-3.4341,-3.5415,-3.5023,-3.4317,-3.4462,-3.488,-3.5345,-3.5705,-3.6065,-3.6455,-3.688,-3.6978,-3.6978,-3.6978,-3.7105,0.0,-3.8733,0.0,0.0,0.0,0.0,0.0,0.0,0.0,0.0,0.0,0.0,0.0,0.0,0.0,0.0,0.0,0.0,0.0,0.0,-4.0083,-3.9777,-3.9645,-3.9216,-3.9038,-3.9127,-3.9127,-3.8904,-3.8466,-3.9118,-3.9224,-3.8926,-3.9664,-3.997,-3.997,-3.997,-3.997,-3.997,-3.997,-4.0087,-4.0289,-4.0504,-4.0461,-4.0159,0.0,0.0,0.0,0.0,0.0,0.0,0.0,0.0,0.0,0.0,0.0,0.0,0.0,0.0,0.0,0.0,0.0,0.0,0.0,-2.7715,-2.784,-2.798,-2.8128,-2.8878,-3.0371,-3.0402,-3.1074,-3.2398,-3.2398,-3.2398,-3.2398,-3.2398,-3.2398,-3.2342,-3.1866,-3.1653,-3.1653,-3.161,-3.1379,-3.1029,-3.1437,0.0,0.0,0.0,0.0,0.0,0.0,0.0,0.0,0.0,0.0,0.0,0.0,0.0,-3.5655,-3.5688,-3.4942,-3.4341,-3.5415,-3.5285,-3.499,-3.556,-3.579,-3.5798,-3.5359,-3.6141,-3.6936,-3.6978,-3.6978,-3.6978,-3.6978,-3.7456,-3.806,-3.879,0.0,0.0,0.0,0.0,0.0,0.0,0.0,0.0,0.0,0.0,0.0,0.0,0.0,0.0,0.0,0.0,0.0,0.0,0.0,-3.9127,-3.8692,-3.8253,-3.8207,-3.8647,-3.8647,-3.8389,-3.7946,-3.8024,-3.8024,-3.7992,-3.807,-3.807,-3.807,-3.807,-3.807,-3.807,-3.807,-3.8607,-3.9417,-4.0289,-4.0029,-3.9285,0.0,0.0,0.0,0.0,0.0,0.0,0.0,0.0,0.0,0.0,0.0,0.0,0.0,0.0,0.0,0.0,0.0,0.0,0.0,-2.7765,-2.789,-2.8113,-2.8162,-2.8903,-3.0371,-3.0402,-3.1074,-3.2398,-3.2398,-3.2398,-3.2398,-3.2398,-3.2398,-3.237,-3.1894,-3.1866,-3.212,-3.1809,-3.1781,-3.1851,-3.1752,-3.1581,0.0,0.0,0.0,0.0,0.0,0.0,0.0,0.0,-3.5655,-3.5688,-3.5623,-3.5847,-3.6195,-3.6195,-3.5688,-3.5252,-3.599,-3.5816,-3.5466,-3.572,-3.6128,-3.6395,-3.6284,-3.633,-3.6567,-3.6908,-3.6978,-3.7091,-3.7484,0.0,-3.8243,0.0,0.0,0.0,0.0,0.0,0.0,0.0,0.0,0.0,0.0,0.0,0.0,0.0,0.0,0.0,0.0,0.0,0.0,0.0,0.0,-3.8782,-3.8602,-3.8116,-3.7992,-3.8161,-3.8161,-3.8083,-3.79,-3.79,-3.79,-3.79,-3.79,-3.79,-3.79,-3.79,-3.79,-3.79,-3.79,-3.8103,-3.8517,-3.9387,-3.9505,-3.921,0.0,0.0,0.0,0.0,0.0,0.0,0.0,0.0,0.0,0.0,0.0,0.0,0.0,0.0,0.0,0.0,0.0,0.0,-2.779,-2.784,-2.7965,-2.8186,-2.8235,-2.8928,-3.0371,-3.0402,-3.1074,-3.2398,-3.2398,-3.2398,-3.2398,-3.2398,-3.2398,-3.2398,-3.2064,-3.2092,-3.237,-3.2064,-3.212,-3.237,-3.2064,-3.1923,0.0,0.0,0.0,0.0,0.0,0.0,0.0,0.0,-3.6116,-3.599,-3.6195,-3.6352,-3.6492,-3.6492,-3.6116,-3.5816,-3.6352,-3.6116,-3.5774,-3.5989,-3.6241,-3.6509,-3.6822,-3.6623,-3.6549,-3.7165,-3.7134,-3.7119,-3.754,-3.7934,0.0,0.0,0.0,0.0,0.0,0.0,0.0,0.0,0.0,0.0,0.0,0.0,0.0,0.0,0.0,0.0,0.0,0.0,0.0,0.0,0.0,0.0,-3.8389,-3.8083,-3.79,-3.79,-3.79,-3.79,-3.79,-3.79,-3.79,-3.79,-3.79,-3.79,-3.79,-3.79,-3.79,-3.79,-3.79,-3.79,-3.7992,-3.8549,-3.8792,-3.8792,0.0,0.0,0.0,0.0,0.0,0.0,0.0,0.0,0.0,0.0,0.0,0.0,0.0,0.0,0.0,0.0,0.0,0.0,-2.7815,-2.793,-2.8054,-2.8186,-2.8323,-2.9042,-3.0371,-3.0402,-3.1089,-3.2398,-3.2398,-3.2398,-3.2398,-3.2398,-3.2398,-3.2398,-3.2398,-3.2398,-3.2398,-3.2398,-3.2398,-3.2398,-3.2398,-3.2398,-3.2342,0.0,0.0,0.0,0.0,0.0,0.0,0.0,-3.6053,-3.6429,-3.5894,-3.6085,-3.6492,-3.6492,-3.6116,-3.5816,-3.6352,-3.6116,-3.5838,-3.6436,-3.6186,-3.5981,-3.6743,-3.6935,-3.7159,-3.7772,-3.7404,-3.6978,-3.6993,-3.8058,0.0,0.0,0.0,0.0,0.0,0.0,0.0,0.0,0.0,0.0,0.0,0.0,0.0,0.0,0.0,0.0,0.0,0.0,0.0,0.0,0.0,0.0,-3.79,-3.79,-3.79,-3.79,-3.79,-3.79,-3.79,-3.79,-3.79,-3.79,-3.79,-3.79,-3.79,-3.79,-3.79,-3.79,-3.79,-3.79,-3.79,-3.79,-3.79,-3.79,0.0,0.0,0.0,0.0,0.0,0.0,0.0,0.0,0.0,0.0,0.0,0.0,0.0,0.0,0.0,0.0,0.0,0.0,-2.8088,-2.8113,-2.8201,-2.8323,-2.8372,-2.9042,-3.0371,-3.1336,-3.1997,-3.2398,-3.2398,-3.2398,-3.2398,-3.2398,-3.2398,-3.2398,-3.2398,-3.2398,-3.2398,-3.2398,-3.2398,-3.2398,-3.2398,-3.2398,-3.2398,0.0,0.0,0.0,0.0,0.0,0.0,0.0,0.0,0.0,-3.632,-3.6352,-3.6492,-3.6492,-3.6398,-3.6289,-3.646,-3.6383,-3.6316,-3.6534,-3.6186,-3.607,-3.7154,-3.6859,-3.6535,-3.7165,-3.7134,-3.7119,-3.754,-3.8354,0.0,0.0,0.0,0.0,0.0,0.0,0.0,0.0,0.0,0.0,0.0,0.0,0.0,0.0,0.0,0.0,0.0,0.0,0.0,0.0,0.0,0.0,-3.79,-3.79,-3.79,-3.79,-3.79,-3.79,-3.79,-3.79,-3.79,-3.79,-3.79,-3.79,-3.79,-3.79,-3.79,-3.79,-3.79,-3.79,-3.79,-3.79,-3.79,-3.79,0.0,0.0,0.0,0.0,0.0,0.0,0.0,0.0,0.0,0.0,-2.765,-2.7765,0.0,0.0,0.0,0.0,0.0,0.0,0.0,-2.821,-2.8259,-2.8387,-2.8411,-2.9042,-3.0371,-3.172,-3.2398,-3.2398,-3.2398,-3.2398,-3.2398,-3.2398,-3.2398,-3.2398,-3.2398,-3.2398,-3.2398,-3.2398,-3.2398,-3.2398,-3.2398,-3.2398,-3.2428,0.0,0.0,0.0,0.0,0.0,0.0,0.0,0.0,0.0,-3.6492,-3.6492,-3.6492,-3.6492,-3.6492,-3.6492,-3.6492,-3.6492,-3.6521,-3.6555,-3.6013,-3.5667,-3.6476,-3.6729,-3.6839,-3.6968,-3.6978,-3.7091,-3.747,-3.806,0.0,0.0,0.0,0.0,0.0,0.0,0.0,0.0,0.0,0.0,0.0,0.0,0.0,0.0,0.0,0.0,0.0,0.0,0.0,0.0,0.0,0.0,-3.79,-3.79,-3.79,-3.79,-3.79,-3.79,-3.79,-3.79,-3.79,-3.79,-3.79,-3.79,-3.79,-3.79,-3.79,-3.79,-3.79,-3.79,-3.79,-3.79,-3.79,-3.79,0.0,0.0,0.0,0.0,0.0,0.0,0.0,0.0,0.0,0.0,-2.7715,-2.784,0.0,0.0,0.0,0.0,0.0,0.0,0.0,-2.821,-2.8259,-2.8387,-2.8519,-2.9166,-3.0371,-3.172,-3.2398,-3.2398,-3.2398,-3.2398,-3.2398,-3.2398,-3.2398,-3.2398,-3.2398,-3.2398,-3.2398,-3.2398,-3.2398,-3.2398,-3.2398,-3.2398,-3.2459,-3.3136,0.0,0.0,0.0,0.0,0.0,0.0,0.0,0.0,-3.6492,-3.6492,-3.6492,-3.6492,-3.6492,-3.6492,-3.6492,-3.6492,-3.6492,-3.6492,-3.572,-3.5014,-3.5149,-3.6446,-3.7529,-3.7109,-3.6978,-3.6978,-3.6978,0.0,0.0,0.0,0.0,0.0,0.0,0.0,0.0,0.0,0.0,0.0,0.0,0.0,0.0,0.0,0.0,0.0,0.0,0.0,0.0,0.0,0.0,0.0,-3.79,-3.79,-3.79,0.0,-3.79,-3.79,-3.79,-3.79,-3.79,-3.79,-3.79,-3.79,-3.79,-3.79,-3.79,-3.79,-3.79,-3.79,-3.79,-3.79,-3.79,-3.79,0.0,0.0,0.0,0.0,0.0,0.0,0.0,0.0,0.0,0.0,0.0,0.0,0.0,0.0,0.0,0.0,0.0,0.0,0.0,-2.8348,-2.8372,-2.8411,-2.9402,-3.0094,-3.0386,-3.172,-3.2398,-3.2398,-3.2398,-3.2398,-3.2398,-3.2398,-3.2398,-3.2398,-3.2398,-3.2398,-3.2398,-3.2398,-3.2398,-3.2398,-3.2398,-3.2398,-3.2459,-3.3136,-3.3844,0.0,0.0,0.0,0.0,0.0,0.0,0.0,-3.6492,-3.6492,-3.6492,-3.6492,-3.6492,-3.6492,-3.6492,-3.6492,-3.6492,-3.6492,-3.6022,-3.5462,-3.5258,-3.5825,-3.6496,-3.6908,-3.6978,-3.6978,-3.6978,0.0,0.0,0.0,0.0,0.0,0.0,0.0,0.0,0.0,0.0,0.0,0.0,0.0,0.0,0.0,0.0,0.0,0.0,0.0,0.0,0.0,0.0,-3.79,-3.79,-3.79,-3.79,0.0,-3.79,-3.79,-3.79,-3.79,-3.79,-3.79,-3.79,-3.79,-3.79,-3.79,-3.79,-3.79,-3.79,-3.79,-3.79,-3.79,-3.79,-3.79,0.0,0.0,0.0,0.0,0.0,0.0,0.0,0.0,0.0,0.0,0.0,0.0,0.0,0.0,0.0,0.0,0.0,0.0,0.0,0.0,-2.855,-2.8873,-2.9848,-3.054,-3.0874,-3.1874,-3.2398,-3.2398,-3.2398,-3.2398,-3.2398,-3.2398,-3.2398,-3.2398,-3.2398,-3.2398,-3.2398,-3.2398,-3.2398,-3.2398,-3.2398,-3.2582,-3.2952,-3.3644,-3.4352,-3.5075,-3.5752,0.0,0.0,0.0,0.0,0.0,0.0,0.0,-3.6492,-3.6492,-3.6492,-3.6492,-3.6492,-3.6492,-3.6429,-3.6195,-3.5926,-3.5586,-3.5203,-3.5568,-3.6092,-3.6499,-3.6782,-3.6978,0.0,0.0,0.0,0.0,0.0,0.0,0.0,0.0,0.0,0.0,0.0,0.0,0.0,0.0,0.0,0.0,0.0,0.0,0.0,0.0,0.0,0.0,-3.79,-3.79,-3.79,-3.79,-3.79,-3.79,-3.79,-3.79,-3.79,-3.79,-3.79,-3.79,-3.79,-3.79,-3.79,-3.79,-3.79,-3.79,-3.79,-3.79,-3.79,-3.79,-3.79,-3.79,0.0,0.0,0.0,0.0,0.0,0.0,0.0,0.0,0.0,0.0,0.0,0.0,0.0,0.0,0.0,0.0,0.0,0.0,0.0,0.0,0.0,-2.9356,-3.0033,-3.072,-3.1393,-3.2044,-3.2398,-3.2398,-3.2398,-3.2398,-3.2398,-3.2398,-3.2398,-3.2398,-3.2398,-3.2398,-3.2398,-3.2398,-3.2398,-3.2398,-3.2521,-3.2906,-3.349,-3.4366,-3.5028,-3.5598,-3.6245,-3.6492,-3.6492,-3.6492,0.0,0.0,0.0,0.0,-3.6492,-3.6492,-3.6492,-3.6492,-3.6492,-3.6492,-3.6352,-3.5816,-3.5623,-3.5448,-3.5085,-3.5346,-3.5768,-3.6024,-3.6595,0.0,0.0,0.0,0.0,0.0,0.0,0.0,0.0,0.0,0.0,0.0,0.0,0.0,0.0,0.0,0.0,0.0,0.0,0.0,0.0,0.0,-3.79,-3.79,-3.79,-3.79,-3.79,-3.79,-3.79,-3.79,-3.79,-3.79,-3.79,-3.79,-3.79,-3.79,-3.79,-3.79,-3.79,-3.79,-3.79,-3.79,-3.79,-3.79,-3.79,-3.79,-3.79,-3.79,0.0,0.0,0.0,0.0,0.0,0.0,0.0,0.0,0.0,0.0,-2.8079,-2.8162,0.0,0.0,0.0,0.0,0.0,0.0,0.0,0.0,0.0,-2.9356,-3.0033,-3.072,-3.1393,-3.2044,-3.2398,-3.2398,-3.2398,-3.2398,-3.2398,-3.2398,-3.2398,-3.2398,-3.2398,-3.2398,-3.2398,-3.2398,-3.2398,-3.2444,-3.3029,-3.3321,-3.3537,-3.4845,-3.5429,-3.5598,-3.6245,-3.6492,-3.6492,-3.6492,-3.6492,0.0,0.0,0.0,-3.6492,-3.6492,-3.6492,-3.6492,-3.6492,-3.6492,-3.6352,-3.5816,-3.535,-3.5019,-3.5016,-3.4718,-3.4761,0.0,0.0,0.0,0.0,0.0,0.0,0.0,0.0,0.0,0.0,0.0,0.0,0.0,0.0,0.0,0.0,0.0,0.0,0.0,0.0,0.0,0.0,-3.79,-3.79,-3.79,-3.79,-3.79,-3.79,-3.79,-3.79,-3.79,-3.79,-3.79,-3.79,-3.79,-3.79,-3.79,-3.79,-3.79,-3.79,-3.79,-3.79,-3.79,-3.79,-3.79,-3.79,-3.79,-3.79,-3.79,0.0,0.0,0.0,0.0,0.0,0.0,0.0,0.0,0.0,0.0,0.0,-2.8128,0.0,0.0,0.0,0.0,0.0,0.0,0.0,0.0,0.0,-2.9925,-3.0612,-3.1274,-3.1936,-3.2244,-3.2398,-3.2398,-3.2398,-3.2398,-3.2398,-3.2398,-3.2398,-3.2398,-3.2398,-3.2398,-3.2398,-3.2398,-3.2613,-3.2982,-3.329,-3.3875,-3.4629,-3.5245,-3.5722,-3.6091,-3.6384,-3.6492,-3.6492,-3.6492,-3.6492,-3.6492,-3.6492,0.0,0.0,0.0,-3.6492,-3.6492,-3.6492,-3.6492,-3.6445,-3.6226,-3.5752,-3.5294,-3.4995,-3.4811,-3.4711,0.0,0.0,0.0,0.0,0.0,0.0,0.0,0.0,0.0,0.0,0.0,0.0,0.0,0.0,0.0,0.0,0.0,0.0,0.0,0.0,0.0,-3.79,-3.79,-3.79,-3.79,-3.79,0.0,-3.79,-3.79,-3.79,-3.79,-3.79,-3.79,-3.79,-3.79,-3.79,-3.79,-3.79,-3.79,-3.79,-3.79,-3.79,-3.79,-3.79,-3.79,-3.79,-3.79,-3.79,-3.79,0.0,0.0,0.0,0.0,0.0,0.0,0.0,0.0,0.0,0.0,0.0,0.0,0.0,0.0,0.0,0.0,0.0,0.0,0.0,0.0,0.0,-3.0602,-3.112,-3.1705,-3.2382,-3.2398,-3.2398,-3.2398,-3.2398,-3.2398,-3.2398,-3.2398,-3.2398,-3.2398,-3.2398,-3.2398,-3.2398,-3.2398,-3.2782,-3.3413,-3.3598,-3.4398,-3.5537,-3.5706,-3.6045,-3.6492,-3.6492,-3.6492,-3.6492,-3.6492,-3.6492,-3.6492,-3.6492,-3.6492,0.0,0.0,0.0,-3.646,-3.632,-3.6398,-3.646,-3.632,-3.599,-3.5544,-3.4909,0.0,-3.4624,0.0,0.0,0.0,0.0,0.0,0.0,0.0,0.0,0.0,0.0,0.0,0.0,0.0,0.0,0.0,0.0,0.0,0.0,0.0,0.0,0.0,-3.79,-3.79,-3.79,-3.79,-3.79,-3.79,-3.79,-3.79,-3.79,-3.79,-3.79,-3.79,-3.79,-3.79,-3.79,-3.79,-3.79,-3.79,-3.79,-3.79,-3.79,-3.79,-3.79,-3.79,-3.79,-3.79,-3.79,-3.79,0.0,0.0,0.0,0.0,0.0,0.0,0.0,0.0,0.0,0.0,0.0,0.0,-2.8387,-2.8411,-2.8411,-2.8411,-2.8411,-2.8673,-2.9294,-2.9371,-2.9981,-3.1274,-3.1366,0.0,-3.2382,-3.2398,-3.2398,-3.2398,-3.2398,-3.2398,-3.2398,-3.2398,-3.2398,-3.2398,-3.2398,-3.2398,-3.2398,-3.2398,-3.2782,-3.346,-3.4166,-3.4874,-3.5553,-3.6199,-3.6461,-3.6492,-3.6492,-3.6492,-3.6492,-3.6492,-3.6492,-3.6492,-3.6492,-3.6492,-3.6492,0.0,0.0,0.0,-3.5894,-3.6116,-3.6398,-3.5847,-3.572,-3.5447,0.0,0.0,0.0,0.0,0.0,0.0,0.0,0.0,0.0,0.0,0.0,0.0,0.0,0.0,0.0,0.0,0.0,0.0,0.0,0.0,0.0,0.0,0.0,0.0,-3.79,-3.79,-3.79,-3.79,-3.79,-3.79,-3.79,-3.79,-3.79,-3.79,-3.79,-3.79,-3.79,-3.79,-3.79,-3.79,-3.79,-3.79,-3.79,-3.79,-3.79,-3.79,-3.79,-3.79,-3.79,-3.79,-3.79,-3.79,0.0,0.0,0.0,0.0,0.0,0.0,0.0,0.0,0.0,0.0,0.0,0.0,0.0,-2.8259,-2.8323,-2.8387,-2.8796,-2.9335,-3.0002,-3.0443,-3.0889,-3.1393,-3.1797,-3.2136,-3.2382,-3.2398,-3.2398,-3.2398,-3.2398,-3.2398,-3.2398,-3.2398,-3.2398,-3.2398,-3.2398,-3.2398,-3.2428,-3.2859,-3.3444,-3.4181,-3.4874,-3.5552,-3.6153,-3.6399,-3.6492,-3.6492,-3.6492,-3.6492,-3.6492,-3.6492,-3.6492,-3.6492,-3.6492,-3.6492,-3.6492,-3.6492,-3.6492,-3.646,-3.6258,-3.6085,-3.5958,-3.5752,-3.5187,-3.4576,-3.424,-3.3659,0.0,0.0,0.0,0.0,0.0,0.0,0.0,0.0,0.0,0.0,0.0,0.0,0.0,0.0,0.0,0.0,0.0,0.0,0.0,0.0,0.0,0.0,-3.7325,-3.7691,-3.79,-3.79,-3.79,-3.79,-3.79,-3.79,-3.79,-3.79,-3.79,-3.79,-3.79,-3.79,-3.79,-3.79,-3.79,-3.79,-3.79,-3.79,-3.79,-3.79,-3.79,-3.79,-3.79,-3.79,-3.79,-3.79,0.0,0.0,0.0,0.0,0.0,0.0,0.0,0.0,-2.7955,-2.798,0.0,0.0,0.0,0.0,-2.8728,-2.9033,-2.9464,-3.0017,-3.0705,-3.1151,-3.1516,-3.1747,-3.2151,-3.2398,-3.2398,-3.2167,-3.2167,-3.2398,-3.2167,-3.2167,-3.2398,-3.2398,-3.2398,-3.2398,-3.2398,-3.2398,-3.2444,-3.3121,-3.3814,-3.4566,-3.5244,-3.5891,-3.6492,-3.6492,-3.6492,-3.6492,-3.6492,0.0,0.0,0.0,0.0,-3.6492,-3.6492,-3.6492,-3.6492,-3.6492,-3.6492,-3.646,-3.6289,-3.599,-3.5655,-3.5479,-3.4909,-3.424,-3.3796,0.0,0.0,0.0,0.0,0.0,0.0,0.0,0.0,0.0,0.0,0.0,0.0,0.0,0.0,0.0,0.0,0.0,0.0,0.0,0.0,0.0,0.0,0.0,-3.6698,-3.7201,-3.7619,-3.79,-3.79,-3.79,-3.79,-3.79,-3.79,-3.79,-3.79,-3.79,-3.79,-3.79,-3.79,-3.79,-3.79,-3.79,-3.79,-3.79,-3.79,-3.79,-3.79,-3.79,-3.79,-3.79,-3.79,-3.79,0.0,0.0,0.0,0.0,0.0,0.0,0.0,0.0,-2.7855,-2.798,0.0,0.0,0.0,0.0,0.0,-3.0371,-3.0432,-3.072,-3.1393,-3.1439,-3.1705,-3.2367,-3.2398,-3.2398,-3.2398,-3.1751,-3.1736,-3.2398,-3.1736,-3.1751,-3.2398,-3.2398,-3.2398,-3.2398,-3.2398,-3.2398,-3.2444,-3.3136,-3.3844,-3.4566,-3.526,-3.5907,-3.6492,-3.6492,-3.6492,-3.6492,-3.6492,-3.6492,0.0,-3.6492,0.0,0.0,-3.6492,-3.6492,-3.6492,-3.6492,-3.6492,-3.6398,0.0,0.0,0.0,-3.5041,0.0,0.0,-3.3213,0.0,0.0,0.0,0.0,0.0,0.0,0.0,0.0,0.0,0.0,0.0,0.0,0.0,0.0,0.0,0.0,0.0,0.0,0.0,0.0,0.0,0.0,-3.6083,-3.6083,-3.6478,-3.7078,-3.7861,-3.7874,-3.7887,-3.79,-3.79,-3.79,-3.79,-3.79,-3.79,-3.79,-3.79,-3.79,-3.79,-3.79,-3.79,-3.79,-3.79,-3.79,-3.79,-3.79,-3.79,-3.79,-3.79,-3.79,-3.79,0.0,0.0,0.0,0.0,0.0,-2.779,-2.788,-2.7989,-2.8063,0.0,0.0,0.0,-2.8834,-2.9608,-3.0386,-3.1059,-3.112,-3.1413,-3.2074,-3.2105,-3.2198,-3.2382,-3.2398,-3.2398,-3.2398,-3.2213,-3.2198,-3.2398,-3.2198,-3.2213,-3.2398,-3.2398,-3.2398,-3.2398,-3.2398,-3.2398,-3.2475,-3.3675,-3.432,-3.4597,-3.5753,-3.6322,-3.6492,-3.6492,-3.6492,0.0,0.0,-3.6492,-3.6492,0.0,-3.6492,-3.6492,-3.6492,-3.6492,-3.6492,-3.6492,-3.6492,-3.646,-3.632,0.0,0.0,0.0,0.0,0.0,0.0,0.0,0.0,0.0,0.0,0.0,0.0,0.0,0.0,0.0,0.0,0.0,0.0,0.0,0.0,0.0,0.0,0.0,0.0,0.0,0.0,0.0,-3.5195,-3.5521,-3.5521,-3.628,-3.687,-3.7246,-3.7104,-3.73,-3.79,-3.79,-3.79,-3.79,-3.79,-3.79,-3.79,-3.79,-3.79,-3.79,-3.79,-3.79,-3.79,-3.79,-3.79,-3.79,-3.79,-3.79,-3.79,-3.79,-3.79,-3.79,0.0,0.0,0.0,0.0,0.0,-2.774,-2.7815,-2.794,-2.812,0.0,0.0,0.0,-2.9933,-3.0477,-3.1089,-3.1751,-3.184,-3.1967,-3.2367,-3.2398,-3.2398,-3.2398,-3.2398,-3.2398,-3.2398,-3.2121,-3.2105,-3.2398,-3.2105,-3.2121,-3.2398,-3.2398,-3.2398,-3.2398,-3.2398,-3.2398,-3.2459,-3.3567,-3.4227,-3.4597,-3.5675,-3.6245,-3.6492,-3.6492,-3.6492,0.0,0.0,0.0,-3.6492,-3.6492,-3.6492,0.0,0.0,-3.6492,-3.6492,-3.6492,-3.6492,-3.6492,-3.6492,-3.572,-3.4909,-3.4909,0.0,0.0,-3.2803,-3.2178,0.0,0.0,0.0,0.0,0.0,0.0,0.0,0.0,0.0,0.0,0.0,0.0,0.0,0.0,0.0,0.0,0.0,0.0,0.0,0.0,-3.4724,-3.493,-3.4916,-3.5669,-3.6197,-3.6382,-3.6452,-3.6823,-3.7521,-3.7521,-3.7652,-3.79,-3.79,-3.79,-3.79,-3.79,-3.79,-3.79,-3.79,-3.79,-3.79,-3.79,-3.79,-3.79,-3.79,-3.79,-3.79,-3.79,-3.79,-3.79,0.0,0.0,-2.76,-2.76,-2.7625,-2.764,-2.7755,-2.7871,-2.8238,0.0,-2.9286,-2.9976,-3.1366,-3.1516,-3.1736,-3.2336,-3.2398,-3.2398,-3.2398,-3.2398,-3.2398,-3.2398,-3.2398,-3.2398,-3.2398,-3.184,-3.1782,-3.2398,-3.1782,-3.184,-3.2398,-3.2398,-3.2398,-3.2398,-3.2398,-3.2398,-3.2428,-3.3044,-3.3706,-3.4443,-3.5213,-3.5891,0.0,0.0,-3.6492,-3.6492,-3.6492,-3.6492,-3.6492,-3.6492,-3.6492,0.0,0.0,0.0,0.0,-3.646,-3.646,-3.646,-3.646,-3.5672,-3.4843,-3.4843,0.0,0.0,-3.2164,-3.1813,0.0,0.0,0.0,0.0,0.0,0.0,0.0,0.0,0.0,0.0,0.0,0.0,0.0,0.0,0.0,0.0,0.0,0.0,-3.4306,-3.4306,-3.4358,-3.4402,-3.4405,-3.4894,-3.5305,-3.5548,-3.5865,-3.6305,-3.6894,-3.6972,-3.7273,-3.7808,-3.7874,-3.79,-3.79,-3.79,-3.79,-3.79,-3.79,-3.79,-3.79,-3.79,-3.79,-3.79,-3.79,-3.79,-3.79,-3.79,-3.79,-3.79,0.0,-2.7225,-2.76,-2.76,-2.7675,-2.7971,-2.8616,-2.8845,-2.919,-2.9861,-3.0464,-3.1159,-3.2105,-3.2198,-3.2259,-3.2382,-3.2398,-3.2398,-3.2398,-3.2398,-3.2398,-3.2398,-3.2398,-3.2398,-3.2398,-3.2259,-3.2259,-3.2398,-3.2259,-3.2259,-3.2398,-3.2398,-3.2398,-3.2398,-3.2398,-3.2398,-3.2398,-3.2536,-3.2982,-3.3721,-3.4983,-3.5891,-3.6492,-3.6492,-3.6492,-3.6492,-3.6492,-3.6492,-3.6492,-3.6492,-3.6492,-3.6492,0.0,0.0,0.0,-3.6305,-3.6274,-3.6274,-3.6274,-3.5464,-3.4629,0.0,0.0,0.0,-3.2128,-3.1593,-3.1198,0.0,0.0,0.0,0.0,0.0,0.0,0.0,0.0,0.0,0.0,0.0,0.0,0.0,0.0,0.0,0.0,0.0,-3.3757,-3.3757,-3.4162,-3.4382,-3.4405,-3.4499,-3.4829,-3.5348,-3.5443,-3.5717,-3.6279,-3.6763,-3.7063,-3.7181,-3.7678,-3.79,-3.79,-3.79,-3.79,-3.79,-3.79,-3.79,-3.79,-3.79,-3.79,-3.79,-3.79,-3.79,-3.79,-3.79,-3.79,-3.79,-2.7106,-2.7375,-2.7705,-2.8049,-2.8211,-2.8539,-2.9297,-2.9555,-2.9929,-3.0601,-3.1355,-3.1946,-3.2351,-3.2398,-3.2398,-3.2398,-3.2398,-3.2398,-3.2398,-3.2398,-3.2398,-3.2398,-3.2398,-3.2398,-3.2398,-3.2398,-3.2398,-3.2398,-3.2398,-3.2398,-3.2398,-3.2398,-3.2398,-3.2398,-3.2398,-3.2398,-3.2398,-3.2398,-3.2782,-3.346,-3.4168,0.0,-3.5984,-3.5984,-3.6199,-3.6492,-3.6492,-3.6492,-3.6492,-3.6492,-3.6492,0.0,-3.6492,-3.6414,-3.6352,0.0,-3.6274,-3.6196,0.0,0.0,0.0,-3.4327,0.0,0.0,0.0,-3.1421,-3.1061,0.0,0.0,0.0,0.0,0.0,0.0,0.0,0.0,0.0,0.0,0.0,0.0,0.0,0.0,0.0,0.0,0.0,-3.3273,-3.3574,-3.3849,-3.411,-3.4384,-3.4397,-3.4541,-3.4842,-3.4842,-3.5116,-3.5691,-3.6005,-3.6292,-3.6567,-3.7168,-3.7456,-3.7469,-3.7769,-3.79,-3.79,-3.79,-3.79,-3.79,-3.79,-3.79,-3.79,-3.79,-3.79,-3.79,-3.79,-3.79,-3.79,-2.7645,-2.7705,-2.8004,-2.8719,-2.8929,-2.9233,-2.9909,-3.0202,-3.0605,-3.1289,-3.1977,-3.2398,-3.237,-3.2398,-3.237,-3.2315,-3.2342,-3.237,-3.237,-3.237,-3.237,-3.2398,-3.2398,-3.2398,-3.2398,-3.2398,-3.2398,-3.2398,-3.2398,-3.2398,-3.2398,-3.2398,-3.2398,-3.2398,-3.2398,-3.2398,-3.2398,-3.2398,-3.2705,-3.3213,0.0,-3.4121,-3.5521,-3.566,-3.6014,-3.6492,-3.6492,-3.6492,-3.6492,-3.6492,-3.6492,-3.6492,-3.646,-3.6352,0.0,0.0,0.0,0.0,0.0,0.0,0.0,0.0,0.0,-3.2309,0.0,0.0,0.0,0.0,0.0,0.0,0.0,0.0,0.0,0.0,0.0,0.0,0.0,0.0,0.0,0.0,0.0,0.0,0.0,0.0,-3.2777,-3.3378,-3.3522,-3.3783,-3.4214,-3.4345,-3.4397,-3.4397,-3.4397,-3.4633,-3.5116,-3.5247,-3.5521,-3.5953,-3.6541,-3.6894,-3.7024,-3.7508,-3.7795,-3.79,-3.79,-3.79,-3.79,-3.79,-3.79,-3.79,-3.79,-3.79,-3.79,-3.79,-3.79,-3.79,-2.7824,-2.8094,-2.8734,-2.9527,-2.9674,-2.9942,-3.0728,-3.0888,-3.1198,-3.1992,-3.2269,-3.2342,-3.2247,-3.2315,-3.2287,-3.2066,-3.2135,-3.2219,-3.2219,-3.2219,-3.2274,-3.2398,-3.2398,-3.2398,-3.2398,-3.2398,-3.2398,-3.2398,-3.2398,-3.2398,-3.2398,-3.2398,-3.2398,-3.2398,-3.2398,-3.2398,-3.2398,-3.2398,-3.2444,0.0,-3.2505,-3.3706,0.0,-3.6153,-3.643,-3.6492,-3.6492,-3.6492,-3.6492,0.0,-3.6492,-3.646,0.0,-3.6211,-3.6148,-3.5879,0.0,0.0,0.0,0.0,0.0,0.0,-3.2173,0.0,0.0,0.0,0.0,0.0,0.0,-3.0986,-3.0986,0.0,0.0,0.0,0.0,0.0,0.0,0.0,0.0,0.0,0.0,0.0,0.0,0.0,0.0,-3.2751,-3.3287,-3.3626,-3.3679,-3.4136,-3.4397,-3.4397,-3.4397,-3.4437,-3.4502,-3.5025,-3.5325,-3.5391,-3.594,-3.6488,-3.6998,-3.7077,-3.7403,-3.79,-3.79,-3.79,-3.79,-3.79,-3.79,-3.79,-3.79,-3.79,-3.79,-3.79,-3.79,-3.79,-2.8873,-2.8992,-2.9397,-3.0081,-3.0298,-3.0621,-3.1341,-3.1599,-3.1857,-3.2256,-3.237,-3.237,-3.2315,-3.237,-3.2342,-3.2247,0.0,-3.233,0.0,0.0,-3.2342,-3.2398,-3.2398,-3.2398,-3.2398,-3.2398,-3.2398,-3.2398,-3.2398,-3.2398,-3.2398,-3.2398,-3.2398,-3.2398,-3.2398,-3.2398,-3.2398,-3.2398,-3.2398,0.0,0.0,0.0,0.0,-3.4569,-3.5199,-3.5907,-3.5907,-3.6076,-3.6352,0.0,-3.6352,0.0,0.0,0.0,0.0,-3.5926,0.0,0.0,0.0,0.0,0.0,0.0,0.0,0.0,-3.1123,0.0,-3.0986,0.0,0.0,0.0,0.0,0.0,0.0,0.0,0.0,0.0,0.0,0.0,0.0,0.0,0.0,0.0,0.0,0.0,0.0,0.0,0.0,-3.2725,-3.3051,-3.3613,-3.3927,-3.3927,-3.4241,-3.4397,-3.4397,-3.4646,-3.4776,-3.4776,-3.5365,-3.577,-3.6018,-3.6345,-3.6815,-3.7377,-3.7377,-3.7586,-3.79,-3.79,-3.79,-3.79,-3.79,-3.79,-3.79,-3.79,-3.79,-3.79,-3.0118,-2.9968,-3.0071,-3.0743,-3.0975,-3.124,-3.1766,-3.2025,-3.2247,-3.252,-3.2453,-3.2398,-3.2547,-3.2398,-3.2274,-3.2247,-3.2247,-3.2247,0.0,0.0,-3.2287,-3.2287,-3.237,-3.237,-3.2342,-3.237,-3.2398,-3.2398,-3.2398,-3.2398,-3.2398,-3.2398,-3.2398,-3.2398,-3.2398,-3.237,-3.2342,0.0,-3.2315,-3.2333,-3.2824,-3.2953,-3.2942,-3.3437,-3.4248,-3.5139,-3.5139,-3.5355,-3.5599,-3.5599,-3.5599,0.0,-3.5427,0.0,0.0,0.0,0.0,0.0,-3.4795,0.0,0.0,0.0,0.0,0.0,0.0,0.0,0.0,0.0,0.0,0.0,0.0,0.0,-3.0464,-3.0294,0.0,0.0,0.0,0.0,0.0,0.0,0.0,0.0,0.0,0.0,0.0,0.0,-3.1719,0.0,-3.2437,-3.3025,-3.3417,-3.3587,-3.3966,-3.4241,-3.4397,-3.4397,-3.4397,-3.441,-3.4842,-3.5142,-3.5312,-3.5704,-3.6201,-3.6763,-3.6933,-3.726,-3.7678,-3.7835,-3.79,-3.79,-3.79,-3.79,-3.79,-3.79,-3.79,-3.79,-3.1451,-3.0913,-3.0743,-3.1605,-3.1754,-3.1811,-3.1968,-3.1996,-3.2247,0.0,0.0,0.0,0.0,0.0,0.0,0.0,0.0,-3.1813,-3.1813,0.0,-3.2025,-3.2025,-3.2274,-3.2342,0.0,-3.2342,-3.2398,-3.2398,-3.2398,-3.2398,-3.2398,-3.2398,-3.2398,-3.2398,-3.2398,-3.2315,-3.2219,-3.2219,-3.215,-3.2025,-3.204,-3.2055,-3.2192,0.0,-3.4193,-3.4239,-3.4239,0.0,0.0,-3.4076,-3.4076,0.0,0.0,0.0,0.0,0.0,0.0,0.0,0.0,0.0,0.0,-3.219,0.0,0.0,0.0,0.0,-3.0127,0.0,0.0,0.0,-2.9362,-2.9362,-2.9144,-2.859,-2.897,0.0,0.0,0.0,0.0,0.0,0.0,0.0,0.0,0.0,0.0,0.0,-3.1522,0.0,-3.1836,-3.2411,-3.2986,-3.3574,-3.3613,-3.3862,-3.4384,-3.4397,-3.4397,-3.4397,-3.441,-3.4724,-3.5299,-3.5312,-3.5626,-3.6162,-3.675,-3.7011,-3.7077,-3.7665,-3.79,-3.79,-3.79,-3.79,-3.79,-3.79,-3.79,-3.79,-3.1511,-3.1316,-3.1255,-3.1552,-3.1597,-3.1655,0.0,-3.194,0.0,0.0,0.0,0.0,0.0,-3.215,-3.1968,0.0,0.0,-3.194,-3.194,-3.1968,0.0,-3.1996,-3.2163,-3.2247,0.0,-3.2342,-3.2398,-3.2398,-3.2398,-3.2398,-3.2398,-3.2398,-3.2398,-3.2398,-3.2398,-3.2315,0.0,0.0,0.0,0.0,0.0,-3.2184,-3.2678,0.0,0.0,-3.3466,-3.3907,-3.3985,0.0,-3.4333,-3.4197,-3.3849,-3.3667,-3.3392,-3.3053,-3.2616,-3.2202,0.0,0.0,0.0,-3.1164,-3.1542,0.0,0.0,0.0,0.0,0.0,0.0,0.0,0.0,0.0,-2.931,-2.9209,-2.9048,-2.8852,-2.8643,0.0,0.0,0.0,0.0,0.0,0.0,0.0,0.0,0.0,-3.0388,-3.0947,-3.1274,0.0,-3.181,-3.2189,-3.2385,-3.3182,-3.3679,-3.3862,-3.4214,-3.4397,-3.4397,-3.4397,-3.4502,-3.4698,-3.4698,-3.5012,-3.5587,-3.5783,-3.6083,-3.6449,-3.7063,-3.7312,-3.7351,-3.7743,-3.79,-3.79,-3.79,-3.79,-3.79,-3.1511,-3.1511,-3.1511,-3.1511,0.0,0.0,0.0,0.0,0.0,0.0,-3.2066,0.0,-3.2583,0.0,-3.2293,0.0,-3.255,-3.2521,-3.2521,-3.2352,0.0,-3.2173,-3.2131,0.0,0.0,0.0,-3.2315,-3.2315,-3.237,-3.2398,-3.2398,-3.2342,-3.2342,-3.2398,-3.2287,-3.2219,-3.2122,-3.2066,-3.1968,0.0,0.0,-3.1997,0.0,0.0,-3.261,-3.3259,0.0,-3.3593,-3.3758,-3.4133,-3.3848,-3.3322,-3.3186,-3.2627,-3.1899,-3.1541,-3.097,-3.0489,-3.0731,-3.0435,0.0,-3.0898,-3.0698,0.0,-2.9985,0.0,0.0,0.0,0.0,0.0,0.0,-2.866,-2.866,-2.866,-2.8333,-2.8072,0.0,-2.8072,0.0,0.0,0.0,0.0,0.0,0.0,-2.9879,-3.0087,-3.0477,-3.0764,0.0,0.0,-3.1588,-3.1797,-3.2541,-3.3169,-3.3587,-3.394,-3.4201,-3.4397,-3.4397,-3.4397,-3.4397,-3.4397,-3.4607,-3.4986,-3.5208,-3.5495,-3.5861,-3.6449,-3.6815,-3.7037,-3.7429,-3.7717,-3.79,-3.79,-3.79,-3.79,-3.1511,-3.1511,0.0,0.0,-3.1511,0.0,0.0,0.0,-3.2025,0.0,-3.2237,-3.2342,-3.3634,-3.3056,-3.2871,-3.3623,-3.3576,-3.3499,-3.3499,-3.3006,0.0,0.0,-3.2204,-3.1942,-3.1799,0.0,0.0,-3.2191,-3.2315,-3.237,-3.237,-3.2247,-3.2274,-3.237,-3.2122,-3.1996,-3.1968,-3.1841,-3.167,-3.1511,-3.1511,-3.1525,-3.163,-3.2243,0.0,-3.3653,-3.302,-3.3096,-3.3499,-3.3529,-3.3095,-3.2557,-3.2497,-3.1574,-3.0372,-2.9704,-2.8998,-2.8603,-2.9224,-2.942,-2.9556,-3.0147,0.0,0.0,0.0,0.0,-2.8402,0.0,0.0,0.0,0.0,0.0,-2.749,-2.749,-2.749,-2.749,-2.749,0.0,0.0,0.0,0.0,0.0,0.0,-2.9258,-2.947,-3.0009,-3.0087,-3.0348,0.0,0.0,0.0,-3.1745,-3.1784,-3.2332,-3.3496,-3.3561,-3.3849,-3.4358,-3.4384,-3.4397,-3.4397,-3.4397,-3.4397,-3.4437,-3.4999,-3.526,-3.5299,-3.5848,-3.6397,-3.692,-3.6946,-3.7325,-3.7861,-3.79,-3.79,-3.79,-3.1511,-3.1511,-3.1511,0.0,-3.1626,-3.1698,0.0,0.0,0.0,0.0,-3.2434,-3.2631,-3.3472,-3.3382,-3.3335,-3.3531,-3.353,0.0,0.0,0.0,0.0,-3.2512,-3.2509,-3.2295,-3.1799,-3.1968,0.0,-3.2038,-3.2094,-3.2094,-3.2094,-3.2066,-3.2066,-3.2094,-3.2038,-3.194,-3.1841,-3.1813,-3.167,-3.1511,-3.1511,-3.1795,0.0,0.0,-3.326,-3.425,-3.4085,-3.38,-3.3574,-3.4099,-3.3784,-3.3155,-3.2677,-3.1581,-3.0361,-2.9707,-2.868,-2.7782,-2.796,-2.8,-2.8173,-2.8822,-2.8994,-2.8942,0.0,0.0,0.0,0.0,0.0,0.0,0.0,0.0,0.0,-2.749,-2.749,-2.749,-2.749,0.0,0.0,0.0,0.0,0.0,0.0,-2.836,-2.8856,-2.9457,-2.9852,-3.0348,0.0,0.0,0.0,-3.1196,-3.1575,-3.1954,-3.2241,-3.3156,-3.3666,-3.3809,-3.4201,-3.4397,-3.4397,-3.4397,-3.4397,-3.441,-3.4554,-3.4633,-3.4672,-3.526,-3.56,-3.577,-3.6175,-3.6711,-3.7299,-3.7743,-3.79,-3.79,-3.1511,0.0,0.0,-3.1511,0.0,0.0,-3.1555,0.0,0.0,-3.2467,-3.2766,0.0,-3.3844,-3.3918,-3.4053,-3.4352,-3.4367,0.0,-3.4367,0.0,0.0,-3.338,-3.2901,-3.245,-3.2105,-3.1977,0.0,-3.1912,0.0,-3.1996,-3.1996,-3.194,-3.194,-3.1996,-3.1855,-3.1784,-3.1799,-3.1698,-3.1597,-3.1511,-3.1511,0.0,0.0,-3.2841,-3.3589,-3.4548,-3.4816,-3.4681,-3.4427,-3.4801,-3.4282,-3.3406,-3.3005,-3.1739,-3.0284,-2.9628,-2.8716,-2.785,-2.7555,-2.749,-2.759,-2.7973,-2.8072,-2.8072,-2.8072,-2.8072,-2.7973,0.0,0.0,0.0,0.0,0.0,0.0,-2.749,-2.749,-2.749,0.0,0.0,0.0,0.0,0.0,0.0,0.0,-2.7824,-2.8255,-2.8878,-2.9183,-2.9732,0.0,0.0,0.0,-3.0973,-3.13,-3.1549,-3.1797,-3.245,-3.3091,-3.3587,-3.3901,-3.4162,-3.4397,-3.4397,-3.4397,-3.4397,-3.4397,-3.4397,-3.4424,-3.4763,-3.5064,-3.5351,-3.5887,-3.6305,-3.6684,-3.7286,-3.7678,-3.79,-3.1511,0.0,0.0,0.0,0.0,0.0,0.0,-3.2243,0.0,-3.2766,0.0,-3.3873,-3.4578,-3.4638,-3.4861,-3.5444,0.0,-3.5504,-3.5504,-3.4936,-3.4593,-3.4503,-3.338,-3.2691,-3.2512,-3.209,-3.1846,0.0,-3.1883,-3.194,-3.194,-3.1813,-3.1813,-3.194,-3.1611,-3.1597,0.0,-3.1568,-3.1511,-3.1511,-3.1511,-3.1899,-3.2557,-3.3245,-3.3934,-3.4593,-3.525,-3.5504,-3.5504,-3.5504,-3.4632,-3.3514,-3.3427,-3.203,-3.0282,-2.9693,-2.9005,-2.8281,-2.7771,-2.7555,-2.749,-2.749,-2.749,-2.749,-2.749,-2.749,-2.749,-2.749,-2.749,0.0,0.0,0.0,0.0,-2.749,0.0,0.0,0.0,0.0,0.0,0.0,0.0,0.0,0.0,0.0,-2.7771,-2.8368,-2.842,0.0,0.0,0.0,0.0,0.0,-3.0986,0.0,-3.168,0.0,-3.2359,-3.347,-3.3548,-3.3875,-3.4397,-3.4397,-3.4397,-3.4397,-3.4397,-3.4397,-3.4397,-3.4397,-3.4711,-3.5234,-3.5783,-3.6005,-3.607,-3.6671,-3.722,-3.7691,-3.1511,0.0,0.0,0.0,0.0,-3.329,-3.317,-3.3245,-3.3514,-3.4099,-3.4264,-3.4562,-3.525,-3.5325,-3.537,-3.5489,-3.5504,0.0,0.0,0.0,0.0,-3.4533,-3.4279,-3.3619,-3.2512,-3.2437,-3.2107,0.0,0.0,-3.1597,-3.1597,-3.1568,-3.1568,-3.1597,-3.1539,-3.1511,-3.1539,-3.1511,0.0,-3.1511,-3.1511,-3.1899,-3.2557,-3.3245,-3.3934,-3.4593,-3.525,-3.5504,-3.5504,-3.5504,-3.4912,-3.4066,-3.3572,-3.2312,-3.0934,-3.033,-2.9305,-2.8394,-2.8255,-2.7889,-2.749,-2.749,-2.749,-2.749,-2.749,-2.749,-2.749,-2.749,-2.749,-2.749,-2.749,0.0,0.0,0.0,0.0,0.0,0.0,0.0,0.0,0.0,0.0,0.0,0.0,0.0,0.0,0.0,0.0,0.0,0.0,0.0,0.0,0.0,0.0,0.0,0.0,0.0,0.0,-3.2855,-3.3352,-3.3875,-3.4397,-3.4397,-3.4397,-3.4397,-3.4397,-3.4397,-3.4397,-3.4397,-3.4463,-3.462,-3.5208,-3.5443,-3.5508,-3.6057,-3.6332,-3.6567,0.0,0.0,0.0,0.0,0.0,0.0,0.0,-3.4307,0.0,-3.4518,-3.4786,-3.5265,-3.5938,-3.6013,-3.6013,-3.6013,-3.6013,-3.5863,-3.5534,-3.5504,-3.5355,-3.5026,-3.4698,0.0,-3.3544,-3.2856,-3.2333,-3.2004,0.0,-3.1511,-3.1511,-3.1511,-3.1511,-3.1511,-3.1511,-3.1511,0.0,0.0,0.0,-3.1525,-3.1869,-3.2407,-3.3095,-3.3754,-3.4427,-3.5055,-3.5385,-3.5504,-3.5504,-3.5504,-3.4986,-3.4187,-3.3493,-3.2535,-3.1473,-3.0508,-2.9759,-2.9157,-2.8543,-2.8177,-2.7902,-2.7568,-2.749,-2.749,-2.749,-2.749,-2.749,-2.749,-2.749,-2.749,-2.749,-2.749,0.0,0.0,0.0,0.0,0.0,0.0,0.0,0.0,0.0,0.0,0.0,0.0,0.0,0.0,0.0,0.0,0.0,0.0,0.0,0.0,0.0,0.0,0.0,0.0,0.0,-3.2254,-3.2842,-3.343,-3.3979,-3.4267,-3.4397,-3.4397,-3.4397,-3.4397,-3.4397,-3.4397,-3.4397,-3.4424,-3.4724,-3.4829,-3.4894,-3.5469,-3.5691,-3.5848,0.0,-3.2841,0.0,0.0,-3.4262,0.0,-3.4728,-3.528,-3.5519,-3.4998,-3.537,-3.5953,-3.6611,-3.6686,-3.6686,-3.6686,-3.6686,-3.6402,-3.5759,-3.5714,-3.5654,-3.5504,-3.4981,-3.4653,-3.4503,-3.3469,-3.2796,0.0,0.0,-3.1645,-3.1511,-3.1511,-3.1511,-3.1511,0.0,0.0,0.0,0.0,-3.1585,-3.1765,-3.2273,-3.2991,-3.3769,-3.4309,-3.4906,-3.5504,-3.5504,-3.5504,-3.5472,-3.5311,-3.4824,-3.4211,-3.363,-3.2826,-3.1884,-3.0814,-3.0325,-2.9892,-2.9,-2.8569,-2.8281,-2.7824,-2.7581,-2.749,-2.749,-2.749,-2.749,-2.749,-2.749,-2.749,-2.749,-2.749,0.0,0.0,0.0,0.0,0.0,0.0,0.0,0.0,0.0,0.0,0.0,0.0,0.0,0.0,0.0,0.0,0.0,0.0,0.0,0.0,0.0,0.0,-3.0986,0.0,-3.1274,0.0,-3.2411,-3.3012,-3.3613,-3.4149,-3.4397,-3.4397,-3.4397,-3.4397,-3.4397,-3.4397,-3.4397,-3.4397,-3.4397,-3.4397,-3.445,-3.4933,-3.5103,-3.526,0.0,0.0,0.0,0.0,0.0,0.0,0.0,-3.5968,-3.6372,-3.6312,-3.6357,-3.6626,-3.7255,-3.733,-3.733,-3.733,-3.733,-3.706,-3.6432,-3.6402,-3.6133,-3.5534,-3.5444,-3.5115,-3.4518,-3.4384,-3.3709,0.0,0.0,-3.2093,-3.1511,-3.1511,-3.1511,0.0,0.0,0.0,0.0,-3.1511,-3.1854,-3.2392,-3.2452,-3.326,-3.4414,-3.4488,-3.4906,-3.5504,-3.5504,-3.5504,-3.5392,-3.4643,-3.4346,-3.4279,-3.4211,-3.3234,-3.2074,-3.1947,-3.104,-3.0074,-2.997,-2.9196,-2.8407,-2.8307,-2.7902,-2.749,-2.749,-2.749,-2.749,-2.749,-2.749,-2.749,-2.749,-2.749,-2.749,0.0,0.0,0.0,0.0,0.0,0.0,0.0,0.0,0.0,0.0,0.0,0.0,0.0,0.0,0.0,0.0,0.0,0.0,-3.0947,0.0,-3.0986,-3.0986,-3.0986,0.0,-3.181,-3.2411,-3.3012,-3.3613,-3.4149,-3.4397,-3.4397,-3.4397,-3.4397,-3.4397,-3.4397,-3.4397,-3.4397,-3.4397,-3.4397,-3.441,-3.4463,-3.4476,-3.458,0.0,0.0,0.0,0.0,0.0,0.0,0.0,-3.6312,-3.6761,-3.7524,-3.7285,-3.7285,-3.7928,-3.8003,-3.8003,-3.8003,-3.8003,-3.7569,-3.6552,-3.6492,-3.6193,-3.5534,-3.5504,-3.537,-3.51,-3.4728,-3.4249,0.0,0.0,0.0,0.0,0.0,0.0,0.0,0.0,-3.1511,-3.1525,-3.1929,-3.2243,-3.2557,-3.338,-3.4008,-3.4548,-3.4936,-3.5265,-3.5439,-3.4938,-3.4791,-3.4658,-3.3905,-3.3925,-3.4143,-3.3269,-3.2883,-3.2577,-3.1713,-3.1369,-3.1103,-3.0325,-2.9761,-2.9261,-2.8556,-2.8203,-2.7954,-2.7568,-2.749,-2.749,-2.749,-2.749,-2.749,-2.749,-2.749,-2.749,0.0,0.0,0.0,0.0,0.0,0.0,0.0,0.0,-2.749,0.0,0.0,0.0,0.0,0.0,0.0,0.0,0.0,0.0,-3.0451,0.0,-3.0986,-3.0986,-3.0986,-3.1104,-3.1339,-3.2254,-3.2816,-3.3077,-3.3979,-3.4397,-3.4397,-3.4285,-3.4272,-3.4397,-3.4285,-3.4272,-3.4397,-3.4397,-3.4397,-3.4397,-3.4397,-3.4397,-3.4437,-3.4681,0.0,-3.4996,0.0,-3.5789,-3.6013,-3.6656,-3.6926,-3.7375,-3.8272,-3.8153,-3.8182,-3.8631,-3.8691,-3.8691,-3.8691,-3.8691,-3.8227,-3.712,-3.6866,-3.6462,-3.5818,-3.5609,0.0,-3.5504,-3.5026,-3.4713,-3.4503,-3.3544,0.0,0.0,0.0,0.0,0.0,-3.1795,-3.1795,-3.1839,-3.2497,-3.2916,-3.317,-3.4098,-3.4638,-3.4863,-3.5325,-3.5504,-3.5439,-3.4872,-3.4643,-3.4509,-3.3541,-3.3561,-3.3788,-3.2741,-3.2613,-3.2648,-3.1653,-3.1529,-3.1583,-3.0624,-3.0231,-2.9865,-2.8895,-2.8551,-2.8229,-2.7633,-2.749,-2.749,-2.749,-2.749,-2.749,-2.749,-2.749,-2.749,-2.749,0.0,0.0,0.0,0.0,0.0,0.0,0.0,0.0,0.0,0.0,0.0,0.0,0.0,0.0,0.0,0.0,0.0,0.0,0.0,0.0,0.0,-3.0949,-3.0911,-3.0924,-3.1941,-3.2489,-3.2658,-3.3834,-3.4397,-3.4397,-3.4202,-3.4202,-3.4272,-3.4076,-3.4063,-3.4189,-3.4189,-3.4189,-3.4189,-3.4189,-3.4189,-3.423,-3.5489,-3.5489,-3.5699,-3.6357,-3.6477,-3.6686,-3.73,-3.7943,-3.8377,-3.8392,-3.8975,-3.9394,-3.9373,-3.9373,-3.9373,-3.9373,-3.9373,-3.911,-3.8407,-3.7764,-3.712,0.0,0.0,-3.5504,-3.5504,-3.5489,-3.516,-3.4503,0.0,0.0,-3.3469,0.0,-3.2497,-3.2497,-3.2497,-3.2497,-3.2512,-3.32,-3.3858,-3.4488,-3.4503,-3.4891,-3.5489,-3.5504,-3.5504,-3.5504,-3.5504,-3.5504,-3.5261,-3.3713,-3.3213,-3.3213,-3.3178,-3.2684,-3.211,-3.2074,-3.1566,-3.1024,-3.0973,-3.0555,-2.9957,-2.9418,-2.8852,-2.8229,-2.7633,-2.749,-2.749,-2.749,-2.749,-2.749,-2.749,-2.749,-2.749,-2.749,0.0,0.0,0.0,0.0,0.0,0.0,0.0,0.0,-2.749,0.0,0.0,0.0,0.0,0.0,0.0,0.0,0.0,-3.0934,-3.0798,0.0,-3.0986,-3.0811,-3.0698,-3.0698,-3.146,-3.2033,-3.2472,-3.3792,-3.4397,-3.4397,-3.4202,-3.4118,-3.4076,-3.381,-3.3713,-3.3713,-3.3713,-3.3713,-3.3713,-3.3713,-3.3713,-3.3755,-3.6088,-3.6178,-3.6372,-3.7,-3.712,-3.733,-3.7973,-3.8257,-3.8556,-3.9035,-3.929,-3.9388,-3.9388,-3.9388,-3.9388,0.0,-3.9388,-3.9125,0.0,-3.7778,-3.7135,-3.6507,-3.5863,-3.5504,-3.5504,-3.5504,-3.54,-3.5175,0.0,0.0,0.0,-3.3275,-3.3185,-3.3185,-3.3185,-3.3185,-3.323,-3.3888,-3.4309,-3.4485,-3.4404,-3.4486,-3.461,-3.4138,-3.424,-3.461,-3.4104,-3.424,-3.4442,-3.2953,-3.2791,-3.3003,-3.2005,-3.1882,-3.2015,-3.1505,-3.1529,-3.164,-3.1123,-3.0856,-3.049,-2.9558,-2.9179,-2.8739,-2.7712,-2.749,-2.749,-2.749,-2.749,-2.749,-2.749,-2.749,-2.749,-2.749,0.0,0.0,0.0,0.0,0.0,0.0,0.0,0.0,0.0,-2.749,0.0,0.0,0.0,0.0,0.0,0.0,0.0,0.0,-3.0603,0.0,-3.0986,-3.0811,-3.0698,-3.0711,-3.1331,-3.2018,-3.2759,-3.3768,-3.4202,-3.4202,-3.4118,-3.4118,-3.4076,-3.381,-3.3713,-3.3713,-3.3713,-3.3713,-3.3713,-3.3713,-3.3713,-3.3713,-3.6701,-3.6836,-3.703,-3.7674,-3.7778,-3.8003,-3.8676,-3.8781,-3.8931,-3.9364,-3.9388,-3.9388,-3.9388,-3.9388,0.0,-3.9388,-3.9388,-3.923,-3.8796,-3.7913,-3.724,-3.6851,-3.5983,-3.5504,-3.5504,0.0,0.0,-3.5504,-3.507,-3.4651,-3.4247,-3.3978,-3.3858,-3.3858,-3.3858,-3.3858,-3.3903,-3.4577,-3.4861,-3.4827,-3.4468,-3.4312,-3.4211,-3.3492,-3.3492,-3.3837,-3.3353,-3.3492,-3.3685,-3.2492,-3.2398,-3.2577,-3.1371,-3.1334,-3.1603,-3.1123,-3.1334,-3.1603,-3.1123,-3.0986,-3.0764,-2.9836,-2.9444,-2.8974,-2.7764,-2.749,-2.749,-2.749,-2.749,-2.749,-2.749,-2.749,-2.749,-2.749,0.0,-2.749,-2.749,0.0,0.0,0.0,0.0,0.0,0.0,-2.7369,0.0,0.0,0.0,0.0,0.0,0.0,0.0,-3.0203,-3.0466,0.0,-3.0748,-3.0584,-3.047,-3.047,-3.1267,-3.1973,-3.2652,-3.3547,-3.3937,-3.3949,-3.3865,-3.3823,-3.3823,-3.3556,-3.3471,-3.3471,-3.3471,-3.3471,-3.3471,-3.3471,-3.3471,-3.3471,-3.736,-3.7479,0.0,0.0,-3.8467,0.0,-3.932,-3.9388,-3.9388,-3.9388,-3.9388,-3.9388,-3.9388,-3.9388,-3.9388,-3.9388,0.0,0.0,0.0,-3.8138,-3.7389,-3.7345,-3.6163,0.0,-3.5504,-3.5504,-3.5504,-3.5504,-3.5504,-3.5504,-3.5489,-3.4846,-3.4578,-3.4578,-3.4578,-3.4578,-3.4623,-3.5235,-3.5504,-3.5424,-3.461,-3.4279,-3.4129,-3.3388,-3.3108,-3.3108,-3.3108,-3.3143,-3.3073,-3.2362,-3.211,-3.2051,-3.1259,-3.1061,-3.1061,-3.1024,-3.0986,-3.0986,-3.0986,-3.0986,-3.0856,-3.0244,-2.968,-2.8922,-2.7751,-2.749,-2.749,-2.749,-2.749,-2.749,-2.749,-2.749,-2.749,-2.749,-2.749,-2.749,-2.749,0.0,0.0,0.0,0.0,0.0,0.0,-2.7113,-2.731,0.0,0.0,0.0,0.0,0.0,-2.9655,-3.0406,-3.0406,-3.0406,-3.0406,-3.019,-3.0113,-3.0088,-3.1244,-3.1871,-3.2083,-3.3171,-3.367,-3.367,-3.3513,-3.3398,-3.3398,-3.3197,-3.3124,-3.3124,-3.3124,-3.3124,-3.3124,-3.3124,-3.3124,-3.3111,0.0,0.0,-3.8377,-3.905,-3.917,-3.923,-3.9394,-3.9388,-3.9388,-3.9388,-3.9388,-3.9388,-3.9388,-3.9388,-3.9388,-3.9388,-3.9388,-3.9185,-3.8661,-3.7868,-3.7195,-3.6731,-3.5923,-3.5504,-3.5504,-3.5504,-3.5504,-3.5504,-3.5504,-3.5504,-3.5504,-3.534,-3.5265,-3.5265,-3.5265,-3.5265,-3.5265,-3.5429,-3.5504,-3.5424,-3.461,-3.3973,-3.3388,-3.2648,-3.2362,-3.2362,-3.2362,-3.272,-3.3073,-3.2362,-3.247,-3.272,-3.1408,-3.1408,-3.1736,-3.1161,-3.0986,-3.0986,-3.0986,-3.0986,-3.0856,-3.0244,-2.9353,-2.8412,-2.7659,-2.749,-2.749,-2.749,-2.749,-2.749,-2.749,-2.749,-2.749,-2.749,-2.749,-2.749,-2.749,-2.7403,0.0,0.0,-2.7146,-2.7079,-2.7079,-2.7024,-2.7242,0.0,0.0,0.0,0.0,0.0,-2.9799,-3.0596,-3.0343,-3.0228,-3.0406,-3.019,-3.0113,-3.0088,-3.1032,-3.1521,-3.1599,-3.2878,-3.3471,-3.3471,-3.3598,-3.3556,-3.3398,-3.3356,-3.324,-3.3124,-3.3124,-3.3124,-3.3124,-3.3124,-3.3124,-3.3124,-3.8615,-3.8784,-3.894,-3.9241,-3.9337,-3.9388,-3.9388,-3.9388,-3.9388,-3.9388,-3.9388,-3.9388,-3.9388,-3.9388,-3.9388,-3.9388,-3.9388,-3.9125,-3.8437,-3.7778,-3.7135,-3.6507,-3.5863,-3.5504,-3.5504,-3.5504,-3.5504,-3.5504,-3.5133,-3.4938,-3.4938,-3.4606,-3.4438,-3.4438,-3.4438,-3.4438,-3.4471,-3.4806,-3.4938,-3.4905,-3.4495,-3.3871,-3.3108,-3.2362,-3.1869,-3.1603,-3.1603,-3.1846,-3.2137,-3.175,-3.1846,-3.2028,-3.1272,-3.1259,-3.1529,-3.1123,-3.0986,-3.0986,-3.0986,-3.0986,-3.079,-2.9954,-2.9261,-2.8569,-2.7686,-2.749,-2.749,-2.749,-2.749,-2.749,-2.749,-2.749,-2.749,-2.749,-2.749,-2.749,-2.749,-2.7369,0.0,-2.718,-2.6977,-2.6863,-2.6863,-2.7036,-2.7383,-2.8035,0.0,0.0,-2.9555,-2.9618,-2.9847,-3.0279,-3.0164,-3.0113,-3.0113,-3.0011,-2.9972,-2.9985,-3.0952,-3.1386,-3.1424,-3.268,-3.3283,-3.3283,-3.3398,-3.3356,-3.3283,-3.3283,-3.3197,-3.3124,-3.3124,-3.3124,-3.3124,-3.3124,-3.3124,-3.3124,-3.8986,-3.9228,-3.9301,-3.9104,-3.9228,-3.9337,-3.9337,-3.9388,-3.9388,-3.9388,-3.9388,-3.9388,-3.9388,-3.9373,-3.9343,-3.9275,-3.9224,-3.894,-3.8287,-3.7629,-3.6985,-3.6372,-3.5804,-3.5504,-3.5504,-3.5504,-3.5504,-3.5504,-3.4839,-3.4428,-3.4279,-3.3665,-3.3318,-3.3178,-3.3178,-3.3178,-3.3248,-3.3871,-3.4129,-3.4129,-3.4129,-3.3699,-3.2967,-3.2326,-3.164,-3.0986,-3.0986,-3.0986,-3.0986,-3.0986,-3.0986,-3.0986,-3.0986,-3.0986,-3.0986,-3.0986,-3.0986,-3.0986,-3.0986,-3.0986,-3.0749,-2.9562,-2.931,-2.8974,-2.7764,-2.749,-2.749,-2.749,-2.749,-2.749,-2.749,-2.7503,-2.7503,-2.749,-2.7503,-2.7503,-2.749,0.0,-2.718,-2.7024,-2.6794,-2.6683,-2.6772,-2.711,-2.7629,-2.8429,-2.8749,0.0,0.0,-2.9908,-2.9792,-2.9792,-2.9972,-2.9972,-2.9792,-2.9792,-2.9792,-2.9804,-3.0884,-3.1386,-3.1436,-3.2566,-3.3124,-3.3124,-3.3124,-3.3124,-3.3124,-3.3124,-3.3124,-3.3124,-3.3124,-3.3124,-3.3124,-3.3124,-3.3124,-3.3124,-3.8877,-3.9017,-3.9068,-3.887,-3.9017,-3.9141,-3.9141,-3.9301,-3.9388,-3.9388,-3.9388,-3.9388,-3.9388,-3.9265,-3.899,-3.8601,-3.8379,-3.8111,-3.7599,-3.6971,-3.6342,-3.5684,-3.5564,-3.5504,-3.5504,-3.5504,-3.5504,-3.5504,-3.5359,-3.4986,-3.4312,-3.4177,-3.3802,-3.3178,-3.3178,-3.3178,-3.3213,-3.3318,-3.3353,-3.3353,-3.3353,-3.2932,-3.2254,-3.2146,-3.164,-3.0986,-3.0986,-3.0986,-3.0986,-3.0986,-3.0986,-3.0986,-3.0986,-3.0986,-3.0986,-3.0986,-3.0986,-3.0986,-3.0986,-3.0986,-3.0749,-2.9562,-2.931,-2.8974,-2.7764,-2.749,-2.749,-2.749,-2.749,-2.749,-2.749,-2.7403,-2.7369,-2.7503,-2.7403,-2.7369,-2.7503,0.0,-2.7024,-2.699,-2.6705,-2.671,-2.7175,-2.7266,-2.7708,-2.8762,-2.8888,-2.9176,-2.9793,-2.983,-2.9792,-2.9792,-2.983,-2.983,-2.9792,-2.9792,-2.9792,-2.9804,-3.0884,-3.1386,-3.1436,-3.2566,-3.3124,-3.3124,-3.3124,-3.3124,-3.3124,-3.3124,-3.3124,-3.3124,-3.3124,-3.3124,-3.3124,-3.3124,-3.3124,-3.3124,-3.8686,-3.8797,-3.887,-3.8686,-3.8797,-3.898,-3.9068,-3.9177,-3.9265,-3.9388,-3.9388,-3.9239,-3.8901,-3.8713,-3.8389,-3.7789,-3.7243,-3.6694,-3.6177,-3.6357,-3.6193,-3.5534,-3.5504,-3.5504,-3.5504,-3.5504,-3.5504,-3.5504,-3.5067,-3.4643,-3.4279,-3.3891,-3.3318,-3.2613,-3.2613,-3.2376,-3.2028,-3.2448,-3.2613,-3.2648,-3.3038,-3.2755,-3.211,-3.211,-3.164,-3.0986,-3.0986,-3.0986,-3.0986,-3.0986,-3.0986,-3.0986,-3.0986,-3.0986,-3.0986,-3.0986,-3.0986,-3.0986,-3.0986,-3.0986,-3.0749,-2.9562,-2.931,-2.8974,-2.7764,-2.749,-2.749,-2.749,-2.749,-2.7503,-2.7403,-2.7335,-2.7302,-2.7369,-2.7235,0.0,0.0,-2.7066,-2.6841,-2.6841,-2.6889,-2.704,-2.7291,-2.7821,-2.8386,-2.885,-2.9214,-2.9515,-2.9779,-2.9792,-2.9792,-2.9792,-2.9792,-2.9792,-2.9792,-2.9792,-2.9792,-2.9804,-3.0884,-3.1386,-3.1436,-3.2566,-3.3124,-3.3124,-3.3124,-3.3124,-3.3124,-3.3124,-3.3124,-3.3124,-3.3124,-3.3124,-3.3124,-3.3124,-3.3124,-3.3124,-3.8478,-3.8575,-3.8686,-3.8478,-3.8612,-3.8797,-3.8922,-3.8995,-3.906,-3.9071,-3.9041,-3.8788,-3.8137,-3.7937,-3.7579,-3.6961,-3.6256,-3.5615,-3.5105,-3.557,-3.5666,-3.5228,-3.518,-3.5246,-3.5439,-3.5213,-3.5213,-3.5439,-3.4806,-3.4361,-3.4027,-3.3457,-3.272,-3.1846,-3.1846,-3.1529,-3.1061,-3.1603,-3.1846,-3.1869,-3.2448,-3.234,-3.1846,-3.1846,-3.1492,-3.0986,-3.0986,-3.0986,-3.0986,-3.0986,-3.0986,-3.0986,-3.0986,-3.0986,-3.0911,-3.0911,-3.0911,-3.0874,-3.0986,-3.0986,-3.0749,-2.9562,-2.931,-2.8974,-2.7764,-2.749,-2.749,-2.749,-2.749,-2.7469,-2.7302,-2.7268,-2.7248,-2.7248,0.0,0.0,0.0,-2.7046,-2.6917,-2.6917,-2.7236,-2.7519,-2.7657,-2.8436,-2.895,-2.9076,-2.9541,-2.9792,-2.9792,-2.9792,-2.9792,-2.9792,-2.9792,-2.9792,-2.9792,-2.9792,-2.9792,-2.9804,-3.0758,-3.1273,-3.1424,-3.2428,-3.2955,-3.3124,-3.3124,-3.3124,-3.3124,-3.3124,-3.3124,-3.3124,-3.3124,-3.3124,-3.3124,-3.3124,-3.3124,-3.3124,-3.8315,-3.8389,-3.8441,-3.824,-3.8404,-3.8516,-3.8553,-3.8686,-3.8627,-3.8087,-3.8014,-3.7763,-3.7068,-3.6849,-3.6514,-3.6026,-3.5771,-3.5424,-3.4938,-3.4327,-3.4113,-3.4394,-3.4211,-3.4476,-3.5213,-3.4356,-3.4356,-3.5213,-3.5148,-3.4505,-3.3283,-3.3213,-3.2448,-3.1086,-3.1086,-3.1048,-3.0986,-3.1061,-3.1086,-3.1099,-3.1123,-3.1123,-3.1086,-3.1086,-3.1061,-3.0986,-3.0986,-3.0986,-3.0986,-3.0986,-3.0986,-3.0986,-3.0986,-3.0874,-3.0736,-3.0736,-3.0571,-3.052,-3.0911,-3.0986,-3.0749,-2.9562,-2.931,-2.8974,-2.7764,-2.749,-2.749,-2.749,-2.749,-2.7469,-2.7302,-2.7146,-2.7024,-2.7024,0.0,0.0,-2.6977,-2.7334,-2.7525,-2.7525,-2.7828,-2.8247,-2.8712,-2.8838,-2.9113,-2.9691,-2.9767,-2.9792,-2.9792,-2.9792,-2.9792,-2.9792,-2.9792,-2.9792,-2.9792,-2.9792,-2.9792,-2.9804,-3.0382,-3.0922,-3.1411,-3.2001,-3.2566,-3.3124,-3.3124,-3.3124,-3.3124,-3.3124,-3.3124,-3.3124,-3.3124,-3.3124,-3.3124,-3.3124,-3.3124,-3.3124,-3.8167,-3.824,-3.8277,-3.8202,-3.7935,-3.7798,-3.793,-3.7652,-3.7422,-3.7278,-3.7284,-3.6843,-3.57,-3.5416,-3.486,-3.3769,-3.3951,-3.3691,-3.2662,-3.3276,-3.3555,-3.3241,-3.3171,-3.3276,-3.3581,-3.322,-3.322,-3.3581,-3.3581,-3.3408,-3.301,-3.301,-3.2528,-3.1676,-3.1676,-3.1431,-3.0986,-3.0874,-3.0811,-3.0798,-3.0685,-3.0634,-3.0634,-3.0761,-3.0811,-3.0849,-3.0949,-3.0986,-3.0986,-3.0986,-3.0986,-3.0986,-3.0986,-3.0949,-3.0836,-3.0736,-3.0571,-3.0444,-3.0596,-3.0634,-3.044,-2.9628,-2.9176,-2.8699,-2.7885,-2.7412,-2.718,-2.718,-2.718,-2.7146,-2.6964,-2.6863,-2.6794,-2.6794,0.0,-2.7142,-2.7341,-2.767,-2.7904,-2.7904,-2.8322,-2.8662,-2.8875,-2.9252,-2.9553,-2.9779,-2.9792,-2.9792,-2.9792,-2.9792,-2.9792,-2.9792,-2.9792,-2.9792,-2.9792,-2.9792,-2.9792,-2.9804,-3.0357,-3.0884,-3.1411,-3.1964,-3.2528,-3.3124,-3.3124,-3.3124,-3.3124,-3.3124,-3.3124,-3.3124,-3.3124,-3.3124,-3.3124,-3.3124,-3.3124,-3.3124,-3.752,-3.7607,-3.7607,-3.7607,-3.7075,-3.6677,-3.6808,-3.6483,-3.6142,-3.6081,-3.6277,-3.5994,-3.4805,-3.4334,-3.3663,-3.2648,-3.2741,-3.247,-3.1539,-3.2268,-3.2733,-3.2635,-3.2585,-3.2536,-3.25,-3.2213,-3.2213,-3.25,-3.25,-3.25,-3.2478,-3.2478,-3.2132,-3.1576,-3.1626,-3.1394,-3.0911,-3.0773,-3.0698,-3.0698,-3.0482,-3.0406,-3.0406,-3.0533,-3.0609,-3.0609,-3.0761,-3.0798,-3.0798,-3.0798,-3.0836,-3.0874,-3.0823,-3.0761,-3.0685,-3.047,-3.0318,-3.0228,-3.0228,-3.0228,-3.0088,-2.9639,-2.9241,-2.8805,-2.818,-2.7758,-2.7502,-2.7502,-2.7502,-2.7467,-2.7259,-2.7224,-2.7211,-2.7142,-2.7364,-2.7616,-2.7736,-2.8094,-2.836,-2.836,-2.8825,-2.9202,-2.9202,-2.9566,-2.9792,-2.9792,-2.9792,-2.9792,-2.9792,-2.9792,-2.9792,-2.9792,-2.9792,-2.9792,-2.9792,-2.9792,-2.9792,-2.9792,-3.0181,-3.0721,-3.1399,-3.1788,-3.2365,-3.3124,-3.3124,-3.3124,-3.3124,-3.3124,-3.3124,-3.3124,-3.3124,-3.3124,-3.3124,-3.3124,-3.3124,-3.3124,-3.6301,-3.6301,-3.6265,-3.6301,-3.5674,-3.517,-3.517,-3.517,-3.4944,-3.4253,-3.4874,-3.5111,-3.4453,-3.3673,-3.3178,-3.3178,-3.2506,-3.2074,-3.211,-3.1341,-3.1415,-3.2618,-3.2497,-3.2349,-3.2285,-3.1352,-3.1352,-3.2285,-3.2285,-3.201,-3.1479,-3.1479,-3.1121,-3.0406,-3.0609,-3.0698,-3.0698,-3.0698,-3.0698,-3.066,-3.0482,-3.0406,-3.0406,-3.0406,-3.0406,-3.0406,-3.0406,-3.0406,-3.0406,-3.0406,-3.0533,-3.066,-3.0444,-3.0254,-3.0049,-2.9869,-2.9792,-2.9792,-2.9792,-2.9792,-2.9731,-2.9527,-2.9498,-2.9345,-2.8756,-2.8579,-2.8615,-2.8615,-2.8615,-2.8556,-2.8413,-2.839,-2.8341,-2.8146,-2.8109,-2.8109,-2.8109,-2.8549,-2.89,-2.89,-2.9453,-2.9792,-2.9792,-2.9792,-2.9792,-2.9792,-2.9792,-2.9792,-2.9792,-2.9792,-2.9792,-2.9792,-2.9792,-2.9792,-2.9792,-2.9792,-2.9792,-2.9792,-2.9792,-3.0344,-3.1386,-3.1386,-3.2001,-3.3111,-3.3124,-3.3124,-3.3124,-3.3124,-3.3124,-3.3124,-3.3124,-3.3124,-3.3124,-3.3124,-3.3124,-3.3124,-3.6107,-3.5427,-3.4845,-3.5441,-3.4496,-3.3651,-3.3651,-3.3294,-3.2951,-3.2736,-3.2938,-3.2784,-3.2015,-3.1733,-3.1378,-3.0872,-3.1095,-3.1489,-3.2074,-3.1341,-3.1044,-3.1415,-3.0897,-3.0583,-3.057,-3.0279,-3.0279,-3.057,-3.057,-3.0533,-3.0508,-3.0508,-3.047,-3.0406,-3.0444,-3.0482,-3.0482,-3.0343,-3.0267,-3.0279,-3.0049,-2.9972,-2.9972,-3.0152,-3.019,-3.0228,-3.0368,-3.0406,-3.0406,-3.0406,-3.0444,-3.0482,-3.0406,-3.0254,-3.0075,-3.0049,-2.9895,-2.9792,-2.9792,-2.9792,-2.9793,-2.9732,-2.9378,-2.9038,-2.8861,-2.852,-2.8243,-2.8243,-2.8243,-2.8243,-2.8182,-2.8182,-2.8182,-2.8109,-2.8436,-2.865,-2.865,-2.9176,-2.9528,-2.9528,-2.9691,-2.9792,-2.9792,-2.9792,-2.9792,-2.9792,-2.9792,-2.9792,-2.9792,-2.9792,-2.9792,-2.9792,-2.9792,-2.9792,-2.9792,-2.9792,-2.9792,-2.9792,-2.9792,-3.0168,-3.0859,-3.1223,-3.1788,-3.2491,-3.2905,-3.3124,-3.3124,-3.3124,-3.3124,-3.3124,-3.3124,-3.3124,-3.3124,-3.3124,-3.3124,-3.3124,-3.4988,-3.4301,-3.3739,-3.3951,-3.2958,-3.2158,-3.2158,-3.1864,-3.1636,-3.1636,-3.1892,-3.1928,-3.1415,-3.1082,-3.072,-3.0266,-3.0381,-3.0671,-3.1158,-3.0746,-3.0482,-3.0482,-3.0037,-2.9792,-2.9792,-2.9792,-2.9792,-2.9792,-2.9792,-2.9869,-2.9972,-2.9972,-3.0049,-3.019,-3.0254,-3.0292,-3.0254,-3.0152,-3.0113,-3.0075,-2.9869,-2.9792,-2.9792,-2.9934,-2.9972,-3.0011,-3.0113,-3.0152,-3.0152,-3.0152,-3.0152,-3.019,-3.0254,-3.0152,-2.9972,-2.9972,-2.9895,-2.9792,-2.9792,-2.9792,-2.9792,-2.9792,-2.9528,-2.9277,-2.9277,-2.9013,-2.8775,-2.8775,-2.8775,-2.8775,-2.8775,-2.8775,-2.8775,-2.8775,-2.9051,-2.9277,-2.9277,-2.9566,-2.9792,-2.9792,-2.9792,-2.9792,-2.9792,-2.9792,-2.9792,-2.9792,-2.9792,-2.9792,-2.9792,-2.9792,-2.9792,-2.9792,-2.9792,-2.9792,-2.9792,-2.9792,-2.9792,-2.9792,-2.9792,-3.008,-3.0633,-3.1148,-3.1687,-3.224,-3.283,-3.3124,-3.3124,-3.3124,-3.3124,-3.3124,-3.3124,-3.3124,-3.3124,-3.3124,-3.3124,-3.3124,-3.3227,-3.3003,-3.272,-3.211,-3.1341,-3.0782,-3.0782,-3.0782,-3.0782,-3.0782,-3.1452,-3.1905,-3.1905,-3.123,-3.0782,-3.0782,-3.0177,-2.9792,-2.9792,-2.9792,-2.9792,-2.9792,-2.9792,-2.9792,-2.9792,-2.9792,-2.9792,-2.9792,-2.9792,-2.9792,-2.9792,-2.9792,-2.9792,-2.9792,-2.9972,-3.0075,-3.0075,-3.0075,-3.0075,-3.0049,-2.9869,-2.9792,-2.9792,-2.9792,-2.9792,-2.9792,-2.9792,-2.9792,-2.9792,-2.9792,-2.9792,-2.983,-3.0011,-2.9934,-2.9792,-2.9792,-2.9792,-2.9792,-2.9792,-2.9792,-2.9792,-2.9792,-2.9792,-2.9792,-2.9792,-2.9792,-2.9792,-2.9792,-2.9792,-2.9792,-2.9792,-2.9792,-2.9792,-2.9792,-2.9792,-2.9792,-2.9792,-2.9792,-2.9792,-2.9792,-2.9792,-2.9792,-2.9792,-2.9792,-2.9792,-2.9792,-2.9792,-2.9792,-2.9792,-2.9792,-2.9792,-2.9792,-2.9792,-2.9792,-2.9792,-2.9792,-2.9792,-2.9792,-2.9792,-3.0055,-3.0557,-3.1085,-3.1625,-3.2177,-3.2754,-3.3074,-3.3124,-3.3124,-3.3124,-3.3124,-3.3124,-3.3124,-3.3124,-3.3124,-3.3124,-3.3124,-3.2254,-3.1368,-3.0684,-3.1082,-3.052,-3.0037,-3.0037,-3.0037,-3.0037,-3.0037,-3.0177,-3.0292,-3.0292,-3.0139,-3.0037,-3.0037,-2.9895,-2.9792,-2.9792,-2.9792,-2.9792,-2.9792,-2.9792,-2.9792,-2.9792,-2.9792,-2.9792,-2.9792,-2.9792,-2.9792,-2.9792,-2.9792,-2.9792,-2.9792,-2.9869,-2.9869,-2.9869,-2.9869,-2.9869,-2.9869,-2.983,-2.9792,-2.9792,-2.9792,-2.9792,-2.9792,-2.9792,-2.9792,-2.9792,-2.9792,-2.9792,-2.9792,-2.9869,-2.983,-2.9792,-2.9792,-2.9792,-2.9792,-2.9792,-2.9792,-2.9792,-2.9792,-2.9792,-2.9792,-2.9792,-2.9792,-2.9792,-2.9792,-2.9792,-2.9792,-2.9792,-2.9792,-2.9792,-2.9792,-2.9792,-2.9792,-2.9792,-2.9792,-2.9792,-2.9792,-2.9792,-2.9792,-2.9792,-2.9792,-2.9792,-2.9792,-2.9792,-2.9792,-2.9792,-2.9792,-2.9792,-2.9792,-2.9792,-2.9792,-2.9792,-2.9792,-2.9792,-2.9792,-2.9792,-2.9854,-2.9993,-3.0532,-3.1072,-3.1599,-3.2164,-3.2654,-3.3124,-3.3124,-3.3124,-3.3124,-3.3124,-3.3124,-3.3124,-3.3124,-3.3124,-3.3124,-3.1526,-3.0884,-3.0343,-3.0381,-3.0075,-2.9792,-2.9792,-2.9792,-2.9792,-2.9792,-2.9792,-2.9792,-2.9792,-2.9792,-2.9792,-2.9792,-2.9792,-2.9792,-2.9792,-2.9792,-2.9792,-2.9792,-2.9792,-2.9792,-2.9792,-2.9792,-2.9792,-2.9792,-2.9792,-2.9792,-2.9792,-2.9792,-2.9792,-2.9792,-2.9792,-2.9792,-2.9792,-2.9792,-2.9792,-2.9792,-2.9792,-2.9792,-2.9792,-2.9792,-2.9792,-2.9792,-2.9792,-2.9792,-2.9792,-2.9792,-2.9792,-2.9792,-2.9792,-2.9792,-2.9792,-2.9792,-2.9792,-2.9792,-2.9792,-2.9792,-2.9792,-2.9792,-2.9792,-2.9792,-2.9792,-2.9792,-2.9792,-2.9792,-2.9792,-2.9792,-2.9792,-2.9792,-2.9792,-2.9792,-2.9792,-2.9792,-2.9792,-2.9792,-2.9792,-2.9792,-2.9792,-2.9792,-2.9792,-2.9792,-2.9792,-2.9792,-2.9792,-2.9792,-2.9792,-2.9792,-2.9792,-2.9792,-2.9792,-2.9792,-2.9792,-2.9792,-2.9792,-2.9792,-2.9792,-2.9792,-2.9817,-3.0369,-3.0758,-3.1047,-3.1587,-3.2139,-3.2667,-3.2667,-3.283,-3.3124,-3.3124,-3.3124,-3.3124,-3.3124,-3.3124,-3.3124,-3.0833,-3.072,-3.052,-2.9895,-2.9792,-2.9792,-2.9792,-2.9792,-2.9792,-2.9792,-2.9792,-2.9792,-2.9792,-2.9792,-2.9792,-2.9792,-2.9792,-2.9792,-2.9792,-2.9792,-2.9792,-2.9792,-2.9792,-2.9792,-2.9792,-2.9792,-2.9792,-2.9792,-2.9792,-2.9792,-2.9792,-2.9792,-2.9792,-2.9792,-2.9792,-2.9792,-2.9792,-2.9792,-2.9792,-2.9792,-2.9792,-2.9792,-2.9792,-2.9792,-2.9792,-2.9792,-2.9792,-2.9792,-2.9792,-2.9792,-2.9792,-2.9792,-2.9792,-2.9792,-2.9792,-2.9792,-2.9792,-2.9792,-2.9792,-2.9792,-2.9792,-2.9792,-2.9792,-2.9792,-2.9792,-2.9792,-2.9792,-2.9792,-2.9792,-2.9792,-2.9792,-2.9792,-2.9792,-2.9792,-2.9792,-2.9792,-2.9792,-2.9792,-2.9792,-2.9792,-2.9792,-2.9792,-2.9792,-2.9792,-2.9792,-2.9792,-2.9792,-2.9792,-2.9792,-2.9792,-2.9792,-2.9792,-2.9792,-2.9792,-2.9792,-2.9792,-2.9792,-2.9792,-2.9792,-2.9792,-2.9817,-3.0269,-3.052,-3.0633,-3.1072,-3.1574,-3.2077,-3.2077,-3.2353,-3.2847,-3.2893,-3.293,-3.2943,-3.3043,-3.3124,-3.3124,-2.9972,-2.9934,-2.9934,-2.983,-2.9792,-2.9792,-2.9792,-2.9792,-2.9792,-2.9792,-2.9792,-2.9792,-2.9792,-2.9792,-2.9792,-2.9792,-2.9792,-2.9792,-2.9792,-2.9792,-2.9792,-2.9792,-2.9792,-2.9792,-2.9792,-2.9792,-2.9792,-2.9792,-2.9792,-2.9792,-2.9792,-2.9792,-2.9792,-2.9792,-2.9792,-2.9792,-2.9792,-2.9792,-2.9792,-2.9792,-2.9792,-2.9792,-2.9792,-2.9792,-2.9792,-2.9792,-2.9792,-2.9792,-2.9792,-2.9792,-2.9792,-2.9792,-2.9792,-2.9792,-2.9792,-2.9792,-2.9792,-2.9792,-2.9792,-2.9792,-2.9792,-2.9792,-2.9792,-2.9792,-2.9792,-2.9792,-2.9792,-2.9792,-2.9792,-2.9792,-2.9792,-2.9792,-2.9792,-2.9792,-2.9792,-2.9792,-2.9792,-2.9792,-2.9792,-2.9792,-2.9792,-2.9792,-2.9792,-2.9792,-2.9792,-2.9792,-2.9792,-2.9792,-2.9792,-2.9792,-2.9792,-2.9792,-2.9792,-2.9792,-2.9792,-2.9792,-2.9792,-2.9792,-2.9792,-2.9792,-2.9792,-2.9867,-3.0168,-3.062,-3.0696,-3.1022,-3.1499,-3.1499,-3.1549,-3.1662,-3.2139,-3.2328,-3.239,-3.2893,-3.3124,-3.3124,-2.9792,-2.9792,-2.9792,-2.9792,-2.9792,-2.9792,-2.9792,-2.9792,-2.9792,-2.9792,-2.9792,-2.9792,-2.9792,-2.9792,-2.9792,-2.9792,-2.9792,-2.9792,-2.9792,-2.9792,-2.9792,-2.9792,-2.9792,-2.9792,-2.9792,-2.9792,-2.9792,-2.9792,-2.9792,-2.9792,-2.9792,-2.9792,-2.9792,-2.9792,-2.9792,-2.9792,-2.9792,-2.9792,-2.9792,-2.9792,-2.9792,-2.9792,-2.9792,-2.9792,-2.9792,-2.9792,-2.9792,-2.9792,-2.9792,-2.9792,-2.9792,-2.9792,-2.9792,-2.9792,-2.9792,-2.9792,-2.9792,-2.9792,-2.9792,-2.9792,-2.9792,-2.9792,-2.9792,-2.9792,-2.9792,-2.9792,-2.9792,-2.9792,-2.9792,-2.9792,-2.9792,-2.9792,-2.9792,-2.9792,-2.9792,-2.9792,-2.9792,-2.9792,-2.9792,-2.9792,-2.9792,-2.9792,-2.9792,-2.9792,-2.9792,-2.9792,-2.9792,-2.9792,-2.9792,-2.9339,-2.9079,-2.9079,-2.9079,-2.8831,-2.8303,-2.8791,-2.9079,-2.9079,-2.9079,-2.9339,-2.9792,-2.9792,-2.993,-3.0156,-3.0156,-3.047,-3.0959,-3.0959,-3.1135,-3.1411,-3.1662,-3.175,-3.1813,-3.239,-3.2591,-3.2641]}]]